[[{"header":{"parameterUnit":"m.s-1","parameterCategory":1,"la1":31.0,"la2":29.5877,"lo1":-88.7671,"lo2":-86.6584,"dy":0.0162,"dx":0.0185,"nx":115,"ny":88,"refTime":"2023-10-03T12:00:00:Z","depth":0,"parameterNumber":2,"parameterNumberName":"U-component_of_WINDS"},"data":[0.0,0.0,0.0,0.0,0.0,0.0,0.0,0.0,0.0,0.0,0.0,0.0,0.0,0.0,0.0,0.0,0.0,0.0,0.0,0.0,0.0,0.0,0.0,0.0,0.0,0.0,0.0,0.0,0.0,0.0,0.0,0.0,0.0,0.0,0.0,0.0,0.0,0.0,0.0,0.0,0.0,0.0,0.0,0.0,0.0,0.0,0.0,0.0,0.0,0.0,0.0,0.0,0.0,0.0,0.0,0.0,0.0,0.0,0.0,0.0,0.0,0.0,0.0,0.0,0.0,0.0,0.0,0.0,0.0,0.0,0.0,0.0,0.0,0.0,0.0,0.0,0.0,0.0,0.0,0.0,0.0,0.0,0.0,0.0,0.0,0.0,0.0,0.0,0.0,0.0,0.0,0.0,0.0,0.0,0.0,0.0,0.0,0.0,0.0,0.0,0.0,0.0,0.0,0.0,0.0,0.0,0.0,0.0,0.0,0.0,0.0,0.0,0.0,0.0,0.0,0.0,0.0,0.0,0.0,0.0,0.0,0.0,0.0,0.0,0.0,0.0,0.0,0.0,0.0,0.0,0.0,0.0,0.0,0.0,0.0,0.0,0.0,0.0,0.0,0.0,0.0,0.0,0.0,0.0,0.0,0.0,0.0,0.0,0.0,0.0,0.0,0.0,0.0,0.0,0.0,0.0,0.0,0.0,0.0,0.0,0.0,0.0,0.0,0.0,0.0,0.0,0.0,0.0,0.0,0.0,0.0,0.0,0.0,0.0,0.0,0.0,0.0,0.0,0.0,0.0,0.0,0.0,0.0,0.0,0.0,0.0,0.0,0.0,0.0,0.0,0.0,0.0,0.0,0.0,0.0,0.0,0.0,0.0,0.0,0.0,0.0,0.0,0.0,0.0,0.0,0.0,0.0,0.0,0.0,0.0,0.0,0.0,0.0,0.0,0.0,0.0,0.0,0.0,0.0,0.0,0.0,0.0,0.0,0.0,0.0,0.0,0.0,0.0,0.0,0.0,0.0,0.0,0.0,0.0,0.0,0.0,0.0,0.0,0.0,0.0,0.0,0.0,0.0,0.0,0.0,0.0,0.0,0.0,0.0,0.0,0.0,0.0,0.0,0.0,0.0,0.0,0.0,0.0,0.0,0.0,0.0,0.0,0.0,0.0,0.0,0.0,0.0,0.0,0.0,0.0,0.0,0.0,0.0,0.0,0.0,0.0,0.0,0.0,0.0,0.0,0.0,0.0,0.0,0.0,0.0,0.0,0.0,0.0,0.0,0.0,0.0,0.0,0.0,0.0,0.0,0.0,0.0,0.0,0.0,0.0,0.0,0.0,0.0,0.0,0.0,0.0,0.0,0.0,0.0,0.0,0.0,0.0,0.0,0.0,0.0,0.0,0.0,0.0,0.0,0.0,0.0,0.0,0.0,0.0,0.0,0.0,0.0,0.0,0.0,0.0,0.0,0.0,0.0,0.0,0.0,0.0,0.0,0.0,0.0,0.0,0.0,0.0,0.0,0.0,0.0,0.0,0.0,0.0,0.0,0.0,0.0,0.0,0.0,0.0,0.0,0.0,0.0,0.0,0.0,0.0,0.0,0.0,0.0,0.0,0.0,0.0,0.0,0.0,0.0,0.0,0.0,0.0,0.0,0.0,0.0,0.0,0.0,0.0,0.0,0.0,0.0,0.0,0.0,0.0,0.0,0.0,0.0,0.0,0.0,0.0,0.0,0.0,0.0,0.0,0.0,0.0,0.0,0.0,0.0,0.0,0.0,0.0,0.0,0.0,0.0,0.0,0.0,0.0,0.0,0.0,0.0,0.0,0.0,0.0,0.0,0.0,0.0,0.0,0.0,0.0,0.0,0.0,0.0,0.0,0.0,0.0,0.0,0.0,0.0,0.0,0.0,0.0,0.0,0.0,0.0,0.0,0.0,0.0,0.0,0.0,0.0,0.0,0.0,0.0,0.0,0.0,0.0,0.0,0.0,0.0,0.0,0.0,0.0,0.0,0.0,0.0,0.0,0.0,0.0,0.0,0.0,0.0,0.0,0.0,0.0,0.0,0.0,0.0,0.0,0.0,0.0,0.0,0.0,0.0,0.0,0.0,0.0,0.0,0.0,0.0,0.0,0.0,0.0,0.0,0.0,0.0,0.0,0.0,0.0,0.0,0.0,0.0,0.0,0.0,0.0,0.0,0.0,0.0,0.0,0.0,0.0,0.0,0.0,0.0,0.0,0.0,0.0,0.0,0.0,0.0,0.0,0.0,0.0,0.0,0.0,0.0,0.0,0.0,0.0,0.0,0.0,0.0,0.0,0.0,0.0,0.0,0.0,0.0,0.0,0.0,0.0,0.0,0.0,0.0,0.0,0.0,0.0,0.0,0.0,0.0,0.0,0.0,0.0,0.0,0.0,0.0,0.0,0.0,0.0,0.0,0.0,0.0,0.0,0.0,0.0,0.0,0.0,0.0,0.0,0.0,0.0,0.0,0.0,0.0,0.0,0.0,0.0,0.0,0.0,0.0,0.0,0.0,0.0,0.0,0.0,0.0,0.0,0.0,0.0,0.0,0.0,0.0,0.0,0.0,0.0,0.0,0.0,0.0,0.0,0.0,0.0,0.0,0.0,0.0,0.0,0.0,0.0,0.0,0.0,0.0,0.0,0.0,0.0,0.0,0.0,0.0,0.0,0.0,0.0,0.0,0.0,0.0,0.0,0.0,0.0,0.0,0.0,0.0,0.0,0.0,0.0,0.0,0.0,0.0,0.0,0.0,0.0,0.0,0.0,0.0,0.0,0.0,0.0,0.0,0.0,0.0,0.0,0.0,0.0,0.0,0.0,0.0,0.0,0.0,0.0,0.0,0.0,0.0,0.0,0.0,0.0,0.0,0.0,0.0,0.0,0.0,0.0,0.0,0.0,0.0,0.0,0.0,0.0,0.0,0.0,0.0,0.0,0.0,0.0,0.0,0.0,0.0,0.0,0.0,0.0,0.0,0.0,0.0,0.0,0.0,0.0,0.0,0.0,0.0,0.0,0.0,0.0,0.0,0.0,0.0,0.0,0.0,0.0,0.0,0.0,0.0,0.0,0.0,0.0,0.0,0.0,0.0,0.0,0.0,0.0,0.0,0.0,0.0,0.0,0.0,0.0,0.0,0.0,0.0,0.0,0.0,0.0,0.0,0.0,0.0,0.0,0.0,0.0,0.0,0.0,0.0,0.0,0.0,0.0,0.0,0.0,0.0,0.0,0.0,0.0,0.0,0.0,0.0,0.0,0.0,0.0,0.0,0.0,0.0,0.0,0.0,0.0,0.0,0.0,0.0,0.0,0.0,0.0,0.0,0.0,0.0,0.0,0.0,0.0,0.0,0.0,0.0,0.0,0.0,0.0,0.0,0.0,0.0,0.0,0.0,0.0,0.0,0.0,0.0,0.0,0.0,0.0,0.0,0.0,0.0,0.0,0.0,0.0,0.0,0.0,0.0,0.0,0.0,0.0,0.0,0.0,0.0,0.0,0.0,0.0,0.0,0.0,0.0,0.0,0.0,0.0,0.0,0.0,0.0,0.0,0.0,0.0,0.0,0.0,0.0,0.0,0.0,0.0,0.0,0.0,0.0,0.0,0.0,0.0,0.0,0.0,0.0,0.0,0.0,0.0,0.0,0.0,0.0,0.0,0.0,0.0,0.0,0.0,0.0,0.0,0.0,0.0,0.0,0.0,0.0,0.0,0.0,0.0,0.0,0.0,0.0,0.0,0.0,0.0,0.0,0.0,0.0,0.0,0.0,0.0,0.0,0.0,0.0,0.0,0.0,0.0,0.0,0.0,0.0,0.0,0.0,0.0,0.0,0.0,0.0,0.0,0.0,0.0,0.0,0.0,0.0,0.0,0.0,0.0,0.0,0.0,0.0,0.0,0.0,0.0,0.0,0.0,0.0,0.0,0.0,0.0,0.0,0.0,0.0,0.0,0.0,0.0,0.0,0.0,0.0,0.0,0.0,0.0,0.0,0.0,0.0,0.0,0.0,0.0,0.0,0.0,0.0,0.0,0.0,0.0,0.0,0.0,0.0,0.0,0.0,0.0,0.0,0.0,0.0,0.0,0.0,0.0,0.0,0.0,0.0,0.0,0.0,0.0,0.0,0.0,0.0,0.0,0.0,0.0,0.0,0.0,0.0,0.0,0.0,0.0,0.0,0.0,0.0,0.0,0.0,0.0,0.0,0.0,0.0,0.0,0.0,0.0,0.0,0.0,0.0,0.0,0.0,0.0,0.0,0.0,0.0,0.4682,0.0,0.0,0.0,0.0,0.0,0.0,0.0,0.0,0.0,0.0,0.0,0.0,0.0,0.0,0.0,0.0,0.0,0.0,0.0,0.0,0.0,0.0,0.0,0.0,0.0,0.0,0.0,0.0,0.0,0.0,0.0,0.0,0.0,0.0,0.0,0.0,0.0,0.0,0.0,0.0,0.0,0.0,0.0,0.0,0.0,0.0,0.0,0.0,0.0,0.0,0.0,0.0,0.0,0.0,0.0,0.0,0.0,0.0,0.0,0.0,0.0,0.0,0.0,0.0,0.0,0.0,0.0,0.0,0.0,0.0,0.0,0.0,0.0,0.0,0.0,0.0,0.0,0.0,0.0,0.0,0.0,0.0,0.0,0.0,0.0,0.0,0.0,0.0,0.0,0.0,0.0,0.0,0.0,0.0,0.0,0.0,0.0,0.0,0.0,0.0,0.0,0.0,0.0,0.0,0.0,0.0,0.0,0.0,0.0,0.0,0.4545,0.4548,0.4255,0.4292,0.4751,0.0,0.0,0.0,0.0,0.0,0.0,0.0,0.0,0.0,0.0,0.0,0.0,0.0,0.0,0.0,0.0,0.0,0.0,0.0,0.0,0.0,0.0,0.0,0.0,0.0,0.0,0.0,0.0,0.0,0.0,0.0,0.0,0.0,0.0,0.0,0.0,0.0,0.0,0.0,0.0,0.0,0.0,0.0,0.0,0.0,0.0,0.0,0.0,0.0,0.0,0.0,0.0,0.0,0.0,0.0,0.0,0.0,0.0,0.0,0.0,0.0,0.0,0.0,0.0,0.0,0.0,0.0,0.0,0.0,0.0,0.0,0.0,0.0,0.0,0.0,0.0,0.0,0.0,0.0,0.0,0.0,0.0,0.0,0.0,0.0,0.0,0.0,0.0,0.0,0.0,0.0,0.0,0.0,0.0,0.0,0.0,0.0,0.0,0.0,0.0,0.0,0.0,0.0,0.0,0.0,0.0,0.0,0.0,0.0,0.0,0.0,0.0,0.459,0.4621,0.495,0.0,0.0,0.0,0.0,0.0,0.0,0.0,0.0,0.0,0.0,0.0,0.0,0.0,0.0,0.0,0.0,0.0,0.0,0.0,0.0,0.0,0.0,0.0,0.0,0.0,0.0,0.0,0.0,0.0,0.0,0.0,0.0,0.0,0.0,0.0,0.0,0.0,0.0,0.0,0.0,0.0,0.0,0.0,0.0,0.0,0.0,0.0,0.0,0.0,0.0,0.0,0.0,0.0,0.0,0.0,0.0,0.0,0.0,0.0,0.0,0.0,0.0,0.0,0.0,0.0,0.0,0.0,0.0,0.0,0.0,0.0,0.0,0.0,0.0,0.0,0.0,0.0,0.0,0.0,0.0,0.0,0.0,0.0,0.0,0.0,0.0,0.0,0.0,0.0,0.0,0.0,0.0,0.0,0.0,0.0,0.0,0.0,0.0,0.0,0.0,0.0,0.0,0.0,0.0,0.0,0.0,0.0,0.0,0.0,0.0,0.5497,0.5681,0.5375,0.0,0.5492,0.0,0.0,0.0,0.0,0.0,0.0,0.0,0.0,0.0,0.0,0.0,0.0,0.0,0.0,0.0,0.0,0.0,0.0,0.0,0.0,0.0,0.0,0.0,0.0,0.0,0.0,0.0,0.0,0.0,0.0,0.0,0.0,0.0,0.0,0.0,0.0,0.0,0.0,0.0,0.0,0.0,0.0,0.0,0.0,0.0,0.0,0.0,0.0,0.0,0.0,0.0,0.0,0.0,0.0,0.0,0.0,0.0,0.0,0.0,0.0,0.0,0.0,0.0,0.0,0.0,0.0,0.0,0.0,0.0,0.0,0.0,0.0,0.0,0.0,0.0,0.0,0.0,0.0,0.0,0.0,0.0,0.0,0.0,0.0,0.0,0.0,0.0,0.0,0.0,0.0,0.0,0.0,0.0,0.0,0.0,0.0,0.0,0.0,0.0,0.0,0.0,0.0,0.0,0.0,0.0,0.0,0.0,0.0,0.0,0.0,0.573,0.5624,0.5423,0.5339,0.0,0.0,0.0,0.0,0.0,0.0,0.0,0.0,0.0,0.0,0.0,0.0,0.0,0.0,0.0,0.0,0.0,0.0,0.0,0.0,0.0,0.0,0.0,0.0,0.0,0.0,0.0,0.0,0.0,0.0,0.0,0.0,0.0,0.0,0.0,0.0,0.0,0.0,0.0,0.0,0.0,0.0,0.0,0.0,0.0,0.0,0.0,0.0,0.0,0.0,0.0,0.0,0.0,0.0,0.0,0.0,0.0,0.0,0.0,0.0,0.0,0.0,0.0,0.0,0.0,0.0,0.0,0.0,0.0,0.0,0.0,0.0,0.0,0.0,0.0,0.0,0.0,0.0,0.0,0.0,0.0,0.0,0.0,0.0,0.0,0.0,0.0,0.0,0.0,0.0,0.0,0.0,0.0,0.0,0.0,0.0,0.0,0.0,0.0,0.0,0.0,0.0,0.0,0.0,0.0,0.0,0.0,0.0,0.0,0.0,0.6129,0.5905,0.5654,0.5374,0.5317,0.547,0.0,0.0,0.0,0.0,0.0,0.0,0.0,0.0,0.0,0.0,0.0,0.0,0.0,0.0,0.0,0.0,0.0,0.0,0.0,0.0,0.0,0.0,0.0,0.0,0.0,0.0,0.0,0.0,0.0,0.0,0.0,0.0,0.0,0.0,0.0,0.0,0.0,0.0,0.0,0.0,0.0,0.0,0.0,0.0,0.0,0.0,0.0,0.0,0.0,0.0,0.0,0.0,0.0,0.0,0.0,0.0,0.0,0.0,0.0,0.0,0.0,0.0,0.0,0.0,0.0,0.0,0.0,0.0,0.0,0.0,0.0,0.0,0.0,0.0,0.0,0.0,0.0,0.0,0.0,0.0,0.0,0.0,0.0,0.0,0.0,0.0,0.0,0.0,0.0,0.0,0.0,0.0,0.0,0.0,0.0,0.0,0.0,0.0,0.0,0.0,0.0,0.0,0.0,0.0,0.0,0.0,0.0,0.0,0.7098,0.6452,0.6103,0.6049,0.5443,0.535,0.0,0.0,0.0,0.0,0.0,0.0,0.0,0.0,0.0,0.0,0.0,0.0,0.0,0.0,0.0,0.0,0.0,0.0,0.0,0.0,0.0,0.0,0.0,0.0,0.0,0.0,0.0,0.0,0.0,0.0,0.0,0.0,0.0,0.0,0.0,0.0,0.0,0.0,0.0,0.0,0.0,0.0,0.0,0.0,0.0,0.0,0.0,0.0,0.0,0.0,0.0,0.0,0.0,0.0,0.0,0.0,0.0,0.0,0.0,0.0,0.0,0.0,0.0,0.0,0.0,0.0,0.0,0.0,0.0,0.0,0.0,0.0,0.0,0.0,0.0,0.0,0.0,0.0,0.0,0.0,0.0,0.0,0.0,0.0,0.0,0.0,0.0,0.0,0.0,0.0,0.0,0.0,0.0,0.0,0.0,0.0,0.0,0.0,0.0,0.0,0.0,0.0,0.0,0.0,0.0,0.0,0.0,0.0,0.0,0.6619,0.6268,0.6005,0.5786,0.5556,0.5515,0.0,0.0,0.0,0.0,0.0,0.0,0.0,0.0,0.0,0.0,0.0,0.0,0.0,0.0,0.0,0.0,0.0,0.0,0.0,0.0,0.0,0.0,0.0,0.0,0.0,0.0,0.0,0.0,0.0,0.0,0.0,0.0,0.0,0.0,0.0,0.0,0.0,0.0,0.0,0.0,0.0,0.0,0.0,0.0,0.0,0.0,0.0,0.0,0.0,0.0,0.0,0.0,0.0,0.0,0.0,0.0,0.0,0.0,0.0,0.0,0.0,0.0,0.0,0.0,0.0,0.0,0.0,0.0,0.0,0.0,0.0,0.0,0.0,0.0,0.0,0.0,0.0,0.0,0.0,0.0,0.0,0.0,0.0,0.0,0.0,0.0,0.0,0.0,0.0,0.0,0.0,0.0,0.0,0.0,0.0,0.0,0.0,0.0,0.0,0.0,0.0,0.0,0.0,0.0,0.0,0.0,0.0,0.0,0.0,0.6337,0.0,0.5865,0.5706,0.5531,0.5466,0.0,0.0,0.0,0.0,0.0,0.0,0.0,0.0,0.0,0.0,0.0,0.0,0.0,0.0,0.0,0.0,0.0,0.0,0.0,0.0,0.0,0.0,0.0,0.0,0.0,0.0,0.0,0.0,0.0,0.0,0.0,0.0,0.0,0.0,0.0,0.0,0.0,0.0,0.0,0.0,0.0,0.0,0.0,0.0,0.0,0.0,0.0,0.0,0.0,0.0,0.0,0.0,0.0,0.0,0.0,0.0,0.0,0.0,0.0,0.0,0.0,0.0,0.0,0.0,0.0,0.0,0.0,0.0,0.0,0.0,0.0,0.0,0.0,0.0,0.0,0.0,0.0,0.0,0.0,0.0,0.0,0.0,0.0,0.0,0.0,0.0,0.0,0.0,0.0,0.0,0.0,0.0,0.0,0.0,0.0,0.0,0.0,0.0,0.0,0.0,0.0,0.0,0.0,0.0,0.0,0.0,0.0,0.0,0.6782,0.6383,0.5887,0.5737,0.5908,0.5404,0.519,0.0,0.0,0.0,0.0,0.0,0.0,0.0,0.0,0.0,0.0,0.0,0.0,0.0,0.0,0.0,0.0,0.0,0.0,0.0,0.0,0.0,0.0,0.0,0.0,0.0,0.0,0.0,0.0,0.0,0.0,0.0,0.0,0.0,0.0,0.0,0.0,0.0,0.0,0.0,0.0,0.0,0.0,0.0,0.0,0.0,0.0,0.0,0.0,0.0,0.0,0.0,0.0,0.0,0.0,0.0,0.0,0.0,0.0,0.0,0.0,0.0,0.0,0.0,0.0,0.0,0.0,0.0,0.0,0.0,0.0,0.0,0.0,0.0,0.0,0.0,0.0,0.0,0.0,0.0,0.0,0.0,0.0,0.0,0.0,0.0,0.0,0.0,0.0,0.0,0.0,0.0,0.0,0.0,0.0,0.0,0.0,0.0,0.0,0.0,0.0,0.0,0.0,0.0,0.0,0.0,0.0,0.0,0.0,0.0,0.6196,0.5896,0.6086,0.6789,0.5808,0.5573,0.0,0.0,0.0,0.0,0.0,0.0,0.0,0.0,0.0,0.0,0.0,0.0,0.0,0.0,0.0,0.0,0.0,0.0,0.0,0.0,0.0,0.0,0.0,0.0,0.0,0.0,0.0,0.0,0.0,0.0,0.0,0.0,0.0,0.0,0.0,0.0,0.0,0.0,0.0,0.0,0.0,0.0,0.0,0.0,0.0,0.0,0.0,0.0,0.0,0.0,0.0,0.0,0.0,0.0,0.0,0.0,0.0,0.0,0.0,0.0,0.0,0.0,0.0,0.0,0.0,0.0,0.0,0.0,0.0,0.0,0.0,0.0,0.0,0.0,0.0,0.0,0.0,0.0,0.0,0.0,0.0,0.0,0.0,0.0,0.0,0.0,0.0,0.0,0.0,0.0,0.0,0.0,0.0,0.0,0.0,0.0,0.0,0.0,0.0,0.0,0.0,0.0,0.0,0.0,0.0,0.0,0.0,0.0,0.0,0.6606,0.6115,0.6162,0.689,0.5994,0.5721,0.6148,0.0,0.0,0.0,0.0,0.0,0.0,0.0,0.0,0.0,0.0,0.0,0.0,0.0,0.0,0.0,0.0,0.0,0.0,0.0,0.0,0.0,0.0,0.0,0.0,0.0,0.0,0.0,0.0,0.0,0.0,0.0,0.0,0.0,0.0,0.0,0.0,0.0,0.0,0.0,0.0,0.0,0.0,0.0,0.0,0.0,0.0,0.0,0.0,0.0,0.0,0.0,0.0,0.0,0.0,0.0,0.0,0.0,0.0,0.0,0.0,0.0,0.0,0.0,0.0,0.0,0.0,0.0,0.0,0.0,0.0,0.0,0.0,0.0,0.0,0.0,0.0,0.0,0.0,0.0,0.0,0.0,0.0,0.0,0.0,0.0,0.0,0.0,0.0,0.0,0.0,0.0,0.0,0.0,0.0,0.0,0.0,0.0,0.0,0.0,0.0,0.0,0.0,0.0,0.0,0.0,0.0,0.0,0.0,0.752,0.6526,0.6138,0.6374,0.6089,0.576,0.0,0.0,0.0,0.0,0.0,0.0,0.0,0.0,0.0,0.0,0.0,0.0,0.0,0.0,0.0,0.0,0.0,0.0,0.0,0.0,0.0,0.0,0.0,0.0,0.0,0.0,0.0,0.0,0.0,0.0,0.0,0.0,0.0,0.0,0.0,0.0,0.0,0.0,0.0,0.0,0.0,0.0,0.0,0.0,0.0,0.0,0.0,0.0,0.0,0.0,0.0,0.0,0.0,0.0,0.0,0.0,0.0,0.0,0.0,0.0,0.0,0.0,0.0,0.0,0.0,0.0,0.0,0.0,0.0,0.0,0.0,0.0,0.0,0.0,0.0,0.0,0.0,0.0,0.0,0.0,0.0,0.0,0.0,0.0,0.0,0.0,0.0,0.0,0.0,0.0,0.0,0.0,0.0,0.0,0.0,0.0,0.0,0.0,0.0,0.0,0.0,0.0,0.0,0.0,0.0,0.0,0.0,0.0,0.0,0.7869,0.7521,0.7595,0.813,0.6958,0.6375,0.0,0.0,0.0,0.0,0.0,0.0,0.0,0.0,0.0,0.0,0.0,0.0,0.0,0.0,0.0,0.0,0.0,0.0,0.0,0.0,0.0,0.0,0.0,0.0,0.0,0.0,0.0,0.0,0.0,0.0,0.0,0.0,0.0,0.0,0.0,0.0,0.0,0.0,0.0,0.0,0.0,0.0,0.0,0.0,0.0,0.0,0.0,0.0,0.0,0.0,0.0,0.0,0.0,0.0,0.0,0.0,0.0,0.0,0.0,0.0,0.0,0.0,0.0,0.0,0.0,0.0,0.0,0.0,0.0,0.0,0.0,0.0,0.0,0.0,0.0,0.0,0.0,0.0,0.0,0.0,0.0,0.0,0.0,0.0,0.0,0.0,0.0,0.0,0.0,0.0,0.0,0.0,0.0,0.0,0.0,0.0,0.0,0.0,0.0,0.0,0.0,0.0,0.0,0.0,0.0,0.0,0.0,0.0,0.6923,0.7964,0.8147,0.8462,0.8961,0.7807,0.7049,0.0,0.0,0.0,0.0,0.0,0.0,0.0,0.0,0.0,0.0,0.0,0.0,0.0,0.0,0.0,0.0,0.0,0.0,0.0,0.0,0.0,0.0,0.0,0.0,0.0,0.0,0.0,0.0,0.0,0.0,0.0,0.0,0.0,0.0,0.0,0.0,0.0,0.0,0.0,0.0,0.0,0.0,0.0,0.0,0.0,0.0,0.0,0.0,0.0,0.0,0.0,0.0,0.0,0.0,0.0,0.0,0.0,0.0,0.0,0.0,0.0,0.0,0.0,0.0,0.0,0.0,0.0,0.0,0.0,0.0,0.0,0.0,0.0,0.0,0.0,0.0,0.0,0.0,0.0,0.0,0.0,0.0,0.0,0.0,0.0,0.0,0.0,0.0,0.0,0.0,0.0,0.0,0.0,0.0,0.0,0.0,0.0,0.0,0.0,0.0,0.0,0.0,0.0,0.0,0.0,0.0,0.0,0.0,0.713,0.7932,0.8522,0.8919,0.9129,0.8576,0.7699,0.0,0.0,0.0,0.0,0.0,0.0,0.0,0.0,0.0,0.0,0.0,0.0,0.0,0.0,0.0,0.0,0.0,0.0,0.0,0.0,0.0,0.0,0.0,0.0,0.0,0.0,0.0,0.0,0.0,0.0,0.0,0.0,0.0,0.0,0.0,0.0,0.0,0.0,0.0,0.0,0.0,0.0,0.0,0.0,0.0,0.0,0.0,0.0,0.0,0.0,0.0,0.0,0.0,0.0,0.0,0.0,0.0,0.0,0.0,0.0,0.0,0.0,0.0,0.0,0.0,0.0,0.0,0.0,0.0,0.0,0.0,0.0,0.0,0.0,0.0,0.0,0.0,0.0,0.0,0.0,0.0,0.0,0.0,0.0,0.0,0.0,0.0,0.0,0.0,0.0,0.0,0.0,0.0,0.0,0.0,0.0,0.0,0.0,0.0,0.0,0.0,0.0,0.0,0.0,0.0,0.0,0.0,0.0,0.757,0.8858,0.8977,0.917,0.9478,0.8576,0.7683,0.0,0.0,0.0,0.0,0.0,0.0,0.0,0.0,0.0,0.0,0.0,0.0,0.0,0.0,0.0,0.0,0.0,0.0,0.0,0.0,0.0,0.0,0.0,0.0,0.0,0.0,0.0,0.0,0.0,0.0,0.0,0.0,0.0,0.0,0.0,0.0,0.0,0.0,0.0,0.0,0.0,0.0,0.0,0.0,0.0,0.0,0.0,0.0,0.9235,0.0,0.0,0.0,0.0,0.0,0.0,0.0,0.0,0.0,0.0,0.0,0.0,0.0,0.0,0.0,0.0,0.0,0.0,0.0,0.0,0.0,0.0,0.0,0.0,0.0,0.0,0.0,0.0,0.0,0.0,0.0,0.0,0.0,0.0,0.0,0.0,0.0,0.0,0.0,0.0,0.0,0.0,0.0,0.0,0.0,0.0,0.0,0.0,0.0,0.0,0.0,0.0,0.0,0.0,0.0,0.0,0.0,0.0,0.0,0.7702,0.8886,0.8946,0.9137,0.9445,0.8617,0.7966,0.0,0.0,0.0,0.0,0.0,0.0,0.0,0.0,0.0,0.0,0.0,0.0,0.0,0.0,0.0,0.0,0.0,0.0,0.0,0.0,0.0,0.0,0.0,0.0,0.0,0.0,0.0,0.0,0.0,0.0,0.0,0.0,0.0,0.0,0.0,0.0,0.0,0.0,0.0,0.0,0.0,0.0,0.0,0.0,0.0,0.0,0.0,0.0,0.0,0.0,0.0,0.0,0.0,0.0,0.0,0.0,0.0,0.0,0.0,0.0,0.0,0.0,0.0,0.0,0.0,0.0,0.0,0.0,0.0,0.0,0.0,0.0,0.0,0.0,0.0,0.0,0.0,0.0,0.0,0.0,0.0,0.0,0.0,0.0,0.0,0.0,0.0,0.0,0.0,0.0,0.0,0.0,0.0,0.0,0.0,0.0,0.0,0.0,0.0,0.0,0.0,0.0,0.0,0.0,0.0,0.0,0.0,0.7335,0.7964,0.9042,0.897,0.9064,0.9396,0.8731,0.8379,0.8426,0.0,0.0,0.0,0.0,0.0,0.0,0.0,0.0,0.0,0.0,0.0,0.0,0.0,0.0,0.0,0.0,0.0,0.0,0.0,0.0,0.0,0.0,0.0,0.0,0.0,0.0,0.0,0.0,0.0,0.0,0.0,0.0,0.0,0.0,0.0,0.0,0.0,0.0,0.8925,0.9526,0.0,0.0,0.0,0.0,0.0,0.0,0.0,0.0,0.9781,0.0,0.0,0.0,0.0,0.0,0.0,0.0,0.0,0.0,0.0,0.0,0.0,0.0,0.0,0.0,0.0,0.0,0.0,0.0,0.0,0.0,0.0,0.0,0.0,0.0,0.0,0.0,0.0,0.0,0.0,0.0,0.0,0.0,0.0,0.0,0.0,0.0,0.0,0.0,0.0,0.0,0.0,0.0,0.0,0.0,0.0,0.0,0.0,0.0,0.0,0.0,0.0,0.0,0.0,0.0,0.0,0.9439,0.8692,0.9293,1.1265,1.0014,0.9388,0.9535,0.9008,0.8824,0.8989,0.0,0.0,0.0,0.0,0.0,0.0,0.0,0.0,0.0,0.0,0.0,0.0,0.0,0.0,0.0,0.0,0.0,0.0,0.0,0.0,0.0,0.0,0.0,0.0,0.0,0.0,0.0,0.0,0.0,0.0,0.0,0.0,0.0,0.0,0.0,0.0,0.0,0.0,0.0,1.0445,1.0872,0.0,0.0,0.0,0.0,0.0,0.0,0.0,0.0,0.9941,0.0,0.0,0.0,0.0,0.0,0.0,0.0,0.0,0.0,0.0,0.0,0.0,0.0,0.0,0.0,0.0,0.0,0.0,0.0,0.0,0.0,0.0,0.0,0.0,0.0,0.0,0.0,0.0,0.0,0.0,0.0,0.0,0.0,0.0,0.0,0.0,0.0,0.0,0.0,0.0,0.0,0.0,0.0,0.0,0.0,0.0,0.0,0.0,0.0,0.0,0.0,0.0,0.0,0.0,0.0,0.9124,0.8866,0.9247,1.038,0.9663,0.9218,0.917,0.8601,0.8425,0.0,0.0,0.0,0.0,0.0,0.0,0.0,0.0,0.0,0.0,0.0,0.0,0.0,0.0,0.0,0.0,0.0,0.0,0.0,0.0,0.0,0.0,0.0,0.0,0.0,0.0,0.0,0.0,0.0,0.0,0.0,0.0,0.0,0.0,0.0,0.0,0.0,0.0,0.0,0.0,1.0848,1.1102,1.0819,0.0,0.0,0.0,0.0,0.0,0.0,1.0517,1.0305,0.0,0.0,0.0,0.0,0.0,0.0,0.0,0.0,0.0,0.0,0.0,0.0,0.0,0.0,0.0,0.0,0.0,0.0,0.0,0.0,0.0,0.0,0.0,0.0,0.0,0.0,0.0,0.0,0.0,0.0,0.0,0.0,0.0,0.0,0.0,0.0,0.0,0.0,0.0,0.0,0.0,0.0,0.0,0.0,0.0,0.0,0.0,0.0,0.0,0.0,0.0,0.0,0.0,0.0,0.0,0.9043,0.894,0.9124,0.9641,0.9283,0.9015,0.8789,0.817,0.8047,0.0,0.0,0.0,0.0,0.0,0.0,0.0,0.0,0.0,0.0,0.0,0.0,0.0,0.0,0.0,0.0,0.0,0.0,0.0,0.0,0.0,0.0,0.0,0.0,0.0,0.0,0.0,0.0,0.0,0.0,0.0,0.0,0.0,0.0,0.0,0.0,0.0,0.0,0.0,0.0,0.0,1.121,1.1162,1.1327,0.0,0.0,0.0,0.0,1.1276,1.1226,0.0,0.0,0.0,0.0,0.0,0.0,0.0,0.0,0.0,0.0,0.0,0.0,0.0,0.0,0.0,0.0,0.0,0.0,0.0,0.0,0.0,0.0,0.0,0.0,0.0,0.0,0.0,0.0,0.0,0.0,0.0,0.0,0.0,0.0,0.0,0.0,0.0,0.0,0.0,0.0,0.0,0.0,0.0,0.0,0.0,0.0,0.0,0.0,0.0,0.0,0.0,0.0,0.0,0.0,0.0,0.0,1.1025,0.9765,0.9898,1.1473,0.9986,0.9007,0.8797,0.8255,0.8306,0.0,0.0,0.0,0.0,0.0,0.0,0.0,0.0,0.0,0.0,0.0,0.0,0.0,0.0,0.0,0.0,0.0,0.0,0.0,0.0,0.0,0.0,0.0,0.0,0.0,0.0,0.0,0.0,0.0,0.0,0.0,0.0,0.0,0.0,0.0,0.0,0.0,0.0,0.0,0.0,0.0,1.1581,1.0495,1.1043,1.1347,0.0,0.0,1.2158,1.2144,1.2766,0.0,0.0,0.0,0.0,0.0,0.0,0.0,0.0,0.0,0.0,0.0,0.0,0.0,0.0,0.0,0.0,0.0,0.0,0.0,0.0,0.0,0.0,0.0,0.0,0.0,0.0,0.0,0.0,0.0,0.0,0.0,0.0,0.0,0.0,0.0,0.0,0.0,0.0,0.0,0.0,0.0,0.0,0.0,0.0,0.0,0.0,0.0,0.0,0.0,0.0,0.0,0.0,0.0,0.0,0.0,0.8892,1.0187,0.9738,0.9617,0.9854,0.9258,0.8733,0.8352,0.7825,0.7835,0.0,0.0,0.0,0.0,0.0,0.0,0.0,0.0,0.0,0.0,0.0,0.0,0.0,0.0,0.0,0.0,0.0,0.0,0.0,0.0,0.0,0.0,0.0,0.0,0.0,0.0,0.0,0.0,0.0,0.0,0.0,0.0,0.0,0.0,0.0,0.0,0.0,0.0,0.0,0.0,0.0,0.0,1.1736,1.2292,0.0,0.0,0.0,1.3233,1.3073,0.0,0.0,0.0,0.0,0.0,0.0,0.0,0.0,0.0,0.0,0.0,0.0,0.0,0.0,0.0,0.0,0.0,0.0,0.0,0.0,0.0,0.0,0.0,0.0,0.0,0.0,0.0,0.0,0.0,0.0,0.0,0.0,0.0,0.0,0.0,0.0,0.0,0.0,0.0,0.0,0.0,0.0,0.0,0.0,0.0,0.0,0.0,0.0,0.0,0.0,0.0,0.0,0.0,0.0,0.0,0.0,0.0,0.9804,0.9482,0.9091,0.8704,0.8678,0.8455,0.7959,0.7461,0.0,0.0,0.0,0.0,0.0,0.0,0.0,0.0,0.0,0.0,0.0,0.0,0.0,0.0,0.0,0.0,0.0,0.0,0.0,0.0,0.0,0.0,0.0,0.0,0.0,0.0,0.0,0.8844,0.0,0.0,0.0,0.0,0.0,0.0,0.0,0.0,0.0,0.0,0.0,0.0,0.0,0.0,1.2117,1.2082,1.2388,1.2596,0.0,0.0,1.3664,1.3481,1.3467,1.3062,0.0,0.0,0.0,0.0,0.0,0.0,0.0,0.0,0.0,0.0,0.0,0.0,0.0,0.0,0.0,0.0,0.0,0.0,0.0,0.0,0.0,0.0,0.0,0.0,0.0,0.0,0.0,0.0,0.0,0.0,0.0,0.0,0.0,0.0,0.0,0.0,0.0,0.0,0.0,0.0,0.0,0.0,0.0,0.0,0.0,0.0,0.0,0.0,0.0,0.0,0.0,0.0,0.0,0.0,0.8269,1.1069,0.9066,0.8553,0.9699,0.8828,0.8175,0.7809,0.7415,0.7672,0.0,0.0,0.0,0.0,0.0,0.0,0.0,0.0,0.0,0.0,0.0,0.0,0.0,0.0,0.0,0.0,0.0,0.0,0.0,0.0,0.0,0.0,0.0,0.0,0.0,0.0,0.0,0.0,0.0,0.0,0.0,0.0,0.0,0.0,0.0,0.0,0.0,0.0,0.0,0.0,0.0,1.0249,1.0104,1.0006,1.0377,0.0,1.2264,1.2768,1.2997,1.3695,1.3205,1.0188,0.0,0.0,0.0,0.0,0.0,0.0,0.0,0.0,0.0,0.0,0.0,0.0,0.0,0.0,0.0,0.0,0.0,0.0,0.0,0.0,0.0,0.0,0.0,0.0,0.0,0.0,0.0,0.0,0.0,0.0,0.0,0.0,0.0,0.0,0.0,0.0,0.0,0.0,0.0,0.0,0.0,0.0,0.0,0.0,0.0,0.0,0.0,0.0,0.0,0.0,0.0,0.0,0.0,0.8851,1.0904,0.9152,0.8602,0.9335,0.8574,0.7951,0.7621,0.7263,0.7312,0.0,0.0,0.0,0.0,0.0,0.0,0.0,0.0,0.0,0.0,0.0,0.0,0.0,0.0,0.0,0.0,0.0,0.0,0.0,0.0,0.0,0.0,0.0,0.0,0.0,0.0,0.0,0.0,0.8086,0.7836,0.7783,0.0,0.0,0.0,0.0,0.0,0.0,0.0,0.0,0.0,0.0,1.0409,1.0722,1.0872,0.0,0.0,1.2124,1.2435,1.2334,1.2324,1.1764,1.0181,0.9887,0.0,0.0,0.0,0.0,0.0,0.0,0.0,0.0,0.0,0.0,0.0,0.0,0.0,0.0,0.0,0.0,0.0,0.0,0.0,0.0,0.0,0.0,0.0,0.0,0.0,0.0,0.0,0.0,0.0,0.0,0.0,0.0,0.0,0.0,0.0,0.0,0.0,0.0,0.0,0.0,0.0,0.0,0.0,0.0,0.0,0.0,0.0,0.0,0.0,0.0,0.0,0.0,0.9253,1.0543,0.9232,0.8633,0.8772,0.8238,0.7797,0.7507,0.7206,0.7301,0.0,0.0,0.0,0.0,0.0,0.0,0.0,0.0,0.0,0.0,0.0,0.0,0.0,0.0,0.0,0.0,0.0,0.0,0.0,0.0,0.0,0.0,0.0,0.0,0.0,0.0,0.0,0.0,0.7414,0.7096,0.7178,0.0,0.0,0.0,0.0,0.0,0.0,0.0,0.0,0.0,0.0,1.0181,1.0677,1.0709,1.0814,1.1191,1.1418,1.1514,1.1287,1.099,1.0426,0.9313,0.0,0.0,0.0,0.0,0.0,0.0,0.0,0.0,0.0,0.0,0.0,0.0,0.0,0.0,0.0,0.0,0.0,0.0,0.0,0.0,0.0,0.0,0.0,0.0,0.0,0.0,0.0,1.0093,0.0,0.0,0.9806,0.0,0.0,0.0,0.0,0.0,0.0,0.0,0.0,0.0,0.0,0.0,0.0,0.0,0.0,0.0,0.0,0.0,0.0,0.0,0.0,0.0,0.0,0.9327,1.0179,0.9192,0.8464,0.8065,0.7866,0.7695,0.7507,0.7291,0.7806,0.9052,0.0,0.0,0.0,0.0,0.0,0.0,0.0,0.0,0.0,0.0,0.0,0.0,0.0,0.0,0.0,0.0,0.0,0.0,0.0,0.0,0.0,0.0,0.0,0.0,0.0,0.0,0.6979,0.6678,0.6509,0.0,0.0,0.0,0.0,0.0,0.0,0.0,0.0,0.0,0.8973,0.9055,0.9115,0.9395,0.8833,0.8885,1.0043,0.9903,0.9706,0.983,0.9927,0.9273,0.0,0.0,0.0,0.0,0.0,0.0,0.0,0.0,0.0,0.0,0.0,0.0,0.0,0.0,0.0,0.0,0.0,0.0,0.0,0.0,0.0,0.0,0.0,0.0,0.0,0.0,0.0,0.9786,1.0281,0.0,0.0,0.0,0.0,0.0,0.0,0.0,0.0,0.0,0.0,0.0,0.8947,0.9164,0.0,0.0,0.0,0.0,0.0,0.0,0.0,0.0,0.0,0.0,0.0,0.0,0.9668,1.0655,0.8885,0.8177,0.8702,0.8108,0.7714,0.7507,0.7291,0.7648,0.8622,0.0,0.0,0.0,0.0,0.0,0.0,0.0,0.0,0.0,0.0,0.0,0.0,0.0,0.0,0.0,0.0,0.0,0.0,0.0,0.0,0.0,0.0,0.0,0.0,0.0,0.7038,0.0,0.0,0.0,0.0,0.0,0.0,0.0,0.0,0.0,0.0,0.0,0.7167,0.7891,0.8103,0.825,0.8456,0.8369,0.8468,0.0,0.0,0.0,0.0,0.0,0.0,0.0,0.0,0.0,0.0,0.0,0.0,0.0,0.0,0.8467,0.8416,0.7741,0.7201,0.7354,0.0,0.0,0.0,0.0,0.0,0.0,0.0,0.0,0.0,0.0,0.0,0.0,0.0,0.0,0.9197,0.0,0.9128,0.0,0.0,0.0,0.0,0.0,0.0,0.0,0.0,0.8255,0.8304,0.8484,0.8718,0.8896,0.0,0.8847,0.8255,0.0,0.0,0.0,0.0,0.0,0.0,0.0,0.0,0.9399,0.9959,0.8578,0.7978,0.8346,0.7847,0.747,0.7296,0.7526,0.7881,0.8486,0.8651,0.9246,0.0,0.0,0.0,0.0,0.0,0.0,0.0,0.0,0.0,0.0,0.0,0.0,0.0,0.0,0.0,0.0,0.0,0.0,0.0,0.0,0.0,0.0,0.0,0.643,0.0,0.0,0.0,0.0,0.0,0.0,0.0,0.0,0.0,0.6735,0.6811,0.6988,0.7461,0.7733,0.7918,0.8074,0.0,0.0,0.0,0.0,0.0,0.0,0.0,0.7567,0.7553,0.757,0.7604,0.7604,0.7929,0.811,0.7909,0.0,0.0,0.8223,0.7591,0.708,0.7134,0.71,0.7318,0.8101,0.8276,0.8452,0.0,0.0,0.0,0.0,0.0,0.0,0.0,0.0,0.7861,0.822,0.0,0.8448,0.0,0.0,0.0,0.0,0.7043,0.6583,0.0,0.0,0.7237,0.6993,0.6989,0.7182,0.7208,0.7134,0.7178,0.7097,0.6976,0.7493,0.0,0.0,0.0,0.0,0.0,0.0,0.8551,0.8169,0.8208,0.7895,0.7165,0.7126,0.7044,0.6937,0.7836,0.8418,0.8656,0.9118,0.9548,0.9836,0.932,0.0,0.0,0.0,0.0,0.0,0.0,0.0,0.0,0.0,0.0,0.0,0.0,0.0,0.0,0.0,0.0,0.0,0.0,0.0,0.0,0.5907,0.0,0.0,0.0,0.0,0.0,0.0,0.0,0.0,0.0,0.0,0.6687,0.7087,0.7489,0.7739,0.0,0.0,0.0,0.0,0.8049,0.8236,0.8275,0.8275,0.825,0.8351,0.8265,0.7853,0.0,0.0,0.8076,0.8265,0.8294,0.7743,0.7782,0.7936,0.8225,0.8,0.7715,0.7601,0.765,0.7746,0.7689,0.7898,0.8067,0.8336,0.0,0.0,0.0,0.0,0.841,0.8663,0.8894,0.8461,0.8615,0.9145,0.8436,0.0,0.0,0.0,0.0,0.0,0.0,0.6908,0.7524,0.7471,0.7412,0.7391,0.7641,0.7709,0.7594,0.7516,0.7394,0.726,0.7281,0.7138,0.6853,0.0,0.0,0.0,0.0,0.8284,0.8217,0.7805,0.7473,0.7256,0.7249,0.7167,0.7063,0.7351,0.7557,0.7642,0.7926,0.8363,0.9017,0.9027,0.0,0.0,0.0,0.0,0.0,0.0,0.0,0.0,0.0,0.0,0.0,0.0,0.0,0.0,0.0,0.0,0.0,0.0,0.0,0.6111,0.6003,0.5958,0.0,0.0,0.0,0.0,0.0,0.0,0.0,0.0,0.0,0.6878,0.6934,0.7084,0.0,0.0,0.7466,0.7629,0.7616,0.7616,0.778,0.7799,0.0,0.7805,0.7722,0.7646,0.7653,0.7829,0.8031,0.8135,0.8217,0.8279,0.8146,0.8196,0.8248,0.8308,0.7946,0.7646,0.7651,0.77,0.7807,0.7977,0.8104,0.8152,0.7977,0.8121,0.8111,0.8041,0.7998,0.8198,0.8355,0.8409,0.8176,0.8316,0.867,0.7979,0.7563,0.7313,0.7009,0.0,0.0,0.0,0.697,0.7627,0.7674,0.778,0.7957,0.8133,0.8115,0.7991,0.7848,0.7699,0.7543,0.7333,0.7161,0.7042,0.0,0.0,0.7533,0.7597,0.7664,0.7714,0.7405,0.719,0.7147,0.7046,0.6992,0.6978,0.6981,0.7046,0.7207,0.7315,0.7642,0.8189,0.8405,0.869,0.0,0.0,0.0,0.0,0.0,0.0,0.0,0.0,0.0,0.0,0.0,0.6771,0.6773,0.0,0.0,0.0,0.6194,0.6207,0.6245,0.6168,0.0,0.0,0.0,0.0,0.0,0.0,0.0,0.617,0.5919,0.5776,0.5845,0.5571,0.5892,0.7279,0.7404,0.7398,0.7557,0.0,0.7519,0.7653,0.7671,0.7689,0.7737,0.7656,0.7624,0.7864,0.795,0.8048,0.8213,0.8221,0.8241,0.8241,0.8247,0.8225,0.8207,0.7904,0.7712,0.7929,0.8021,0.814,0.8326,0.8422,0.8506,0.7464,0.7482,0.7607,0.7656,0.7584,0.7313,0.7222,0.7256,0.7384,0.758,0.7766,0.7309,0.7125,0.7118,0.6459,0.0,0.6551,0.6579,0.7015,0.7764,0.7764,0.801,0.8426,0.8426,0.8307,0.8108,0.795,0.7779,0.7627,0.7416,0.7345,0.7423,0.7114,0.6891,0.6749,0.6871,0.6924,0.6924,0.7038,0.7045,0.6924,0.6661,0.6612,0.6801,0.6704,0.6812,0.7146,0.7184,0.7281,0.7474,0.7663,0.7669,0.7444,0.0,0.0,0.0,0.0,0.0,0.0,0.0,0.0,0.0,0.0,0.0,0.0,0.0,0.0,0.6027,0.6175,0.0,0.6451,0.6373,0.0,0.0,0.0,0.6172,0.617,0.6159,0.612,0.5964,0.0,0.0,0.4007,0.3508,0.4226,0.6916,0.7276,0.7296,0.7429,0.723,0.7307,0.7267,0.7485,0.7592,0.736,0.7509,0.7727,0.8051,0.8209,0.8162,0.8187,0.8193,0.8127,0.7985,0.795,0.7966,0.7903,0.7873,0.7972,0.8248,0.8426,0.8534,0.848,0.8606,0.8642,0.8124,0.8008,0.8031,0.7924,0.7773,0.7946,0.8126,0.8297,0.8,0.7839,0.7781,0.7352,0.7044,0.6814,0.6732,0.6834,0.7051,0.7131,0.7353,0.7627,0.7633,0.7715,0.7802,0.7802,0.731,0.6431,0.6558,0.6558,0.6437,0.6579,0.6991,0.7658,0.7614,0.7391,0.7004,0.7053,0.7045,0.7066,0.7238,0.7244,0.7066,0.6891,0.6838,0.6866,0.6874,0.6903,0.6907,0.7039,0.7157,0.7197,0.7405,0.7509,0.7546,0.7774,0.0,0.0,0.0,0.0,0.0,0.0,0.0,0.0,0.0,0.628,0.6276,0.0,0.6082,0.0,0.6125,0.6118,0.6256,0.6257,0.0,0.0,0.6516,0.6139,0.526,0.5158,0.5008,0.4632,0.3902,0.3212,0.2634,0.3027,0.3622,0.4325,0.4325,0.432,0.4557,0.4491,0.4439,0.4681,0.529,0.5467,0.5009,0.5552,0.6407,0.7293,0.7449,0.7483,0.7522,0.7539,0.7549,0.7608,0.7606,0.7667,0.7714,0.7741,0.7823,0.7991,0.8055,0.8071,0.8071,0.8027,0.7999,0.6221,0.6162,0.6265,0.6558,0.698,0.7816,0.8253,0.8362,0.8096,0.7908,0.7765,0.7376,0.708,0.6931,0.6877,0.6997,0.7188,0.7265,0.7445,0.7677,0.7677,0.774,0.7768,0.725,0.6621,0.5869,0.5483,0.5257,0.5137,0.527,0.5594,0.6102,0.6102,0.5983,0.5772,0.6837,0.7418,0.7418,0.7416,0.7299,0.7098,0.6957,0.6889,0.6904,0.6455,0.6448,0.6885,0.6593,0.6668,0.7149,0.7379,0.7471,0.7432,0.7563,0.7437,0.0,0.0,0.0,0.0,0.0,0.0,0.0,0.0,0.0,0.0,0.0,0.6326,0.6309,0.627,0.6287,0.6366,0.5958,0.5731,0.5852,0.5412,0.4818,0.4165,0.4075,0.3985,0.3718,0.2919,0.2066,0.1309,0.1587,0.1889,0.1889,0.1821,0.2227,0.3362,0.3523,0.3515,0.3634,0.4352,0.4467,0.3377,0.3997,0.4859,0.5433,0.5588,0.5609,0.566,0.5669,0.584,0.645,0.6662,0.6925,0.7501,0.7687,0.772,0.7747,0.778,0.7812,0.7886,0.7785,0.7714,0.364,0.364,0.3885,0.4567,0.5627,0.6896,0.7665,0.8044,0.7971,0.7865,0.7696,0.7342,0.7216,0.7184,0.6956,0.6977,0.7216,0.7216,0.738,0.7702,0.7566,0.7543,0.7626,0.6478,0.5785,0.5416,0.444,0.389,0.374,0.3777,0.3864,0.3989,0.3989,0.3989,0.4089,0.6219,0.7312,0.7342,0.7133,0.6918,0.6774,0.6639,0.6569,0.6541,0.5654,0.5623,0.6556,0.5841,0.5868,0.6833,0.7056,0.704,0.68,0.7039,0.6705,0.0,0.6408,0.0,0.0,0.0,0.0,0.0,0.0,0.0,0.0,0.6635,0.6366,0.6086,0.6105,0.6138,0.6149,0.5294,0.4744,0.4732,0.3838,0.3148,0.3022,0.2997,0.2947,0.2821,0.1965,0.1009,0.0202,0.0,0.0,0.0,0.0,0.0875,0.2583,0.2971,0.2966,0.3149,0.3714,0.3365,0.2382,0.2632,0.322,0.3497,0.3776,0.3608,0.3751,0.3723,0.3992,0.4985,0.5336,0.5785,0.6926,0.7202,0.7366,0.7296,0.7471,0.7674,0.7804,0.7736,0.7649,0.384,0.3746,0.3809,0.3919,0.4053,0.4334,0.5887,0.8207,0.7818,0.7531,0.7315,0.7232,0.7194,0.7194,0.7144,0.7139,0.7194,0.7199,0.7238,0.726,0.6315,0.588,0.5815,0.4669,0.3575,0.2644,0.2572,0.2501,0.2404,0.2589,0.3143,0.3989,0.3989,0.3989,0.4014,0.0,0.0,0.0,0.4923,0.4946,0.4905,0.4835,0.4804,0.4781,0.4594,0.0,0.4634,0.4475,0.4479,0.4694,0.4734,0.0,0.0,0.0,0.0,0.0,0.0,0.0,0.0,0.0,0.0,0.0,0.4359,0.5039,0.6494,0.5761,0.5088,0.4917,0.413,0.3613,0.3671,0.3506,0.3423,0.3498,0.3316,0.2871,0.2041,0.189,0.1588,0.0706,0.0,0.0,0.0,0.0,0.0,0.0,0.0,0.0,0.0,0.0,0.0,0.0,0.0,0.0,0.0505,0.0,0.1567,0.2966,0.3608,0.3525,0.3469,0.3497,0.358,0.3964,0.3973,0.4092,0.4523,0.5261,0.5929,0.6048,0.6837,0.7533,0.7584,0.7538,0.7516,0.1949,0.1926,0.1929,0.2232,0.0,0.2729,0.3953,0.598,0.6364,0.6765,0.721,0.721,0.721,0.721,0.721,0.721,0.7154,0.6599,0.632,0.6237,0.5091,0.4501,0.4477,0.3273,0.2412,0.1799,0.1341,0.1055,0.1036,0.1145,0.1486,0.2037,0.2012,0.2012,0.2037,0.2138,0.2815,0.3985,0.4068,0.4076,0.4013,0.3969,0.3957,0.394,0.3468,0.0,0.0,0.0,0.0,0.0,0.0,0.0,0.0,0.3823,0.0,0.2988,0.3473,0.3564,0.3079,0.3372,0.3629,0.3691,0.357,0.396,0.5058,0.4449,0.3995,0.3909,0.3357,0.3071,0.3073,0.2632,0.2344,0.2389,0.194,0.1362,0.0933,0.0807,0.0605,0.0,0.0,0.0,0.0,0.0,0.0,0.0,0.0,0.0,0.0,0.0,0.0,0.0,0.0,0.0,0.0,0.0,0.0,0.1569,0.1819,0.1819,0.1819,0.1819,0.1987,0.252,0.2787,0.2985,0.3662,0.4157,0.4453,0.4601,0.5483,0.6244,0.6293,0.6838,0.7397,-0.0031,0.0,0.0,0.0574,0.1478,0.1491,0.219,0.3368,0.0,0.0,0.0,0.6568,0.655,0.6565,0.6558,0.6581,0.6479,0.5545,0.5091,0.5007,0.3832,0.3273,0.3217,0.2043,0.1473,0.1452,0.0459,0.0,0.0,0.0,0.0,0.0,0.0,0.0,0.0,0.0228,0.1258,0.304,0.3202,0.3217,0.3122,0.3108,0.3125,0.3097,0.2277,0.2249,0.3034,0.2296,0.2245,0.3012,0.3086,0.3067,0.3055,0.3152,0.2794,0.1947,0.2743,0.2889,0.2039,0.259,0.2967,0.297,0.2768,0.2871,0.3472,0.3173,0.2922,0.2922,0.2746,0.262,0.262,0.1865,0.1312,0.1286,0.053,0.0,0.0,0.0,0.0,0.0,0.0,0.0,0.0,0.0,0.0,0.0,0.0,0.0,0.0,0.0,0.0,0.0,0.0,0.0,0.0,0.0,0.0,0.0,0.0,0.0,0.0,-0.0028,0.0336,0.1316,0.153,0.1938,0.2827,0.3025,0.3027,0.3027,0.3993,0.4796,0.4806,0.5708,0.6672,-0.0282,0.0,0.0,0.0091,0.0246,0.0238,0.0938,0.2136,0.331,0.3942,0.4113,0.4113,0.4118,0.4108,0.4108,0.4086,0.4081,0.3942,0.386,0.3776,0.2602,0.2043,0.1987,0.0812,0.0252,0.0223,0.0082,0.0,0.0,0.0,0.0,0.0,0.0,0.0,0.0,0.0026,0.0207,0.054,0.0989,0.1205,0.1201,0.1183,0.1195,0.1192,0.1005,0.0949,0.1091,0.0973,0.095,0.1096,0.1119,0.1031,0.0854,0.0906,0.0717,0.0351,0.0,0.0479,0.0,0.0,0.0504,0.0504,0.048,0.1236,0.3047,0.2393,0.1839,0.1789,0.1059,0.0454,0.0454,0.0,0.0,0.0,0.0,0.0,0.0,0.0,0.0,0.0,0.0,0.0,0.0,0.0,0.0,0.0,0.0,0.0,0.0,0.0,0.0,0.0,0.0,0.0,0.0,0.0,0.0,0.0,0.0,0.0,0.0,-0.0224,-0.0168,0.0196,0.0169,0.0253,0.0619,0.1377,0.1771,0.1941,0.2841,0.3647,0.3636,0.4011,0.483,-0.2793,-0.2663,-0.2641,-0.2661,-0.2612,-0.1924,-0.0801,0.0559,0.1149,0.2227,0.3548,0.3603,0.359,0.3606,0.361,0.3586,0.3582,0.2932,0.263,0.2491,0.0699,-0.0168,-0.0252,-0.1372,-0.195,-0.1905,-0.1261,-0.0975,-0.0932,-0.0343,0.0,0.0,0.0,0.0,0.0,0.0,0.0,0.0,0.0256,0.0379,0.0353,0.0376,0.0347,0.0368,0.0341,0.0339,0.0315,0.0339,0.0341,0.0344,0.032,0.0272,0.0199,0.0199,0.0125,0.0,0.0,0.0,0.0,0.0,0.0,0.0,0.0,0.0378,0.1386,0.1009,0.0732,0.0732,0.0278,0.0,0.0,0.0,0.0,0.0,0.0,0.0,0.0,0.0,0.0,0.0,0.0,0.0,0.0,0.0,0.0,0.0,0.0,0.0,0.0,0.0,0.0,0.0,0.0,0.0,0.0,0.0,0.0,-0.0188,-0.0081,-0.0163,-0.0358,-0.0498,-0.0416,-0.0476,-0.0588,-0.0617,-0.0476,-0.0224,0.0084,0.0224,0.1064,0.1762,0.1902,0.2573,0.3999,-0.495,-0.492,-0.492,-0.492,-0.476,-0.3464,-0.2134,-0.0954,-0.0543,0.0662,0.2228,0.2635,0.2783,0.2787,0.2707,0.2659,0.2485,0.1363,0.0759,0.0562,-0.1345,-0.2351,-0.2491,-0.3327,-0.3722,-0.3704,-0.2852,-0.2285,-0.1929,-0.1071,-0.0455,0.0,-0.0215,-0.0215,-0.0214,-0.0134,-0.008,-0.008,-0.0026,0.0,0.0,0.0,0.0,0.0,0.0,0.0,0.0,0.0,0.0,0.0,0.0,0.0,0.0,0.0,0.0,0.0,0.0,0.0,0.0,0.0,0.0,0.0,-0.005,-0.0076,-0.0101,-0.0151,-0.0101,-0.0025,-0.0025,0.0,0.0,0.0,0.0,0.0,-0.0177,0.0,0.0,-0.0177,-0.0151,-0.0101,-0.0101,0.0,0.0,0.0,0.0,0.0,0.0,0.0,0.0,-0.0052,-0.0103,-0.0078,-0.0052,0.0,-0.0052,0.0,-0.0154,-0.0422,-0.0292,-0.0374,-0.0649,-0.068,-0.0656,-0.0828,-0.0913,-0.0913,-0.0914,-0.0969,-0.1024,-0.0884,-0.0249,0.0167,0.028,0.1454,0.3019,-0.5226,-0.492,-0.5042,-0.492,-0.4794,-0.3316,-0.2576,-0.2175,-0.0769,-0.0646,-0.1254,-0.0182,0.0303,0.0275,0.003,-0.0089,-0.0239,-0.1625,-0.2229,-0.234,-0.3319,-0.3968,-0.4198,-0.4111,-0.4132,-0.4435,-0.4293,-0.368,-0.2703,-0.2424,-0.1867,-0.0939,-0.0825,-0.0803,-0.0765,-0.0491,-0.0352,-0.0373,-0.0131,0.0,0.0,0.0,0.0,0.0,0.0,0.0,0.0,0.0,0.0,0.0,0.0,0.0,0.0,0.0,0.0,0.0,0.0,0.0,0.0,0.0,0.0,0.0,-0.0227,-0.0379,-0.0379,-0.0581,-0.0505,-0.0177,-0.0252,-0.0353,-0.0379,-0.0555,-0.0656,-0.0631,-0.0682,-0.0732,-0.0682,-0.0732,-0.0631,-0.0404,-0.0353,-0.0278,0.0,0.0,0.0,0.0,0.0,0.0,0.0,-0.0203,-0.0356,-0.033,-0.0178,-0.0153,-0.0279,-0.0152,-0.028,-0.0623,-0.0547,-0.0577,-0.0797,-0.1069,-0.1151,-0.0999,-0.1103,-0.1159,-0.0969,-0.0831,-0.0913,-0.1054,-0.0898,-0.077,-0.0641,0.0223,0.1588,-0.7922,-0.7795,-0.7795,-0.7368,-0.6599,-0.5957,-0.51,-0.4152,-0.3507,-0.3415,-0.3628,-0.3117,-0.2739,-0.2457,-0.1999,-0.2221,-0.2956,-0.2809,-0.3167,-0.4021,-0.4948,-0.5499,-0.5827,-0.6346,-0.6662,-0.6741,-0.6091,-0.5056,-0.3818,-0.2396,-0.1383,-0.0936,-0.0892,-0.0894,-0.0888,-0.075,-0.0692,-0.0687,-0.0567,-0.0535,-0.048,-0.018,0.0,0.0,0.0,0.0,0.0,0.0,0.0,0.0,0.0,0.0,0.0,0.0,0.0,0.0,0.0,0.0,0.0,-0.0126,-0.0227,-0.0227,-0.048,-0.0631,-0.0631,-0.0732,-0.0682,-0.053,-0.0581,-0.0631,-0.0656,-0.0732,-0.0783,-0.0783,-0.0783,-0.0808,-0.0783,-0.0808,-0.0757,-0.0656,-0.0631,-0.0581,-0.048,-0.0353,-0.0252,-0.0227,-0.0227,-0.0227,-0.0227,-0.0328,-0.0454,-0.0606,-0.0631,-0.0631,-0.0631,-0.0454,-0.0558,-0.0841,-0.0817,-0.0771,-0.1202,-0.1261,-0.129,-0.1302,-0.1409,-0.1462,-0.1415,-0.1332,-0.1332,-0.1307,-0.1335,-0.1377,-0.1386,-0.0871,-0.0109,-0.9852,-0.9846,-0.9812,-0.9268,-0.841,-0.7947,-0.7093,-0.5957,-0.5471,-0.5318,-0.5468,-0.5506,-0.5551,-0.5335,-0.4092,-0.4001,-0.4732,-0.43,-0.4588,-0.5697,-0.6593,-0.7168,-0.7486,-0.8094,-0.8555,-0.8559,-0.776,-0.667,-0.5264,-0.2878,-0.1625,-0.1597,-0.1318,-0.1149,-0.1149,-0.1065,-0.1007,-0.1001,-0.0934,-0.0875,-0.0843,-0.0472,-0.026,-0.0239,-0.0158,-0.0104,-0.0104,-0.0026,0.0,0.0,0.0,0.0,0.0,0.0,0.0,0.0,-0.0076,-0.0102,-0.0126,-0.0353,-0.0505,-0.053,-0.0757,-0.0909,-0.0909,-0.0985,-0.1035,-0.1035,-0.101,-0.101,-0.0909,-0.0985,-0.101,-0.101,-0.1035,-0.101,-0.1035,-0.1035,-0.101,-0.0934,-0.0909,-0.0858,-0.0783,-0.0631,-0.053,-0.0505,-0.0505,-0.048,-0.0454,-0.053,-0.0682,-0.0783,-0.0959,-0.1036,-0.0934,-0.0783,-0.0884,-0.1086,-0.1087,-0.1095,-0.1575,-0.1475,-0.1426,-0.1493,-0.163,-0.1652,-0.1566,-0.1596,-0.166,-0.169,-0.1693,-0.1669,-0.1631,-0.1494,-0.1414,-0.9977,-0.9981,-0.9852,-0.9754,-0.9603,-0.816,-0.7454,-0.724,-0.5774,-0.5682,-0.6804,-0.6964,-0.7693,-0.854,-0.6345,-0.5361,-0.5624,-0.6637,-0.7223,-0.7511,-0.8306,-0.8926,-0.9229,-0.9026,-0.9033,-0.9298,-0.9126,-0.84,-0.7072,-0.4711,-0.3469,-0.3415,-0.2384,-0.1795,-0.1766,-0.1458,-0.128,-0.1265,-0.1069,-0.093,-0.0929,-0.0887,-0.0852,-0.0829,-0.056,-0.0397,-0.0366,-0.0159,0.0,0.0,0.0,0.0,0.0,0.0,0.0,0.0,-0.0231,-0.0386,-0.0405,-0.0633,-0.0784,-0.0809,-0.1037,-0.1187,-0.1187,-0.1364,-0.1541,-0.1592,-0.1541,-0.1415,-0.1439,-0.1489,-0.1491,-0.1491,-0.1516,-0.1516,-0.1516,-0.1465,-0.144,-0.1263,-0.1187,-0.1112,-0.0858,-0.0783,-0.0783,-0.0783,-0.0783,-0.0732,-0.0606,-0.0858,-0.0985,-0.0959,-0.1035,-0.1187,-0.1162,-0.1061,-0.1187,-0.1364,-0.1367,-0.1269,-0.1483,-0.1645,-0.165,-0.1648,-0.1643,-0.1635,-0.1625,-0.1628,-0.1643,-0.1678,-0.1688,-0.1696,-0.168,-0.1696,-0.1646,-1.0756,-0.9866,-0.9812,-0.9792,-0.9731,-0.9171,-0.8927,-0.8867,-0.8313,-0.8282,-0.8708,-0.8817,-0.9101,-0.9499,-0.8636,-0.8157,-0.8072,-0.7805,-0.81,-0.8936,-0.9173,-0.9388,-0.9616,-0.943,-0.9466,-0.9609,-0.9571,-0.8828,-0.7477,-0.5779,-0.4961,-0.4694,-0.3669,-0.303,-0.2807,-0.2074,-0.1621,-0.1614,-0.15,-0.1472,-0.1472,-0.1464,-0.1489,-0.1459,-0.0981,-0.0729,-0.0725,-0.0621,-0.059,-0.0576,-0.0579,-0.0581,-0.0554,-0.0364,-0.0256,-0.0279,-0.036,-0.0464,-0.066,-0.0955,-0.1086,-0.1089,-0.1354,-0.1509,-0.1469,-0.1566,-0.1869,-0.2347,-0.1945,-0.2044,-0.2972,-0.2421,-0.1592,-0.1592,-0.1592,-0.1592,-0.1592,-0.1592,-0.1541,-0.1465,-0.144,-0.1415,-0.1289,-0.1162,-0.1061,-0.1061,-0.1061,-0.101,-0.0959,-0.1086,-0.1213,-0.1263,-0.1238,-0.1263,-0.1465,-0.1289,-0.1263,-0.1465,-0.1517,-0.1493,-0.1602,-0.1629,-0.1606,-0.1639,-0.1625,-0.1593,-0.1593,-0.1594,-0.1628,-0.1629,-0.1637,-0.1644,-0.1645,-0.166,-0.1667,-1.1256,-0.9927,-0.9792,-0.9792,-0.9792,-0.9792,-0.9792,-0.9792,-0.9792,-0.9792,-0.9792,-0.9792,-0.9792,-0.9792,-0.9792,-0.9744,-0.9583,-0.8705,-0.885,-0.9734,-0.9612,-0.9632,-0.9774,-0.969,-0.9697,-0.9758,-0.965,-0.9101,-0.8219,-0.6969,-0.6357,-0.6178,-0.5023,-0.4386,-0.4126,-0.3413,-0.2874,-0.2496,-0.2381,-0.2241,-0.188,-0.1794,-0.1794,-0.1763,-0.1387,-0.1127,-0.1039,-0.0962,-0.0873,-0.0884,-0.0884,-0.0885,-0.0854,-0.0689,-0.055,-0.0568,-0.065,-0.0782,-0.0955,-0.1236,-0.1423,-0.1366,-0.1584,-0.177,-0.211,-0.2209,-0.2748,-0.3386,-0.3335,-0.354,-0.4252,-0.3642,-0.276,-0.2555,-0.2019,-0.1794,-0.2044,-0.1792,-0.1617,-0.1566,-0.1566,-0.1566,-0.1566,-0.144,-0.1339,-0.1339,-0.1314,-0.1289,-0.1213,-0.1289,-0.1339,-0.144,-0.139,-0.1415,-0.1516,-0.144,-0.1364,-0.1541,-0.1592,-0.1618,-0.1622,-0.1596,-0.1596,-0.16,-0.16,-0.1594,-0.1592,-0.1592,-0.1592,-0.1592,-0.1596,-0.1602,-0.16,-0.1596,-0.164,-1.1503,-1.014,-0.9852,-0.9997,-1.0004,-1.0004,-0.9852,-0.9822,-0.9792,-0.9792,-0.9792,-0.9792,-0.9792,-0.9792,-0.9792,-0.9785,-0.9741,-0.9593,-0.963,-0.9785,-0.9765,-0.9758,-0.9785,-0.9778,-0.9771,-0.9785,-0.968,-0.9589,-0.9361,-0.8278,-0.7652,-0.7397,-0.6394,-0.5731,-0.5606,-0.5337,-0.474,-0.3734,-0.3413,-0.2912,-0.1962,-0.1794,-0.1794,-0.1794,-0.1737,-0.1585,-0.1315,-0.1083,-0.0966,-0.0969,-0.095,-0.0922,-0.094,-0.0918,-0.0894,-0.0906,-0.1119,-0.1279,-0.1329,-0.1519,-0.1686,-0.1696,-0.1729,-0.2312,-0.3067,-0.3413,-0.3994,-0.4962,-0.5098,-0.5242,-0.5365,-0.515,-0.4832,-0.464,-0.3066,-0.2454,-0.2828,-0.2271,-0.1642,-0.1742,-0.1742,-0.1592,-0.1592,-0.1566,-0.1541,-0.1541,-0.1541,-0.1465,-0.1339,-0.1415,-0.144,-0.1364,-0.1415,-0.1541,-0.1566,-0.1592,-0.1566,-0.1592,-0.1592,-0.1618,-0.1628,-0.1629,-0.1601,-0.1629,-0.1622,-0.1593,-0.1592,-0.1592,-0.1592,-0.1592,-0.1592,-0.1592,-0.1592,-0.1594,-0.1637,-1.4095,-1.2573,-1.2496,-1.1924,-1.1148,-1.1118,-1.0634,-0.9822,-0.9792,-0.9792,-0.9792,-0.9792,-0.9792,-0.9792,-0.9792,-0.9792,-0.9792,-0.9792,-0.9792,-0.9792,-0.9792,-0.9792,-0.9792,-0.9792,-0.9792,-0.9785,-0.9774,-0.9724,-0.965,-0.9273,-0.9065,-0.8752,-0.7751,-0.7081,-0.6798,-0.6009,-0.4945,-0.3785,-0.3608,-0.3024,-0.1934,-0.1794,-0.1794,-0.1794,-0.1794,-0.1734,-0.167,-0.1566,-0.1535,-0.1518,-0.1525,-0.1436,-0.1227,-0.1172,-0.1166,-0.1177,-0.1241,-0.1401,-0.1579,-0.1686,-0.1745,-0.1853,-0.2421,-0.3036,-0.3545,-0.4312,-0.5188,-0.6109,-0.5814,-0.5787,-0.6922,-0.6104,-0.5444,-0.5174,-0.4472,-0.4,-0.4169,-0.3428,-0.2949,-0.2922,-0.2244,-0.1667,-0.1617,-0.1667,-0.177,-0.1669,-0.1669,-0.1618,-0.1517,-0.1522,-0.1592,-0.1491,-0.1592,-0.16,-0.1605,-0.1609,-0.1609,-0.1604,-0.16,-0.1618,-0.1626,-0.163,-0.1629,-0.1601,-0.1621,-0.1618,-0.1592,-0.1592,-0.1592,-0.1593,-0.1594,-0.1593,-0.1592,-0.1628,-0.1671,-1.5398,-1.3904,-1.3754,-1.3246,-1.2466,-1.2436,-1.1985,-1.1322,-1.1231,-1.1231,-1.1201,-1.0725,-1.0513,-1.0391,-1.0035,-0.9792,-0.9792,-0.9792,-0.9792,-0.9792,-0.9792,-0.9792,-0.9792,-0.9792,-0.9792,-0.9792,-0.9792,-0.9792,-0.9792,-0.9785,-0.9744,-0.952,-0.89,-0.8408,-0.814,-0.7359,-0.6175,-0.4575,-0.4247,-0.3469,-0.2158,-0.1794,-0.1794,-0.1794,-0.1794,-0.1794,-0.1794,-0.1794,-0.1794,-0.1794,-0.1794,-0.1701,-0.1491,-0.1482,-0.1472,-0.1497,-0.1498,-0.1581,-0.1715,-0.1772,-0.178,-0.194,-0.2848,-0.3756,-0.4263,-0.5279,-0.6415,-0.7275,-0.712,-0.7195,-0.8113,-0.7544,-0.6684,-0.6652,-0.5694,-0.524,-0.4995,-0.4457,-0.3875,-0.3732,-0.3315,-0.2859,-0.2532,-0.2769,-0.2621,-0.2396,-0.2218,-0.1947,-0.1824,-0.1625,-0.1648,-0.1648,-0.1656,-0.1659,-0.1654,-0.1654,-0.1652,-0.1618,-0.1609,-0.1598,-0.1596,-0.1597,-0.1596,-0.1596,-0.1593,-0.1593,-0.1592,-0.1592,-0.1592,-0.1594,-0.1625,-0.1635,-0.164,-0.1639,-0.1679,-1.5684,-1.4341,-1.4073,-1.4023,-1.3844,-1.3814,-1.3635,-1.3545,-1.3515,-1.3426,-1.3246,-1.232,-1.1738,-1.1428,-1.0594,-1.0114,-0.9798,-0.9883,-0.9856,-0.9812,-0.9825,-0.9846,-0.9829,-0.9792,-0.9792,-0.9792,-0.9792,-0.9792,-0.9792,-0.9792,-0.9792,-0.9741,-0.9667,-0.9606,-0.9204,-0.9316,-0.7806,-0.5553,-0.5306,-0.4136,-0.199,-0.1794,-0.1794,-0.1794,-0.1794,-0.1794,-0.1794,-0.1794,-0.1794,-0.1794,-0.1794,-0.1794,-0.1789,-0.1794,-0.1765,-0.1757,-0.1794,-0.1771,-0.1786,-0.1791,-0.1903,-0.2148,-0.3205,-0.4219,-0.5392,-0.6543,-0.7574,-0.8522,-0.8617,-0.8713,-0.8817,-0.8679,-0.8624,-0.8556,-0.6985,-0.5874,-0.5387,-0.5409,-0.5162,-0.4665,-0.4826,-0.5077,-0.4249,-0.4777,-0.424,-0.3759,-0.3422,-0.3028,-0.229,-0.2085,-0.1858,-0.175,-0.1688,-0.1685,-0.1677,-0.1677,-0.1677,-0.1671,-0.1659,-0.1621,-0.1601,-0.1597,-0.1592,-0.1592,-0.1594,-0.1593,-0.1594,-0.1597,-0.16,-0.1632,-0.1668,-0.1684,-0.1691,-0.1691,-0.17,-1.7827,-1.7261,-1.6967,-1.6308,-1.544,-1.5213,-1.457,-1.3784,-1.3764,-1.3942,-1.3703,-1.3583,-1.2816,-1.1754,-1.1711,-1.1047,-1.0094,-1.0039,-1.0019,-0.9883,-1.0073,-0.9981,-0.9832,-0.9792,-0.9792,-0.9798,-0.9798,-0.9792,-0.9792,-0.9792,-0.9792,-0.9792,-0.9785,-0.965,-0.9451,-0.9417,-0.7978,-0.5777,-0.5389,-0.4222,-0.2214,-0.1794,-0.1794,-0.1794,-0.1794,-0.1794,-0.1794,-0.1794,-0.1794,-0.1794,-0.1794,-0.1794,-0.1794,-0.1814,-0.1812,-0.179,-0.1789,-0.1812,-0.1821,-0.1851,-0.2214,-0.3106,-0.425,-0.5393,-0.6566,-0.7737,-0.8491,-0.8912,-0.8912,-0.8912,-0.8912,-0.8912,-0.8912,-0.883,-0.8052,-0.7576,-0.739,-0.6947,-0.6626,-0.7053,-0.6128,-0.6129,-0.668,-0.6172,-0.5304,-0.4905,-0.4673,-0.4235,-0.3233,-0.2786,-0.2658,-0.1922,-0.17,-0.1701,-0.1701,-0.1701,-0.17,-0.1697,-0.1689,-0.168,-0.1655,-0.1635,-0.16,-0.1592,-0.1625,-0.1626,-0.163,-0.1635,-0.1639,-0.165,-0.1697,-0.1718,-0.172,-0.1695,-0.1733,-1.8744,-1.8603,-1.829,-1.7796,-1.7191,-1.686,-1.6394,-1.5901,-1.5689,-1.5629,-1.557,-1.5166,-1.4217,-1.2856,-1.2411,-1.141,-1.0043,-1.0032,-0.9978,-0.9927,-1.0246,-1.0256,-1.0043,-0.9934,-0.9886,-0.9879,-0.9819,-0.9792,-0.9792,-0.9792,-0.9792,-0.9792,-0.9792,-0.97,-0.9496,-0.9343,-0.8111,-0.5975,-0.5386,-0.4222,-0.2018,-0.1794,-0.1794,-0.1794,-0.1794,-0.1794,-0.1794,-0.1794,-0.1794,-0.1794,-0.1794,-0.1794,-0.1794,-0.1794,-0.1794,-0.1794,-0.1794,-0.199,-0.2466,-0.2576,-0.3136,-0.4278,-0.5449,-0.6316,-0.7121,-0.8186,-0.8912,-0.8912,-0.8912,-0.8912,-0.8912,-0.8912,-0.8912,-0.8871,-0.8831,-0.8716,-0.8594,-0.808,-0.8001,-0.8089,-0.7686,-0.7163,-0.8682,-0.7448,-0.6647,-0.6119,-0.5959,-0.4993,-0.3887,-0.3718,-0.323,-0.2384,-0.1842,-0.185,-0.1771,-0.1744,-0.1741,-0.1737,-0.175,-0.1739,-0.1688,-0.166,-0.1644,-0.1637,-0.1637,-0.1663,-0.1668,-0.1679,-0.1671,-0.1688,-0.1735,-0.1747,-0.175,-0.1723,-0.1764,-1.9034,-1.8975,-1.8652,-1.8718,-1.8804,-1.8545,-1.8349,-1.86,-1.8197,-1.8117,-1.7853,-1.6909,-1.537,-1.422,-1.275,-1.1371,-0.9981,-0.9947,-0.9982,-1.0125,-1.0391,-1.0538,-1.0558,-1.0225,-1.0063,-0.9974,-0.9859,-0.9805,-0.9792,-0.9792,-0.9792,-0.9792,-0.9792,-0.971,-0.9591,-0.9447,-0.8049,-0.6036,-0.5479,-0.4205,-0.2258,-0.1805,-0.1802,-0.1794,-0.1794,-0.1794,-0.1794,-0.1794,-0.1794,-0.1794,-0.1794,-0.1794,-0.1794,-0.1794,-0.1962,-0.2102,-0.2242,-0.2632,-0.3525,-0.3804,-0.4306,-0.5477,-0.6482,-0.721,-0.7543,-0.838,-0.8912,-0.8912,-0.8912,-0.8912,-0.8912,-0.8912,-0.8912,-0.8906,-0.8899,-0.8838,-0.877,-0.8825,-0.8838,-0.8656,-0.8756,-0.8763,-0.8723,-0.8595,-0.827,-0.7344,-0.71,-0.6386,-0.537,-0.4938,-0.3926,-0.2553,-0.2197,-0.2011,-0.19,-0.1789,-0.1785,-0.1779,-0.1789,-0.1774,-0.1725,-0.17,-0.1703,-0.1691,-0.1684,-0.1681,-0.1682,-0.1699,-0.1722,-0.1712,-0.1726,-0.1769,-0.1782,-0.1782,-0.179,-1.9787,-1.9615,-1.9546,-1.939,-1.9208,-1.9107,-1.8962,-1.8821,-1.8729,-1.8674,-1.8397,-1.7204,-1.569,-1.4111,-1.3058,-1.1524,-1.0074,-1.0053,-1.0362,-1.0753,-1.0717,-1.1066,-1.1192,-1.0827,-1.0353,-1.0094,-0.9873,-0.9805,-0.9805,-0.9819,-0.9792,-0.9829,-0.9792,-0.9754,-0.9625,-0.9482,-0.8237,-0.6085,-0.5578,-0.4265,-0.2319,-0.1915,-0.1962,-0.2026,-0.1992,-0.1908,-0.1822,-0.1794,-0.1794,-0.1794,-0.185,-0.1934,-0.1822,-0.1794,-0.2214,-0.2884,-0.3161,-0.3692,-0.4721,-0.5083,-0.55,-0.6594,-0.7043,-0.7515,-0.8463,-0.8657,-0.8912,-0.8912,-0.8912,-0.8912,-0.8912,-0.8912,-0.8912,-0.8912,-0.8906,-0.8871,-0.8844,-0.8892,-0.8879,-0.8865,-0.8872,-0.8892,-0.8817,-0.8831,-0.8653,-0.8439,-0.8109,-0.7735,-0.6966,-0.6089,-0.4724,-0.3164,-0.2828,-0.2576,-0.1906,-0.1794,-0.1794,-0.1794,-0.1812,-0.1804,-0.1755,-0.1735,-0.1739,-0.1718,-0.17,-0.17,-0.1735,-0.1721,-0.1718,-0.173,-0.1745,-0.179,-0.1804,-0.1808,-0.1807,-2.0117,-2.001,-1.9968,-1.9981,-1.9902,-1.9585,-1.943,-1.9349,-1.9056,-1.8931,-1.883,-1.8194,-1.6644,-1.4466,-1.3964,-1.2534,-1.0362,-1.0012,-1.0465,-1.0948,-1.1075,-1.1414,-1.1869,-1.1535,-1.1048,-1.0514,-1.0176,-1.0046,-1.0025,-0.9964,-0.9907,-0.9886,-0.9832,-0.9765,-0.97,-0.9616,-0.8224,-0.6228,-0.5592,-0.4383,-0.23,-0.2469,-0.314,-0.3457,-0.3541,-0.3497,-0.3553,-0.3525,-0.3189,-0.28,-0.2632,-0.2354,-0.188,-0.1822,-0.2409,-0.3329,-0.3608,-0.4526,-0.5639,-0.6255,-0.6705,-0.782,-0.7937,-0.8269,-0.8747,-0.8912,-0.8912,-0.8912,-0.8912,-0.8912,-0.8912,-0.8912,-0.8912,-0.8912,-0.8912,-0.8912,-0.8912,-0.8912,-0.8912,-0.8912,-0.8906,-0.8912,-0.8906,-0.8912,-0.8878,-0.8658,-0.8631,-0.8223,-0.7337,-0.6455,-0.5365,-0.4195,-0.372,-0.3108,-0.2158,-0.1794,-0.1794,-0.1794,-0.1791,-0.1789,-0.1779,-0.1763,-0.1772,-0.1753,-0.1735,-0.1738,-0.1746,-0.1757,-0.174,-0.1759,-0.1776,-0.1789,-0.1794,-0.179,-0.179,-2.0304,-2.026,-2.0305,-2.0468,-2.0588,-2.0074,-1.996,-2.0049,-1.9596,-1.9394,-1.9104,-1.922,-1.6924,-1.5219,-1.438,-1.2724,-1.0866,-1.0129,-1.0573,-1.1376,-1.147,-1.1814,-1.2203,-1.2084,-1.1764,-1.1156,-1.0611,-1.0415,-1.0303,-1.0134,-0.9994,-0.995,-0.9866,-0.9785,-0.9751,-0.9593,-0.8384,-0.6202,-0.5703,-0.4677,-0.2867,-0.3246,-0.4147,-0.5036,-0.5153,-0.5074,-0.5039,-0.5015,-0.4739,-0.3723,-0.3785,-0.3225,-0.2382,-0.1906,-0.2492,-0.372,-0.4027,-0.517,-0.6871,-0.7432,-0.782,-0.8885,-0.8857,-0.8857,-0.8912,-0.8912,-0.8912,-0.8912,-0.8912,-0.8912,-0.8912,-0.8912,-0.8912,-0.8912,-0.8912,-0.8912,-0.8912,-0.8912,-0.8912,-0.8912,-0.8912,-0.8912,-0.8912,-0.8912,-0.8912,-0.8912,-0.8878,-0.8657,-0.7792,-0.7099,-0.6228,-0.5282,-0.4752,-0.3329,-0.2242,-0.1882,-0.1882,-0.1798,-0.1797,-0.1795,-0.1795,-0.1783,-0.1794,-0.1786,-0.1776,-0.1774,-0.1771,-0.1775,-0.1789,-0.1787,-0.1794,-0.1794,-0.1797,-0.1798,-0.1801,-2.0815,-2.0628,-2.0859,-2.0821,-2.0663,-2.0779,-2.0666,-2.052,-2.0316,-2.0157,-1.9647,-1.7625,-1.6433,-1.4843,-1.2556,-1.1325,-1.0893,-1.0625,-1.1041,-1.177,-1.1897,-1.2183,-1.2513,-1.2397,-1.2177,-1.1886,-1.1221,-1.0771,-1.0587,-1.0259,-1.01,-1.0001,-0.9879,-0.9805,-0.9792,-0.9613,-0.8363,-0.6254,-0.58,-0.4928,-0.3875,-0.4005,-0.4817,-0.5857,-0.6037,-0.5814,-0.5574,-0.5491,-0.4962,-0.3899,-0.4704,-0.4415,-0.3493,-0.253,-0.3166,-0.4554,-0.5111,-0.6089,-0.7959,-0.8519,-0.8629,-0.8885,-0.8912,-0.8912,-0.8912,-0.8912,-0.8912,-0.8912,-0.8912,-0.8912,-0.8912,-0.8912,-0.8912,-0.8912,-0.8912,-0.8919,-0.8919,-0.8926,-0.8933,-0.894,-0.8933,-0.8912,-0.8912,-0.8912,-0.8912,-0.8912,-0.8912,-0.8878,-0.8463,-0.8103,-0.7737,-0.676,-0.581,-0.4027,-0.2242,-0.2081,-0.1971,-0.1832,-0.1802,-0.18,-0.1798,-0.1795,-0.1787,-0.1812,-0.1799,-0.1783,-0.1785,-0.1792,-0.1794,-0.1805,-0.1814,-0.1795,-0.1804,-0.1813,-0.1816,-2.1029,-2.0922,-2.1056,-2.1014,-2.0856,-2.0824,-2.0761,-2.0583,-2.0425,-2.0265,-1.9807,-1.878,-1.7171,-1.5629,-1.4645,-1.3144,-1.16,-1.1038,-1.1434,-1.1953,-1.212,-1.2336,-1.275,-1.2609,-1.2568,-1.2332,-1.1718,-1.1174,-1.1005,-1.071,-1.0362,-1.0141,-0.9981,-0.9873,-0.9622,-0.9049,-0.7856,-0.6294,-0.5861,-0.5269,-0.4286,-0.4955,-0.6394,-0.7306,-0.7477,-0.7187,-0.6532,-0.6484,-0.5923,-0.5066,-0.5257,-0.5224,-0.4732,-0.4435,-0.4486,-0.5912,-0.626,-0.6955,-0.8519,-0.8912,-0.8885,-0.8912,-0.8912,-0.8912,-0.8912,-0.8912,-0.8912,-0.8912,-0.8912,-0.8912,-0.8912,-0.8912,-0.8912,-0.8912,-0.8919,-0.896,-0.9028,-0.9049,-0.9049,-0.9035,-0.896,-0.8933,-0.8912,-0.8912,-0.8912,-0.8912,-0.8912,-0.8912,-0.8912,-0.876,-0.8523,-0.736,-0.6228,-0.4892,-0.3191,-0.2711,-0.2137,-0.1877,-0.1817,-0.1814,-0.1808,-0.1808,-0.1813,-0.1787,-0.1798,-0.1808,-0.1803,-0.1811,-0.1804,-0.1801,-0.1787,-0.1802,-0.1789,-0.1798,-0.1835,-2.1109,-2.1109,-2.1109,-2.1109,-2.1046,-2.0824,-2.0742,-2.0634,-2.0456,-2.0297,-2.0202,-1.9985,-1.845,-1.6382,-1.5373,-1.418,-1.1892,-1.1483,-1.174,-1.216,-1.228,-1.249,-1.2701,-1.2766,-1.27,-1.2503,-1.2157,-1.1685,-1.1315,-1.095,-1.0631,-1.032,-1.0089,-0.994,-0.9605,-0.9086,-0.752,-0.666,-0.5927,-0.5253,-0.5147,-0.6682,-0.8456,-0.9456,-0.949,-0.879,-0.7921,-0.7874,-0.7192,-0.6477,-0.6341,-0.6413,-0.6239,-0.6287,-0.6749,-0.7354,-0.7315,-0.7874,-0.8665,-0.9014,-0.9055,-0.8987,-0.8967,-0.8946,-0.8912,-0.8912,-0.8912,-0.8912,-0.8912,-0.8912,-0.8912,-0.894,-0.8988,-0.8973,-0.9,-0.9069,-0.9186,-0.922,-0.9178,-0.913,-0.9014,-0.896,-0.894,-0.8912,-0.8912,-0.8912,-0.8912,-0.8912,-0.8919,-0.9008,-0.8609,-0.7483,-0.6422,-0.5504,-0.4367,-0.3585,-0.2789,-0.1909,-0.1849,-0.1846,-0.1834,-0.1824,-0.1834,-0.1818,-0.1838,-0.1851,-0.1814,-0.1805,-0.1805,-0.1804,-0.1804,-0.1816,-0.1842,-0.1859,-0.1872,-2.1109,-2.1109,-2.1109,-2.1109,-2.1077,-2.1014,-2.1046,-2.1014,-2.0951,-2.0792,-2.0488,-1.9603,-1.834,-1.6303,-1.387,-1.2759,-1.2309,-1.2149,-1.2239,-1.2595,-1.2644,-1.2693,-1.2799,-1.2799,-1.2634,-1.2437,-1.2279,-1.2081,-1.1582,-1.0934,-1.0529,-1.0329,-1.0148,-0.9947,-0.9778,-0.9244,-0.8927,-0.7642,-0.6508,-0.5896,-0.6202,-0.8204,-0.9282,-0.9556,-0.9568,-0.9337,-0.8847,-0.8744,-0.8343,-0.7551,-0.839,-0.8408,-0.7822,-0.8433,-0.8855,-0.874,-0.8282,-0.7926,-0.9043,-0.9273,-0.9232,-0.9172,-0.9145,-0.9062,-0.8953,-0.8933,-0.8933,-0.8912,-0.8926,-0.8953,-0.8987,-0.9069,-0.9138,-0.9192,-0.9211,-0.9286,-0.939,-0.9437,-0.9388,-0.934,-0.9286,-0.9082,-0.898,-0.894,-0.8912,-0.8912,-0.8912,-0.8926,-0.896,-0.9069,-0.9016,-0.8029,-0.7484,-0.6642,-0.5463,-0.467,-0.3315,-0.2177,-0.1909,-0.1876,-0.1861,-0.1853,-0.1868,-0.1876,-0.1869,-0.1864,-0.1824,-0.1816,-0.1809,-0.1806,-0.1835,-0.1851,-0.1874,-0.1891,-0.1903,-2.1109,-2.1109,-2.1109,-2.1109,-2.1109,-2.1109,-2.1109,-2.1109,-2.1077,-2.1014,-2.0824,-2.043,-1.894,-1.6506,-1.3769,-1.2571,-1.2562,-1.2514,-1.2587,-1.2758,-1.2799,-1.2799,-1.2799,-1.2766,-1.2634,-1.2305,-1.2074,-1.1751,-1.1417,-1.111,-1.0769,-1.0392,-1.0249,-1.0107,-0.9814,-0.9117,-0.8507,-0.7825,-0.7398,-0.7459,-0.8214,-0.9173,-0.9846,-0.971,-0.9771,-0.9379,-0.8858,-0.8588,-0.8431,-0.7864,-0.8467,-0.8792,-0.8844,-0.9252,-0.9535,-0.965,-0.9088,-0.8942,-0.9323,-0.9388,-0.9376,-0.9308,-0.9233,-0.9111,-0.8994,-0.9015,-0.9062,-0.9062,-0.9144,-0.9149,-0.9149,-0.9245,-0.9294,-0.9342,-0.9388,-0.951,-0.9585,-0.9618,-0.9632,-0.9578,-0.953,-0.9352,-0.9183,-0.9048,-0.9014,-0.898,-0.9042,-0.9089,-0.913,-0.9233,-0.9127,-0.88,-0.843,-0.8094,-0.681,-0.5667,-0.3856,-0.2665,-0.1911,-0.1904,-0.1887,-0.1884,-0.1899,-0.1909,-0.1877,-0.1869,-0.183,-0.1849,-0.1838,-0.1866,-0.1866,-0.1885,-0.1903,-0.1911,-0.1925,-2.1109,-2.1109,-2.1109,-2.1109,-2.1109,-2.1109,-2.1109,-2.1109,-2.1109,-2.1077,-2.0874,-2.0303,-1.8748,-1.6754,-1.4165,-1.2702,-1.2758,-1.2694,-1.2726,-1.2767,-1.2799,-1.2799,-1.2799,-1.2766,-1.2568,-1.2173,-1.1949,-1.1552,-1.1214,-1.0988,-1.0787,-1.0493,-1.0385,-1.0222,-0.981,-0.9205,-0.8554,-0.7953,-0.8227,-0.8562,-0.9037,-0.9579,-0.9805,-0.9852,-0.9757,-0.9439,-0.858,-0.8495,-0.8489,-0.8489,-0.8575,-0.9024,-0.9526,-0.9623,-0.9704,-0.9781,-0.9503,-0.9493,-0.9528,-0.953,-0.9476,-0.9408,-0.9335,-0.922,-0.9117,-0.9186,-0.9233,-0.924,-0.9286,-0.9347,-0.9417,-0.9395,-0.9435,-0.9476,-0.9537,-0.9656,-0.9792,-0.9876,-0.9917,-0.9903,-0.9849,-0.9737,-0.9535,-0.9264,-0.9136,-0.9068,-0.913,-0.924,-0.9322,-0.9403,-0.9339,-0.9202,-0.9136,-0.8924,-0.8057,-0.6572,-0.472,-0.3013,-0.2276,-0.1937,-0.1922,-0.1919,-0.1929,-0.1936,-0.1911,-0.1908,-0.1932,-0.1914,-0.1898,-0.1898,-0.1871,-0.1915,-0.1929,-0.1936,-0.1945,-2.1109,-2.1109,-2.1109,-2.1109,-2.1109,-2.1109,-2.1109,-2.1109,-2.1109,-2.1032,-2.0557,-1.8652,-1.7464,-1.6258,-1.4232,-1.2767,-1.2799,-1.2791,-1.2783,-1.2791,-1.2799,-1.2799,-1.2799,-1.2708,-1.2477,-1.1982,-1.1784,-1.142,-1.0923,-1.0817,-1.0695,-1.0507,-1.0466,-1.0258,-1.006,-0.9723,-0.9076,-0.867,-0.8977,-0.8934,-0.8995,-0.9265,-0.9839,-0.9832,-0.9819,-0.9744,-0.9677,-0.9557,-0.9509,-0.9479,-0.9455,-0.9485,-0.9835,-0.9869,-0.9879,-0.9879,-0.9873,-0.9822,-0.9774,-0.9727,-0.9663,-0.9591,-0.9462,-0.9347,-0.9286,-0.9327,-0.9396,-0.9403,-0.9435,-0.9435,-0.9462,-0.949,-0.9578,-0.9632,-0.972,-0.9852,-0.9994,-1.0154,-1.022,-1.0209,-1.0134,-0.9981,-0.9879,-0.9602,-0.9372,-0.9298,-0.9306,-0.9417,-0.949,-0.9578,-0.9646,-0.96,-0.9664,-0.9455,-0.9121,-0.7347,-0.4682,-0.3066,-0.2146,-0.1995,-0.1994,-0.1994,-0.1954,-0.1967,-0.1973,-0.1973,-0.1974,-0.1964,-0.1952,-0.1904,-0.1904,-0.1919,-0.1955,-0.1988,-0.1997,-2.1002,-2.0869,-2.1029,-2.1109,-2.1109,-2.1109,-2.1109,-2.1109,-2.1077,-2.0557,-1.9737,-1.7882,-1.6527,-1.5359,-1.394,-1.2799,-1.2799,-1.2799,-1.2799,-1.2799,-1.2799,-1.2799,-1.2799,-1.27,-1.2477,-1.1916,-1.1784,-1.1413,-1.0784,-1.0717,-1.0697,-1.0629,-1.0548,-1.0453,-1.0299,-1.0215,-0.9789,-0.9618,-0.9671,-0.962,-0.9699,-0.9572,-0.9974,-1.01,-1.01,-1.0107,-1.0082,-1.0107,-1.01,-1.0093,-1.0086,-1.008,-1.0073,-1.0073,-1.0073,-1.008,-1.0073,-1.0039,-0.9913,-0.9846,-0.9724,-0.9609,-0.9551,-0.9519,-0.9435,-0.9469,-0.951,-0.9544,-0.9605,-0.9632,-0.9673,-0.9707,-0.9747,-0.9795,-0.9879,-1.0049,-1.0177,-1.0331,-1.0426,-1.0426,-1.0304,-1.0168,-1.0049,-0.9947,-0.9724,-0.9535,-0.9557,-0.9571,-0.9693,-0.9747,-0.9771,-0.9785,-0.9812,-0.8189,-0.7609,-0.6033,-0.4343,-0.3182,-0.2016,-0.2016,-0.202,-0.2008,-0.2003,-0.202,-0.2005,-0.2008,-0.2012,-0.2048,-0.2003,-0.1977,-0.1974,-0.1982,-0.1985,-0.2009,-0.2017,-2.0935,-2.0739,-2.0895,-2.1029,-2.1096,-2.1109,-2.1109,-2.1082,-2.1002,-2.0206,-1.88,-1.7537,-1.6236,-1.4814,-1.3448,-1.2799,-1.2799,-1.2799,-1.2799,-1.2799,-1.2799,-1.2799,-1.2766,-1.2601,-1.2312,-1.1883,-1.1619,-1.1247,-1.0717,-1.0717,-1.0711,-1.0677,-1.0616,-1.0555,-1.0446,-1.039,-1.0315,-1.0274,-1.0202,-1.0154,-1.0243,-1.015,-1.0141,-1.0281,-1.0281,-1.0281,-1.0274,-1.0267,-1.0274,-1.0281,-1.0281,-1.0295,-1.0301,-1.0308,-1.0315,-1.0315,-1.0301,-1.0229,-1.0114,-0.9893,-0.9778,-0.9744,-0.97,-0.9625,-0.9578,-0.9646,-0.9724,-0.9731,-0.9805,-0.9873,-0.9917,-0.9937,-0.9951,-0.9998,-1.0134,-1.029,-1.0365,-1.0473,-1.0575,-1.0603,-1.05,-1.0399,-1.0344,-1.0238,-1.0062,-0.9924,-0.991,-0.9941,-0.9958,-0.9971,-0.9924,-0.9886,-0.9866,-0.7718,-0.5426,-0.478,-0.41,-0.2939,-0.2056,-0.2041,-0.2037,-0.2028,-0.2033,-0.2055,-0.2037,-0.2044,-0.2049,-0.2084,-0.2067,-0.2045,-0.2046,-0.2018,-0.199,-0.2016,-0.2,-2.0922,-2.0712,-2.0726,-2.0869,-2.1042,-2.1096,-2.1051,-2.0997,-2.0672,-1.9787,-1.8423,-1.7311,-1.6041,-1.4651,-1.326,-1.2832,-1.2799,-1.2799,-1.2799,-1.2799,-1.2799,-1.2799,-1.27,-1.2536,-1.2279,-1.181,-1.1545,-1.1214,-1.0717,-1.0717,-1.0717,-1.0717,-1.0683,-1.0629,-1.0526,-1.039,-1.0322,-1.0315,-1.0322,-1.0322,-1.0317,-1.029,-1.0295,-1.0376,-1.0356,-1.0356,-1.0397,-1.0403,-1.0403,-1.0403,-1.0365,-1.039,-1.0383,-1.0376,-1.0363,-1.0342,-1.0349,-1.0335,-1.0263,-0.9992,-0.99,-0.9954,-0.9917,-0.9849,-0.9819,-0.99,-0.9981,-0.9961,-1.0001,-1.0114,-1.0141,-1.0148,-1.0154,-1.0195,-1.0317,-1.0412,-1.048,-1.0568,-1.0663,-1.0657,-1.0664,-1.065,-1.0629,-1.0555,-1.0412,-1.0304,-1.0308,-1.0288,-1.0215,-1.0168,-1.0086,-1.0032,-0.985,-0.7639,-0.5566,-0.4712,-0.386,-0.2687,-0.206,-0.2071,-0.2067,-0.207,-0.2078,-0.2092,-0.2067,-0.2072,-0.208,-0.2087,-0.2103,-0.2089,-0.2084,-0.2077,-0.2045,-0.2031,-0.2019,-2.0535,-2.0147,-2.0722,-2.0788,-2.053,-2.0504,-2.0628,-2.0619,-1.9743,-1.864,-1.7427,-1.6183,-1.4814,-1.3645,-1.3153,-1.2791,-1.2799,-1.2799,-1.2799,-1.2799,-1.2799,-1.2799,-1.2733,-1.2609,-1.2305,-1.1909,-1.1578,-1.1214,-1.0717,-1.0717,-1.0717,-1.0717,-1.0717,-1.0697,-1.0649,-1.0549,-1.0575,-1.0555,-1.05,-1.046,-1.0527,-1.0412,-1.0378,-1.0534,-1.0466,-1.0466,-1.0541,-1.0548,-1.0541,-1.0548,-1.0548,-1.0534,-1.0541,-1.0541,-1.0507,-1.048,-1.0487,-1.0575,-1.05,-1.0324,-1.0161,-1.0175,-1.0141,-1.0093,-1.0134,-1.0161,-1.0195,-1.0202,-1.0202,-1.0249,-1.0236,-1.0236,-1.0274,-1.027,-1.0358,-1.0439,-1.0521,-1.0629,-1.0711,-1.0644,-1.063,-1.0622,-1.0582,-1.0616,-1.0527,-1.048,-1.0426,-1.0383,-1.0297,-1.0283,-1.0229,-1.0161,-0.967,-0.7515,-0.5742,-0.4424,-0.3481,-0.252,-0.2106,-0.2089,-0.2092,-0.2107,-0.2114,-0.2123,-0.2094,-0.2099,-0.2143,-0.2152,-0.2147,-0.2138,-0.2124,-0.2105,-0.2074,-0.2071,-0.2088,-2.0241,-1.9893,-2.0521,-2.057,-2.025,-2.0334,-2.0414,-2.0187,-1.9057,-1.7816,-1.6497,-1.5278,-1.3987,-1.301,-1.2678,-1.2743,-1.2751,-1.2783,-1.2799,-1.2799,-1.2799,-1.2799,-1.2774,-1.2675,-1.2272,-1.1916,-1.1585,-1.1247,-1.0717,-1.0717,-1.0717,-1.0717,-1.0717,-1.0711,-1.0704,-1.0697,-1.0697,-1.0663,-1.0616,-1.0609,-1.0622,-1.0575,-1.0534,-1.0596,-1.061,-1.0603,-1.0704,-1.0732,-1.0718,-1.0732,-1.0758,-1.0724,-1.0717,-1.0704,-1.067,-1.0636,-1.0643,-1.0677,-1.0636,-1.0575,-1.0446,-1.0439,-1.039,-1.0315,-1.0329,-1.031,-1.0344,-1.0351,-1.0351,-1.0392,-1.0412,-1.0431,-1.041,-1.0405,-1.0473,-1.0555,-1.0588,-1.0697,-1.0717,-1.0677,-1.0623,-1.0595,-1.0561,-1.0595,-1.0576,-1.0582,-1.0561,-1.048,-1.0405,-1.0405,-1.0405,-1.0365,-0.9857,-0.8086,-0.5821,-0.3607,-0.2801,-0.2228,-0.2121,-0.2113,-0.2131,-0.218,-0.2149,-0.2152,-0.2156,-0.2163,-0.2177,-0.2181,-0.217,-0.2161,-0.2152,-0.2129,-0.2103,-0.2109,-0.2123,-2.0054,-1.9853,-2.0107,-2.0197,-2.021,-2.0265,-2.0102,-1.9602,-1.8526,-1.712,-1.5685,-1.4685,-1.35,-1.2559,-1.2531,-1.2621,-1.2661,-1.2734,-1.2783,-1.2799,-1.2799,-1.2799,-1.27,-1.2543,-1.2239,-1.181,-1.1479,-1.1247,-1.075,-1.0717,-1.0717,-1.0717,-1.0717,-1.0717,-1.0717,-1.0717,-1.0717,-1.0704,-1.0704,-1.069,-1.0683,-1.069,-1.067,-1.0704,-1.0704,-1.0732,-1.0792,-1.0792,-1.0806,-1.0806,-1.0786,-1.0758,-1.0724,-1.0717,-1.0717,-1.0717,-1.0684,-1.0717,-1.0711,-1.0663,-1.0663,-1.0609,-1.046,-1.0383,-1.0383,-1.0453,-1.0487,-1.05,-1.0507,-1.0588,-1.0649,-1.0595,-1.0548,-1.0602,-1.0656,-1.069,-1.069,-1.0717,-1.0717,-1.0711,-1.0704,-1.0677,-1.067,-1.0683,-1.063,-1.0663,-1.0649,-1.0643,-1.0588,-1.0602,-1.0609,-1.0609,-0.9913,-0.8728,-0.6431,-0.3722,-0.258,-0.2156,-0.2152,-0.2147,-0.2167,-0.221,-0.2172,-0.2172,-0.2182,-0.2189,-0.2189,-0.2189,-0.2186,-0.2178,-0.217,-0.2159,-0.2134,-0.2138,-0.2114,-1.9746,-1.9575,-1.9997,-1.9957,-1.9535,-1.8775,-1.8401,-1.8195,-1.6213,-1.4911,-1.4731,-1.3457,-1.2735,-1.232,-1.2523,-1.258,-1.2629,-1.2694,-1.2775,-1.2799,-1.2799,-1.2799,-1.2733,-1.2642,-1.2305,-1.1949,-1.1619,-1.1288,-1.0817,-1.0717,-1.0717,-1.0717,-1.0717,-1.0717,-1.0717,-1.0717,-1.0717,-1.0717,-1.0717,-1.0717,-1.0717,-1.0717,-1.0724,-1.0738,-1.0724,-1.0779,-1.086,-1.082,-1.0867,-1.0874,-1.0867,-1.0813,-1.0717,-1.0717,-1.0717,-1.0717,-1.0717,-1.0717,-1.0717,-1.0717,-1.0724,-1.0731,-1.0622,-1.059,-1.0609,-1.0616,-1.0643,-1.0622,-1.0622,-1.0677,-1.0704,-1.067,-1.0649,-1.0677,-1.0717,-1.0717,-1.0717,-1.0717,-1.0717,-1.0717,-1.0717,-1.0717,-1.0717,-1.0717,-1.0697,-1.0711,-1.0684,-1.0651,-1.0651,-1.0618,-1.0386,-1.0352,-0.9815,-0.8573,-0.6468,-0.3861,-0.2892,-0.2183,-0.2175,-0.2138,-0.2178,-0.2185,-0.2188,-0.2189,-0.2189,-0.2189,-0.2189,-0.2189,-0.2189,-0.2189,-0.2181,-0.2175,-0.217,-0.2168,-0.2168,-1.9548,-1.9468,-1.9867,-1.9572,-1.8551,-1.6785,-1.609,-1.5883,-1.4479,-1.3969,-1.392,-1.2727,-1.2093,-1.2125,-1.232,-1.249,-1.2507,-1.2678,-1.2799,-1.2799,-1.2799,-1.2799,-1.2799,-1.2733,-1.247,-1.2114,-1.1784,-1.1479,-1.0982,-1.0717,-1.0717,-1.0717,-1.0717,-1.0717,-1.0717,-1.0717,-1.0717,-1.0717,-1.0717,-1.0717,-1.0724,-1.0724,-1.0751,-1.0745,-1.0725,-1.0806,-1.0975,-1.0928,-1.0867,-1.0887,-1.088,-1.0786,-1.0724,-1.0717,-1.0717,-1.0717,-1.0717,-1.0717,-1.0717,-1.0717,-1.0718,-1.0745,-1.0725,-1.0718,-1.0718,-1.0744,-1.0724,-1.0697,-1.0704,-1.0717,-1.0717,-1.0717,-1.0717,-1.0717,-1.0717,-1.0717,-1.0717,-1.0717,-1.0717,-1.0717,-1.0717,-1.0717,-1.0717,-1.0717,-1.0717,-1.0717,-1.0485,-1.018,-1.0253,-1.0352,-0.9948,-0.9609,-0.9111,-0.8307,-0.6034,-0.3964,-0.2926,-0.2189,-0.2186,-0.2183,-0.2189,-0.2189,-0.2189,-0.2189,-0.2189,-0.2189,-0.2189,-0.2189,-0.2189,-0.2189,-0.2189,-0.2183,-0.2179,-0.2181,-0.2182,-1.9401,-1.9415,-1.9535,-1.8682,-1.7291,-1.4899,-1.3794,-1.3545,-1.3504,-1.3525,-1.3252,-1.2328,-1.1847,-1.1953,-1.2182,-1.2328,-1.245,-1.2645,-1.2799,-1.2799,-1.2799,-1.2799,-1.2799,-1.2766,-1.2536,-1.2279,-1.1916,-1.1512,-1.1148,-1.0883,-1.0717,-1.0717,-1.0717,-1.0717,-1.0717,-1.0717,-1.0738,-1.0752,-1.0738,-1.0732,-1.0704,-1.0718,-1.0759,-1.0833,-1.0819,-1.086,-1.1043,-1.0975,-1.0792,-1.0853,-1.086,-1.0833,-1.0765,-1.0725,-1.0725,-1.0758,-1.0772,-1.0738,-1.0792,-1.0812,-1.0819,-1.0826,-1.0799,-1.0846,-1.09,-1.0792,-1.0731,-1.0717,-1.0717,-1.0717,-1.0717,-1.0717,-1.0717,-1.0717,-1.0717,-1.0717,-1.0717,-1.0717,-1.0717,-1.0717,-1.0717,-1.0717,-1.0717,-1.0717,-1.0717,-1.0717,-1.0585,-1.0147,-0.9848,-1.0014,-0.9178,-0.8573,-0.7841,-0.7007,-0.5436,-0.3598,-0.2692,-0.2189,-0.2189,-0.2189,-0.2189,-0.2189,-0.2189,-0.2189,-0.2189,-0.2189,-0.2189,-0.2189,-0.2189,-0.2189,-0.2189,-0.2189,-0.2189,-0.2189,-0.2189,-1.9401,-1.9314,-1.842,-1.6772,-1.478,-1.4013,-1.3135,-1.2281,-1.2251,-1.2311,-1.2221,-1.1988,-1.1806,-1.1863,-1.2125,-1.2288,-1.2393,-1.2588,-1.2767,-1.2799,-1.2799,-1.2799,-1.2799,-1.2766,-1.2609,-1.2279,-1.1916,-1.1479,-1.0982,-1.075,-1.0717,-1.0717,-1.0717,-1.0717,-1.0717,-1.0717,-1.0725,-1.0792,-1.0826,-1.0779,-1.0725,-1.0786,-1.0853,-1.084,-1.0799,-1.0968,-1.1125,-1.1145,-1.1138,-1.1233,-1.1246,-1.1124,-1.088,-1.0867,-1.086,-1.086,-1.086,-1.086,-1.088,-1.0955,-1.1009,-1.0968,-1.1002,-1.1063,-1.1057,-1.0833,-1.0731,-1.0731,-1.0731,-1.0731,-1.0717,-1.0717,-1.0717,-1.0717,-1.0731,-1.0731,-1.0731,-1.0731,-1.0731,-1.0717,-1.0717,-1.0717,-1.0717,-1.0717,-1.0717,-1.0717,-1.0717,-1.0386,-0.9715,-0.941,-0.7769,-0.7002,-0.6172,-0.5235,-0.3998,-0.3329,-0.249,-0.2189,-0.2189,-0.2189,-0.2189,-0.2189,-0.2189,-0.2189,-0.2189,-0.2195,-0.2197,-0.2192,-0.2192,-0.22,-0.2196,-0.2199,-0.2193,-0.2192,-0.219,-1.8706,-1.7613,-1.6338,-1.5025,-1.3754,-1.3135,-1.2423,-1.1897,-1.1806,-1.1806,-1.1806,-1.1806,-1.1806,-1.1831,-1.2069,-1.2255,-1.2328,-1.258,-1.2702,-1.2775,-1.2799,-1.2799,-1.2799,-1.2766,-1.2708,-1.2444,-1.1982,-1.1479,-1.085,-1.0717,-1.0717,-1.0717,-1.0717,-1.0717,-1.0717,-1.0724,-1.0725,-1.0799,-1.088,-1.0874,-1.0792,-1.086,-1.0988,-1.0955,-1.0968,-1.1097,-1.1172,-1.1247,-1.124,-1.1295,-1.1281,-1.1212,-1.107,-1.1043,-1.1043,-1.1043,-1.1043,-1.1043,-1.107,-1.1111,-1.1165,-1.1158,-1.1111,-1.1186,-1.1261,-1.1056,-1.0907,-1.0894,-1.0819,-1.0813,-1.0744,-1.0717,-1.0717,-1.0717,-1.0765,-1.0819,-1.0826,-1.0873,-1.0806,-1.0717,-1.0717,-1.0717,-1.0717,-1.0717,-1.0717,-1.0684,-1.0684,-0.9543,-0.9045,-0.864,-0.7002,-0.5633,-0.49,-0.4099,-0.3161,-0.2726,-0.2357,-0.2189,-0.2189,-0.2189,-0.2189,-0.2189,-0.2189,-0.2193,-0.22,-0.2211,-0.2211,-0.2213,-0.2192,-0.2207,-0.2193,-0.2213,-0.2206,-0.2201,-0.2199,-1.746,-1.5332,-1.4202,-1.3605,-1.3315,-1.2311,-1.1837,-1.1806,-1.1806,-1.1806,-1.1806,-1.1806,-1.1806,-1.1863,-1.1955,-1.2117,-1.2296,-1.2507,-1.2661,-1.2759,-1.2791,-1.2799,-1.2799,-1.2766,-1.2708,-1.2477,-1.2048,-1.1479,-1.085,-1.0784,-1.0717,-1.0717,-1.0717,-1.0717,-1.0717,-1.0724,-1.0718,-1.0799,-1.088,-1.0961,-1.0955,-1.0955,-1.1076,-1.1165,-1.1158,-1.1103,-1.1253,-1.1322,-1.124,-1.1288,-1.1329,-1.1253,-1.1254,-1.1227,-1.1227,-1.1227,-1.1192,-1.1227,-1.124,-1.1281,-1.1336,-1.1349,-1.1281,-1.1302,-1.1355,-1.1301,-1.1151,-1.1056,-1.0982,-1.086,-1.0759,-1.0725,-1.0725,-1.0752,-1.082,-1.0941,-1.0961,-1.0948,-1.086,-1.0711,-1.0671,-1.0671,-1.0684,-1.0684,-1.0518,-1.0552,-0.9948,-0.8573,-0.7569,-0.7236,-0.6335,-0.4967,-0.3964,-0.3127,-0.2423,-0.2289,-0.2189,-0.2189,-0.2189,-0.2189,-0.2189,-0.2189,-0.2193,-0.2204,-0.2213,-0.2192,-0.2208,-0.2182,-0.2197,-0.2208,-0.219,-0.2206,-0.2203,-0.2196,-0.2183,-1.5298,-1.4053,-1.3784,-1.3135,-1.2221,-1.1897,-1.1806,-1.1806,-1.1806,-1.1806,-1.1806,-1.1806,-1.1806,-1.1815,-1.1955,-1.2054,-1.2127,-1.2393,-1.2564,-1.2653,-1.275,-1.2791,-1.2799,-1.2766,-1.2609,-1.2346,-1.1975,-1.1545,-1.0949,-1.0784,-1.0717,-1.0717,-1.0717,-1.0717,-1.0717,-1.0731,-1.0732,-1.0826,-1.1009,-1.1124,-1.1206,-1.1192,-1.1172,-1.1193,-1.1193,-1.1274,-1.1363,-1.1397,-1.143,-1.1491,-1.1504,-1.1436,-1.1389,-1.1383,-1.1383,-1.1348,-1.1348,-1.1383,-1.1397,-1.1423,-1.1477,-1.1423,-1.1402,-1.1511,-1.1558,-1.1558,-1.1374,-1.1267,-1.1137,-1.0846,-1.0752,-1.0793,-1.0806,-1.0826,-1.0872,-1.0994,-1.1062,-1.0982,-1.088,-1.0658,-1.0471,-1.0505,-1.0558,-1.0286,-0.9715,-0.9748,-0.9881,-0.8507,-0.6635,-0.6101,-0.5633,-0.4398,-0.3161,-0.2692,-0.2223,-0.2256,-0.2189,-0.2189,-0.2189,-0.2189,-0.2189,-0.2189,-0.2196,-0.2213,-0.2196,-0.2213,-0.2229,-0.2216,-0.2218,-0.2224,-0.2213,-0.2202,-0.2199,-0.2191,-0.2211]},{"header":{"parameterUnit":"m.s-1","parameterCategory":1,"la1":31.0,"la2":29.5877,"lo1":-88.7671,"lo2":-86.6584,"dy":0.0162,"dx":0.0185,"nx":115,"ny":88,"refTime":"2023-10-03T12:00:00:Z","depth":0,"parameterNumber":3,"parameterNumberName":"V-component_of_WINDS"},"data":[0.0,0.0,0.0,0.0,0.0,0.0,0.0,0.0,0.0,0.0,0.0,0.0,0.0,0.0,0.0,0.0,0.0,0.0,0.0,0.0,0.0,0.0,0.0,0.0,0.0,0.0,0.0,0.0,0.0,0.0,0.0,0.0,0.0,0.0,0.0,0.0,0.0,0.0,0.0,0.0,0.0,0.0,0.0,0.0,0.0,0.0,0.0,0.0,0.0,0.0,0.0,0.0,0.0,0.0,0.0,0.0,0.0,0.0,0.0,0.0,0.0,0.0,0.0,0.0,0.0,0.0,0.0,0.0,0.0,0.0,0.0,0.0,0.0,0.0,0.0,0.0,0.0,0.0,0.0,0.0,0.0,0.0,0.0,0.0,0.0,0.0,0.0,0.0,0.0,0.0,0.0,0.0,0.0,0.0,0.0,0.0,0.0,0.0,0.0,0.0,0.0,0.0,0.0,0.0,0.0,0.0,0.0,0.0,0.0,0.0,0.0,0.0,0.0,0.0,0.0,0.0,0.0,0.0,0.0,0.0,0.0,0.0,0.0,0.0,0.0,0.0,0.0,0.0,0.0,0.0,0.0,0.0,0.0,0.0,0.0,0.0,0.0,0.0,0.0,0.0,0.0,0.0,0.0,0.0,0.0,0.0,0.0,0.0,0.0,0.0,0.0,0.0,0.0,0.0,0.0,0.0,0.0,0.0,0.0,0.0,0.0,0.0,0.0,0.0,0.0,0.0,0.0,0.0,0.0,0.0,0.0,0.0,0.0,0.0,0.0,0.0,0.0,0.0,0.0,0.0,0.0,0.0,0.0,0.0,0.0,0.0,0.0,0.0,0.0,0.0,0.0,0.0,0.0,0.0,0.0,0.0,0.0,0.0,0.0,0.0,0.0,0.0,0.0,0.0,0.0,0.0,0.0,0.0,0.0,0.0,0.0,0.0,0.0,0.0,0.0,0.0,0.0,0.0,0.0,0.0,0.0,0.0,0.0,0.0,0.0,0.0,0.0,0.0,0.0,0.0,0.0,0.0,0.0,0.0,0.0,0.0,0.0,0.0,0.0,0.0,0.0,0.0,0.0,0.0,0.0,0.0,0.0,0.0,0.0,0.0,0.0,0.0,0.0,0.0,0.0,0.0,0.0,0.0,0.0,0.0,0.0,0.0,0.0,0.0,0.0,0.0,0.0,0.0,0.0,0.0,0.0,0.0,0.0,0.0,0.0,0.0,0.0,0.0,0.0,0.0,0.0,0.0,0.0,0.0,0.0,0.0,0.0,0.0,0.0,0.0,0.0,0.0,0.0,0.0,0.0,0.0,0.0,0.0,0.0,0.0,0.0,0.0,0.0,0.0,0.0,0.0,0.0,0.0,0.0,0.0,0.0,0.0,0.0,0.0,0.0,0.0,0.0,0.0,0.0,0.0,0.0,0.0,0.0,0.0,0.0,0.0,0.0,0.0,0.0,0.0,0.0,0.0,0.0,0.0,0.0,0.0,0.0,0.0,0.0,0.0,0.0,0.0,0.0,0.0,0.0,0.0,0.0,0.0,0.0,0.0,0.0,0.0,0.0,0.0,0.0,0.0,0.0,0.0,0.0,0.0,0.0,0.0,0.0,0.0,0.0,0.0,0.0,0.0,0.0,0.0,0.0,0.0,0.0,0.0,0.0,0.0,0.0,0.0,0.0,0.0,0.0,0.0,0.0,0.0,0.0,0.0,0.0,0.0,0.0,0.0,0.0,0.0,0.0,0.0,0.0,0.0,0.0,0.0,0.0,0.0,0.0,0.0,0.0,0.0,0.0,0.0,0.0,0.0,0.0,0.0,0.0,0.0,0.0,0.0,0.0,0.0,0.0,0.0,0.0,0.0,0.0,0.0,0.0,0.0,0.0,0.0,0.0,0.0,0.0,0.0,0.0,0.0,0.0,0.0,0.0,0.0,0.0,0.0,0.0,0.0,0.0,0.0,0.0,0.0,0.0,0.0,0.0,0.0,0.0,0.0,0.0,0.0,0.0,0.0,0.0,0.0,0.0,0.0,0.0,0.0,0.0,0.0,0.0,0.0,0.0,0.0,0.0,0.0,0.0,0.0,0.0,0.0,0.0,0.0,0.0,0.0,0.0,0.0,0.0,0.0,0.0,0.0,0.0,0.0,0.0,0.0,0.0,0.0,0.0,0.0,0.0,0.0,0.0,0.0,0.0,0.0,0.0,0.0,0.0,0.0,0.0,0.0,0.0,0.0,0.0,0.0,0.0,0.0,0.0,0.0,0.0,0.0,0.0,0.0,0.0,0.0,0.0,0.0,0.0,0.0,0.0,0.0,0.0,0.0,0.0,0.0,0.0,0.0,0.0,0.0,0.0,0.0,0.0,0.0,0.0,0.0,0.0,0.0,0.0,0.0,0.0,0.0,0.0,0.0,0.0,0.0,0.0,0.0,0.0,0.0,0.0,0.0,0.0,0.0,0.0,0.0,0.0,0.0,0.0,0.0,0.0,0.0,0.0,0.0,0.0,0.0,0.0,0.0,0.0,0.0,0.0,0.0,0.0,0.0,0.0,0.0,0.0,0.0,0.0,0.0,0.0,0.0,0.0,0.0,0.0,0.0,0.0,0.0,0.0,0.0,0.0,0.0,0.0,0.0,0.0,0.0,0.0,0.0,0.0,0.0,0.0,0.0,0.0,0.0,0.0,0.0,0.0,0.0,0.0,0.0,0.0,0.0,0.0,0.0,0.0,0.0,0.0,0.0,0.0,0.0,0.0,0.0,0.0,0.0,0.0,0.0,0.0,0.0,0.0,0.0,0.0,0.0,0.0,0.0,0.0,0.0,0.0,0.0,0.0,0.0,0.0,0.0,0.0,0.0,0.0,0.0,0.0,0.0,0.0,0.0,0.0,0.0,0.0,0.0,0.0,0.0,0.0,0.0,0.0,0.0,0.0,0.0,0.0,0.0,0.0,0.0,0.0,0.0,0.0,0.0,0.0,0.0,0.0,0.0,0.0,0.0,0.0,0.0,0.0,0.0,0.0,0.0,0.0,0.0,0.0,0.0,0.0,0.0,0.0,0.0,0.0,0.0,0.0,0.0,0.0,0.0,0.0,0.0,0.0,0.0,0.0,0.0,0.0,0.0,0.0,0.0,0.0,0.0,0.0,0.0,0.0,0.0,0.0,0.0,0.0,0.0,0.0,0.0,0.0,0.0,0.0,0.0,0.0,0.0,0.0,0.0,0.0,0.0,0.0,0.0,0.0,0.0,0.0,0.0,0.0,0.0,0.0,0.0,0.0,0.0,0.0,0.0,0.0,0.0,0.0,0.0,0.0,0.0,0.0,0.0,0.0,0.0,0.0,0.0,0.0,0.0,0.0,0.0,0.0,0.0,0.0,0.0,0.0,0.0,0.0,0.0,0.0,0.0,0.0,0.0,0.0,0.0,0.0,0.0,0.0,0.0,0.0,0.0,0.0,0.0,0.0,0.0,0.0,0.0,0.0,0.0,0.0,0.0,0.0,0.0,0.0,0.0,0.0,0.0,0.0,0.0,0.0,0.0,0.0,0.0,0.0,0.0,0.0,0.0,0.0,0.0,0.0,0.0,0.0,0.0,0.0,0.0,0.0,0.0,0.0,0.0,0.0,0.0,0.0,0.0,0.0,0.0,0.0,0.0,0.0,0.0,0.0,0.0,0.0,0.0,0.0,0.0,0.0,0.0,0.0,0.0,0.0,0.0,0.0,0.0,0.0,0.0,0.0,0.0,0.0,0.0,0.0,0.0,0.0,0.0,0.0,0.0,0.0,0.0,0.0,0.0,0.0,0.0,0.0,0.0,0.0,0.0,0.0,0.0,0.0,0.0,0.0,0.0,0.0,0.0,0.0,0.0,0.0,0.0,0.0,0.0,0.0,0.0,0.0,0.0,0.0,0.0,0.0,0.0,0.0,0.0,0.0,0.0,0.0,0.0,0.0,0.0,0.0,0.0,0.0,0.0,0.0,0.0,0.0,0.0,0.0,0.0,0.0,0.0,0.0,0.0,0.0,0.0,0.0,0.0,0.0,0.0,0.0,0.0,0.0,0.0,0.0,0.0,0.0,0.0,0.0,0.0,0.0,0.0,0.0,0.0,0.0,0.0,0.0,0.0,0.0,0.0,0.0,0.0,0.0,0.0,0.0,0.0,0.0,0.0,0.0,0.0,0.0,0.0,0.0,0.0,0.0,0.0,0.0,0.0,0.0,0.0,0.0,0.0,0.0,0.0,0.0,0.0,0.0,0.0,0.0,0.0,0.0,0.0,0.0,0.0,2.2087,0.0,0.0,0.0,0.0,0.0,0.0,0.0,0.0,0.0,0.0,0.0,0.0,0.0,0.0,0.0,0.0,0.0,0.0,0.0,0.0,0.0,0.0,0.0,0.0,0.0,0.0,0.0,0.0,0.0,0.0,0.0,0.0,0.0,0.0,0.0,0.0,0.0,0.0,0.0,0.0,0.0,0.0,0.0,0.0,0.0,0.0,0.0,0.0,0.0,0.0,0.0,0.0,0.0,0.0,0.0,0.0,0.0,0.0,0.0,0.0,0.0,0.0,0.0,0.0,0.0,0.0,0.0,0.0,0.0,0.0,0.0,0.0,0.0,0.0,0.0,0.0,0.0,0.0,0.0,0.0,0.0,0.0,0.0,0.0,0.0,0.0,0.0,0.0,0.0,0.0,0.0,0.0,0.0,0.0,0.0,0.0,0.0,0.0,0.0,0.0,0.0,0.0,0.0,0.0,0.0,0.0,0.0,0.0,0.0,0.0,1.9115,1.9997,1.8902,1.9614,2.2472,0.0,0.0,0.0,0.0,0.0,0.0,0.0,0.0,0.0,0.0,0.0,0.0,0.0,0.0,0.0,0.0,0.0,0.0,0.0,0.0,0.0,0.0,0.0,0.0,0.0,0.0,0.0,0.0,0.0,0.0,0.0,0.0,0.0,0.0,0.0,0.0,0.0,0.0,0.0,0.0,0.0,0.0,0.0,0.0,0.0,0.0,0.0,0.0,0.0,0.0,0.0,0.0,0.0,0.0,0.0,0.0,0.0,0.0,0.0,0.0,0.0,0.0,0.0,0.0,0.0,0.0,0.0,0.0,0.0,0.0,0.0,0.0,0.0,0.0,0.0,0.0,0.0,0.0,0.0,0.0,0.0,0.0,0.0,0.0,0.0,0.0,0.0,0.0,0.0,0.0,0.0,0.0,0.0,0.0,0.0,0.0,0.0,0.0,0.0,0.0,0.0,0.0,0.0,0.0,0.0,0.0,0.0,0.0,0.0,0.0,0.0,0.0,2.0388,2.1061,2.3348,0.0,0.0,0.0,0.0,0.0,0.0,0.0,0.0,0.0,0.0,0.0,0.0,0.0,0.0,0.0,0.0,0.0,0.0,0.0,0.0,0.0,0.0,0.0,0.0,0.0,0.0,0.0,0.0,0.0,0.0,0.0,0.0,0.0,0.0,0.0,0.0,0.0,0.0,0.0,0.0,0.0,0.0,0.0,0.0,0.0,0.0,0.0,0.0,0.0,0.0,0.0,0.0,0.0,0.0,0.0,0.0,0.0,0.0,0.0,0.0,0.0,0.0,0.0,0.0,0.0,0.0,0.0,0.0,0.0,0.0,0.0,0.0,0.0,0.0,0.0,0.0,0.0,0.0,0.0,0.0,0.0,0.0,0.0,0.0,0.0,0.0,0.0,0.0,0.0,0.0,0.0,0.0,0.0,0.0,0.0,0.0,0.0,0.0,0.0,0.0,0.0,0.0,0.0,0.0,0.0,0.0,0.0,0.0,0.0,0.0,2.1254,2.4426,2.3815,0.0,2.5909,0.0,0.0,0.0,0.0,0.0,0.0,0.0,0.0,0.0,0.0,0.0,0.0,0.0,0.0,0.0,0.0,0.0,0.0,0.0,0.0,0.0,0.0,0.0,0.0,0.0,0.0,0.0,0.0,0.0,0.0,0.0,0.0,0.0,0.0,0.0,0.0,0.0,0.0,0.0,0.0,0.0,0.0,0.0,0.0,0.0,0.0,0.0,0.0,0.0,0.0,0.0,0.0,0.0,0.0,0.0,0.0,0.0,0.0,0.0,0.0,0.0,0.0,0.0,0.0,0.0,0.0,0.0,0.0,0.0,0.0,0.0,0.0,0.0,0.0,0.0,0.0,0.0,0.0,0.0,0.0,0.0,0.0,0.0,0.0,0.0,0.0,0.0,0.0,0.0,0.0,0.0,0.0,0.0,0.0,0.0,0.0,0.0,0.0,0.0,0.0,0.0,0.0,0.0,0.0,0.0,0.0,0.0,0.0,0.0,0.0,2.1718,2.4239,2.4525,2.4983,0.0,0.0,0.0,0.0,0.0,0.0,0.0,0.0,0.0,0.0,0.0,0.0,0.0,0.0,0.0,0.0,0.0,0.0,0.0,0.0,0.0,0.0,0.0,0.0,0.0,0.0,0.0,0.0,0.0,0.0,0.0,0.0,0.0,0.0,0.0,0.0,0.0,0.0,0.0,0.0,0.0,0.0,0.0,0.0,0.0,0.0,0.0,0.0,0.0,0.0,0.0,0.0,0.0,0.0,0.0,0.0,0.0,0.0,0.0,0.0,0.0,0.0,0.0,0.0,0.0,0.0,0.0,0.0,0.0,0.0,0.0,0.0,0.0,0.0,0.0,0.0,0.0,0.0,0.0,0.0,0.0,0.0,0.0,0.0,0.0,0.0,0.0,0.0,0.0,0.0,0.0,0.0,0.0,0.0,0.0,0.0,0.0,0.0,0.0,0.0,0.0,0.0,0.0,0.0,0.0,0.0,0.0,0.0,0.0,0.0,2.173,2.2479,2.4673,2.4815,2.5147,2.5873,0.0,0.0,0.0,0.0,0.0,0.0,0.0,0.0,0.0,0.0,0.0,0.0,0.0,0.0,0.0,0.0,0.0,0.0,0.0,0.0,0.0,0.0,0.0,0.0,0.0,0.0,0.0,0.0,0.0,0.0,0.0,0.0,0.0,0.0,0.0,0.0,0.0,0.0,0.0,0.0,0.0,0.0,0.0,0.0,0.0,0.0,0.0,0.0,0.0,0.0,0.0,0.0,0.0,0.0,0.0,0.0,0.0,0.0,0.0,0.0,0.0,0.0,0.0,0.0,0.0,0.0,0.0,0.0,0.0,0.0,0.0,0.0,0.0,0.0,0.0,0.0,0.0,0.0,0.0,0.0,0.0,0.0,0.0,0.0,0.0,0.0,0.0,0.0,0.0,0.0,0.0,0.0,0.0,0.0,0.0,0.0,0.0,0.0,0.0,0.0,0.0,0.0,0.0,0.0,0.0,0.0,0.0,0.0,2.5434,2.3465,2.3921,2.7147,2.52,2.51,0.0,0.0,0.0,0.0,0.0,0.0,0.0,0.0,0.0,0.0,0.0,0.0,0.0,0.0,0.0,0.0,0.0,0.0,0.0,0.0,0.0,0.0,0.0,0.0,0.0,0.0,0.0,0.0,0.0,0.0,0.0,0.0,0.0,0.0,0.0,0.0,0.0,0.0,0.0,0.0,0.0,0.0,0.0,0.0,0.0,0.0,0.0,0.0,0.0,0.0,0.0,0.0,0.0,0.0,0.0,0.0,0.0,0.0,0.0,0.0,0.0,0.0,0.0,0.0,0.0,0.0,0.0,0.0,0.0,0.0,0.0,0.0,0.0,0.0,0.0,0.0,0.0,0.0,0.0,0.0,0.0,0.0,0.0,0.0,0.0,0.0,0.0,0.0,0.0,0.0,0.0,0.0,0.0,0.0,0.0,0.0,0.0,0.0,0.0,0.0,0.0,0.0,0.0,0.0,0.0,0.0,0.0,0.0,0.0,2.3419,2.4403,2.5193,2.5965,2.5655,2.5944,0.0,0.0,0.0,0.0,0.0,0.0,0.0,0.0,0.0,0.0,0.0,0.0,0.0,0.0,0.0,0.0,0.0,0.0,0.0,0.0,0.0,0.0,0.0,0.0,0.0,0.0,0.0,0.0,0.0,0.0,0.0,0.0,0.0,0.0,0.0,0.0,0.0,0.0,0.0,0.0,0.0,0.0,0.0,0.0,0.0,0.0,0.0,0.0,0.0,0.0,0.0,0.0,0.0,0.0,0.0,0.0,0.0,0.0,0.0,0.0,0.0,0.0,0.0,0.0,0.0,0.0,0.0,0.0,0.0,0.0,0.0,0.0,0.0,0.0,0.0,0.0,0.0,0.0,0.0,0.0,0.0,0.0,0.0,0.0,0.0,0.0,0.0,0.0,0.0,0.0,0.0,0.0,0.0,0.0,0.0,0.0,0.0,0.0,0.0,0.0,0.0,0.0,0.0,0.0,0.0,0.0,0.0,0.0,0.0,2.2564,0.0,2.5787,2.5542,2.5541,2.5715,0.0,0.0,0.0,0.0,0.0,0.0,0.0,0.0,0.0,0.0,0.0,0.0,0.0,0.0,0.0,0.0,0.0,0.0,0.0,0.0,0.0,0.0,0.0,0.0,0.0,0.0,0.0,0.0,0.0,0.0,0.0,0.0,0.0,0.0,0.0,0.0,0.0,0.0,0.0,0.0,0.0,0.0,0.0,0.0,0.0,0.0,0.0,0.0,0.0,0.0,0.0,0.0,0.0,0.0,0.0,0.0,0.0,0.0,0.0,0.0,0.0,0.0,0.0,0.0,0.0,0.0,0.0,0.0,0.0,0.0,0.0,0.0,0.0,0.0,0.0,0.0,0.0,0.0,0.0,0.0,0.0,0.0,0.0,0.0,0.0,0.0,0.0,0.0,0.0,0.0,0.0,0.0,0.0,0.0,0.0,0.0,0.0,0.0,0.0,0.0,0.0,0.0,0.0,0.0,0.0,0.0,0.0,0.0,2.0756,2.3362,2.4578,2.5615,2.6378,2.4889,2.4415,0.0,0.0,0.0,0.0,0.0,0.0,0.0,0.0,0.0,0.0,0.0,0.0,0.0,0.0,0.0,0.0,0.0,0.0,0.0,0.0,0.0,0.0,0.0,0.0,0.0,0.0,0.0,0.0,0.0,0.0,0.0,0.0,0.0,0.0,0.0,0.0,0.0,0.0,0.0,0.0,0.0,0.0,0.0,0.0,0.0,0.0,0.0,0.0,0.0,0.0,0.0,0.0,0.0,0.0,0.0,0.0,0.0,0.0,0.0,0.0,0.0,0.0,0.0,0.0,0.0,0.0,0.0,0.0,0.0,0.0,0.0,0.0,0.0,0.0,0.0,0.0,0.0,0.0,0.0,0.0,0.0,0.0,0.0,0.0,0.0,0.0,0.0,0.0,0.0,0.0,0.0,0.0,0.0,0.0,0.0,0.0,0.0,0.0,0.0,0.0,0.0,0.0,0.0,0.0,0.0,0.0,0.0,0.0,0.0,2.2725,2.4857,2.6898,2.862,2.62,2.6291,0.0,0.0,0.0,0.0,0.0,0.0,0.0,0.0,0.0,0.0,0.0,0.0,0.0,0.0,0.0,0.0,0.0,0.0,0.0,0.0,0.0,0.0,0.0,0.0,0.0,0.0,0.0,0.0,0.0,0.0,0.0,0.0,0.0,0.0,0.0,0.0,0.0,0.0,0.0,0.0,0.0,0.0,0.0,0.0,0.0,0.0,0.0,0.0,0.0,0.0,0.0,0.0,0.0,0.0,0.0,0.0,0.0,0.0,0.0,0.0,0.0,0.0,0.0,0.0,0.0,0.0,0.0,0.0,0.0,0.0,0.0,0.0,0.0,0.0,0.0,0.0,0.0,0.0,0.0,0.0,0.0,0.0,0.0,0.0,0.0,0.0,0.0,0.0,0.0,0.0,0.0,0.0,0.0,0.0,0.0,0.0,0.0,0.0,0.0,0.0,0.0,0.0,0.0,0.0,0.0,0.0,0.0,0.0,0.0,2.5203,2.629,2.7722,2.9479,2.7319,2.7058,2.8924,0.0,0.0,0.0,0.0,0.0,0.0,0.0,0.0,0.0,0.0,0.0,0.0,0.0,0.0,0.0,0.0,0.0,0.0,0.0,0.0,0.0,0.0,0.0,0.0,0.0,0.0,0.0,0.0,0.0,0.0,0.0,0.0,0.0,0.0,0.0,0.0,0.0,0.0,0.0,0.0,0.0,0.0,0.0,0.0,0.0,0.0,0.0,0.0,0.0,0.0,0.0,0.0,0.0,0.0,0.0,0.0,0.0,0.0,0.0,0.0,0.0,0.0,0.0,0.0,0.0,0.0,0.0,0.0,0.0,0.0,0.0,0.0,0.0,0.0,0.0,0.0,0.0,0.0,0.0,0.0,0.0,0.0,0.0,0.0,0.0,0.0,0.0,0.0,0.0,0.0,0.0,0.0,0.0,0.0,0.0,0.0,0.0,0.0,0.0,0.0,0.0,0.0,0.0,0.0,0.0,0.0,0.0,0.0,3.009,2.8841,2.8647,2.9435,2.8417,2.717,0.0,0.0,0.0,0.0,0.0,0.0,0.0,0.0,0.0,0.0,0.0,0.0,0.0,0.0,0.0,0.0,0.0,0.0,0.0,0.0,0.0,0.0,0.0,0.0,0.0,0.0,0.0,0.0,0.0,0.0,0.0,0.0,0.0,0.0,0.0,0.0,0.0,0.0,0.0,0.0,0.0,0.0,0.0,0.0,0.0,0.0,0.0,0.0,0.0,0.0,0.0,0.0,0.0,0.0,0.0,0.0,0.0,0.0,0.0,0.0,0.0,0.0,0.0,0.0,0.0,0.0,0.0,0.0,0.0,0.0,0.0,0.0,0.0,0.0,0.0,0.0,0.0,0.0,0.0,0.0,0.0,0.0,0.0,0.0,0.0,0.0,0.0,0.0,0.0,0.0,0.0,0.0,0.0,0.0,0.0,0.0,0.0,0.0,0.0,0.0,0.0,0.0,0.0,0.0,0.0,0.0,0.0,0.0,0.0,3.2619,3.3662,3.4526,3.5126,3.1546,2.9914,0.0,0.0,0.0,0.0,0.0,0.0,0.0,0.0,0.0,0.0,0.0,0.0,0.0,0.0,0.0,0.0,0.0,0.0,0.0,0.0,0.0,0.0,0.0,0.0,0.0,0.0,0.0,0.0,0.0,0.0,0.0,0.0,0.0,0.0,0.0,0.0,0.0,0.0,0.0,0.0,0.0,0.0,0.0,0.0,0.0,0.0,0.0,0.0,0.0,0.0,0.0,0.0,0.0,0.0,0.0,0.0,0.0,0.0,0.0,0.0,0.0,0.0,0.0,0.0,0.0,0.0,0.0,0.0,0.0,0.0,0.0,0.0,0.0,0.0,0.0,0.0,0.0,0.0,0.0,0.0,0.0,0.0,0.0,0.0,0.0,0.0,0.0,0.0,0.0,0.0,0.0,0.0,0.0,0.0,0.0,0.0,0.0,0.0,0.0,0.0,0.0,0.0,0.0,0.0,0.0,0.0,0.0,0.0,3.1554,3.4843,3.7324,3.8975,3.9704,3.5959,3.3165,0.0,0.0,0.0,0.0,0.0,0.0,0.0,0.0,0.0,0.0,0.0,0.0,0.0,0.0,0.0,0.0,0.0,0.0,0.0,0.0,0.0,0.0,0.0,0.0,0.0,0.0,0.0,0.0,0.0,0.0,0.0,0.0,0.0,0.0,0.0,0.0,0.0,0.0,0.0,0.0,0.0,0.0,0.0,0.0,0.0,0.0,0.0,0.0,0.0,0.0,0.0,0.0,0.0,0.0,0.0,0.0,0.0,0.0,0.0,0.0,0.0,0.0,0.0,0.0,0.0,0.0,0.0,0.0,0.0,0.0,0.0,0.0,0.0,0.0,0.0,0.0,0.0,0.0,0.0,0.0,0.0,0.0,0.0,0.0,0.0,0.0,0.0,0.0,0.0,0.0,0.0,0.0,0.0,0.0,0.0,0.0,0.0,0.0,0.0,0.0,0.0,0.0,0.0,0.0,0.0,0.0,0.0,0.0,3.3188,3.6532,3.9881,4.2073,4.2947,4.0348,3.6222,0.0,0.0,0.0,0.0,0.0,0.0,0.0,0.0,0.0,0.0,0.0,0.0,0.0,0.0,0.0,0.0,0.0,0.0,0.0,0.0,0.0,0.0,0.0,0.0,0.0,0.0,0.0,0.0,0.0,0.0,0.0,0.0,0.0,0.0,0.0,0.0,0.0,0.0,0.0,0.0,0.0,0.0,0.0,0.0,0.0,0.0,0.0,0.0,0.0,0.0,0.0,0.0,0.0,0.0,0.0,0.0,0.0,0.0,0.0,0.0,0.0,0.0,0.0,0.0,0.0,0.0,0.0,0.0,0.0,0.0,0.0,0.0,0.0,0.0,0.0,0.0,0.0,0.0,0.0,0.0,0.0,0.0,0.0,0.0,0.0,0.0,0.0,0.0,0.0,0.0,0.0,0.0,0.0,0.0,0.0,0.0,0.0,0.0,0.0,0.0,0.0,0.0,0.0,0.0,0.0,0.0,0.0,0.0,3.3971,3.7162,4.0701,4.3257,4.4709,4.0348,3.6146,0.0,0.0,0.0,0.0,0.0,0.0,0.0,0.0,0.0,0.0,0.0,0.0,0.0,0.0,0.0,0.0,0.0,0.0,0.0,0.0,0.0,0.0,0.0,0.0,0.0,0.0,0.0,0.0,0.0,0.0,0.0,0.0,0.0,0.0,0.0,0.0,0.0,0.0,0.0,0.0,0.0,0.0,0.0,0.0,0.0,0.0,0.0,0.0,2.5944,0.0,0.0,0.0,0.0,0.0,0.0,0.0,0.0,0.0,0.0,0.0,0.0,0.0,0.0,0.0,0.0,0.0,0.0,0.0,0.0,0.0,0.0,0.0,0.0,0.0,0.0,0.0,0.0,0.0,0.0,0.0,0.0,0.0,0.0,0.0,0.0,0.0,0.0,0.0,0.0,0.0,0.0,0.0,0.0,0.0,0.0,0.0,0.0,0.0,0.0,0.0,0.0,0.0,0.0,0.0,0.0,0.0,0.0,0.0,3.5102,3.868,4.0988,4.2985,4.4437,4.054,3.6884,0.0,0.0,0.0,0.0,0.0,0.0,0.0,0.0,0.0,0.0,0.0,0.0,0.0,0.0,0.0,0.0,0.0,0.0,0.0,0.0,0.0,0.0,0.0,0.0,0.0,0.0,0.0,0.0,0.0,0.0,0.0,0.0,0.0,0.0,0.0,0.0,0.0,0.0,0.0,0.0,0.0,0.0,0.0,0.0,0.0,0.0,0.0,0.0,0.0,0.0,0.0,0.0,0.0,0.0,0.0,0.0,0.0,0.0,0.0,0.0,0.0,0.0,0.0,0.0,0.0,0.0,0.0,0.0,0.0,0.0,0.0,0.0,0.0,0.0,0.0,0.0,0.0,0.0,0.0,0.0,0.0,0.0,0.0,0.0,0.0,0.0,0.0,0.0,0.0,0.0,0.0,0.0,0.0,0.0,0.0,0.0,0.0,0.0,0.0,0.0,0.0,0.0,0.0,0.0,0.0,0.0,0.0,3.3343,3.6205,4.0367,4.1423,4.2641,4.4088,4.1074,3.7993,3.5096,0.0,0.0,0.0,0.0,0.0,0.0,0.0,0.0,0.0,0.0,0.0,0.0,0.0,0.0,0.0,0.0,0.0,0.0,0.0,0.0,0.0,0.0,0.0,0.0,0.0,0.0,0.0,0.0,0.0,0.0,0.0,0.0,0.0,0.0,0.0,0.0,0.0,0.0,2.4562,2.6172,0.0,0.0,0.0,0.0,0.0,0.0,0.0,0.0,2.6827,0.0,0.0,0.0,0.0,0.0,0.0,0.0,0.0,0.0,0.0,0.0,0.0,0.0,0.0,0.0,0.0,0.0,0.0,0.0,0.0,0.0,0.0,0.0,0.0,0.0,0.0,0.0,0.0,0.0,0.0,0.0,0.0,0.0,0.0,0.0,0.0,0.0,0.0,0.0,0.0,0.0,0.0,0.0,0.0,0.0,0.0,0.0,0.0,0.0,0.0,0.0,0.0,0.0,0.0,0.0,0.0,3.285,3.4145,3.7015,4.1587,4.2949,4.405,4.4977,4.2493,3.9095,3.4916,0.0,0.0,0.0,0.0,0.0,0.0,0.0,0.0,0.0,0.0,0.0,0.0,0.0,0.0,0.0,0.0,0.0,0.0,0.0,0.0,0.0,0.0,0.0,0.0,0.0,0.0,0.0,0.0,0.0,0.0,0.0,0.0,0.0,0.0,0.0,0.0,0.0,0.0,0.0,2.8747,2.9922,0.0,0.0,0.0,0.0,0.0,0.0,0.0,0.0,2.7268,0.0,0.0,0.0,0.0,0.0,0.0,0.0,0.0,0.0,0.0,0.0,0.0,0.0,0.0,0.0,0.0,0.0,0.0,0.0,0.0,0.0,0.0,0.0,0.0,0.0,0.0,0.0,0.0,0.0,0.0,0.0,0.0,0.0,0.0,0.0,0.0,0.0,0.0,0.0,0.0,0.0,0.0,0.0,0.0,0.0,0.0,0.0,0.0,0.0,0.0,0.0,0.0,0.0,0.0,0.0,3.383,3.5069,3.7791,4.2219,4.303,4.3367,4.3257,4.0463,3.7423,0.0,0.0,0.0,0.0,0.0,0.0,0.0,0.0,0.0,0.0,0.0,0.0,0.0,0.0,0.0,0.0,0.0,0.0,0.0,0.0,0.0,0.0,0.0,0.0,0.0,0.0,0.0,0.0,0.0,0.0,0.0,0.0,0.0,0.0,0.0,0.0,0.0,0.0,0.0,0.0,2.9806,3.0503,2.9775,0.0,0.0,0.0,0.0,0.0,0.0,2.8846,2.8216,0.0,0.0,0.0,0.0,0.0,0.0,0.0,0.0,0.0,0.0,0.0,0.0,0.0,0.0,0.0,0.0,0.0,0.0,0.0,0.0,0.0,0.0,0.0,0.0,0.0,0.0,0.0,0.0,0.0,0.0,0.0,0.0,0.0,0.0,0.0,0.0,0.0,0.0,0.0,0.0,0.0,0.0,0.0,0.0,0.0,0.0,0.0,0.0,0.0,0.0,0.0,0.0,0.0,0.0,0.0,3.4579,3.5855,3.8464,4.2394,4.2754,4.2412,4.1461,3.8438,3.5746,0.0,0.0,0.0,0.0,0.0,0.0,0.0,0.0,0.0,0.0,0.0,0.0,0.0,0.0,0.0,0.0,0.0,0.0,0.0,0.0,0.0,0.0,0.0,0.0,0.0,0.0,0.0,0.0,0.0,0.0,0.0,0.0,0.0,0.0,0.0,0.0,0.0,0.0,0.0,0.0,0.0,3.171,3.152,3.2041,0.0,0.0,0.0,0.0,3.098,3.0791,0.0,0.0,0.0,0.0,0.0,0.0,0.0,0.0,0.0,0.0,0.0,0.0,0.0,0.0,0.0,0.0,0.0,0.0,0.0,0.0,0.0,0.0,0.0,0.0,0.0,0.0,0.0,0.0,0.0,0.0,0.0,0.0,0.0,0.0,0.0,0.0,0.0,0.0,0.0,0.0,0.0,0.0,0.0,0.0,0.0,0.0,0.0,0.0,0.0,0.0,0.0,0.0,0.0,0.0,0.0,0.0,3.4122,3.6206,3.8796,4.1814,4.2515,4.2374,4.15,3.8939,3.6248,0.0,0.0,0.0,0.0,0.0,0.0,0.0,0.0,0.0,0.0,0.0,0.0,0.0,0.0,0.0,0.0,0.0,0.0,0.0,0.0,0.0,0.0,0.0,0.0,0.0,0.0,0.0,0.0,0.0,0.0,0.0,0.0,0.0,0.0,0.0,0.0,0.0,0.0,0.0,0.0,0.0,3.5708,3.2241,3.424,3.525,0.0,0.0,3.3403,3.3366,3.5135,0.0,0.0,0.0,0.0,0.0,0.0,0.0,0.0,0.0,0.0,0.0,0.0,0.0,0.0,0.0,0.0,0.0,0.0,0.0,0.0,0.0,0.0,0.0,0.0,0.0,0.0,0.0,0.0,0.0,0.0,0.0,0.0,0.0,0.0,0.0,0.0,0.0,0.0,0.0,0.0,0.0,0.0,0.0,0.0,0.0,0.0,0.0,0.0,0.0,0.0,0.0,0.0,0.0,0.0,0.0,3.0447,3.3648,3.5566,3.778,4.0176,4.1439,4.1194,3.9398,3.6914,3.4713,0.0,0.0,0.0,0.0,0.0,0.0,0.0,0.0,0.0,0.0,0.0,0.0,0.0,0.0,0.0,0.0,0.0,0.0,0.0,0.0,0.0,0.0,0.0,0.0,0.0,0.0,0.0,0.0,0.0,0.0,0.0,0.0,0.0,0.0,0.0,0.0,0.0,0.0,0.0,0.0,0.0,0.0,3.3843,3.5635,0.0,0.0,0.0,3.642,3.598,0.0,0.0,0.0,0.0,0.0,0.0,0.0,0.0,0.0,0.0,0.0,0.0,0.0,0.0,0.0,0.0,0.0,0.0,0.0,0.0,0.0,0.0,0.0,0.0,0.0,0.0,0.0,0.0,0.0,0.0,0.0,0.0,0.0,0.0,0.0,0.0,0.0,0.0,0.0,0.0,0.0,0.0,0.0,0.0,0.0,0.0,0.0,0.0,0.0,0.0,0.0,0.0,0.0,0.0,0.0,0.0,0.0,3.3843,3.5311,3.7065,3.9161,4.0287,3.9775,3.7445,3.5194,0.0,0.0,0.0,0.0,0.0,0.0,0.0,0.0,0.0,0.0,0.0,0.0,0.0,0.0,0.0,0.0,0.0,0.0,0.0,0.0,0.0,0.0,0.0,0.0,0.0,0.0,0.0,2.4341,0.0,0.0,0.0,0.0,0.0,0.0,0.0,0.0,0.0,0.0,0.0,0.0,0.0,0.0,3.6148,3.5913,3.7705,3.8623,0.0,0.0,3.9335,3.8944,3.87,3.7601,0.0,0.0,0.0,0.0,0.0,0.0,0.0,0.0,0.0,0.0,0.0,0.0,0.0,0.0,0.0,0.0,0.0,0.0,0.0,0.0,0.0,0.0,0.0,0.0,0.0,0.0,0.0,0.0,0.0,0.0,0.0,0.0,0.0,0.0,0.0,0.0,0.0,0.0,0.0,0.0,0.0,0.0,0.0,0.0,0.0,0.0,0.0,0.0,0.0,0.0,0.0,0.0,0.0,0.0,3.256,3.5174,3.6025,3.7514,3.9732,3.9414,3.8357,3.6638,3.4885,3.3067,0.0,0.0,0.0,0.0,0.0,0.0,0.0,0.0,0.0,0.0,0.0,0.0,0.0,0.0,0.0,0.0,0.0,0.0,0.0,0.0,0.0,0.0,0.0,0.0,0.0,0.0,0.0,0.0,0.0,0.0,0.0,0.0,0.0,0.0,0.0,0.0,0.0,0.0,0.0,0.0,0.0,3.919,3.838,4.1185,4.3225,0.0,4.2077,4.1764,4.2511,4.3767,4.2692,3.6738,0.0,0.0,0.0,0.0,0.0,0.0,0.0,0.0,0.0,0.0,0.0,0.0,0.0,0.0,0.0,0.0,0.0,0.0,0.0,0.0,0.0,0.0,0.0,0.0,0.0,0.0,0.0,0.0,0.0,0.0,0.0,0.0,0.0,0.0,0.0,0.0,0.0,0.0,0.0,0.0,0.0,0.0,0.0,0.0,0.0,0.0,0.0,0.0,0.0,0.0,0.0,0.0,0.0,3.1515,3.3874,3.4995,3.6179,3.7528,3.799,3.7406,3.5759,3.4078,3.3068,0.0,0.0,0.0,0.0,0.0,0.0,0.0,0.0,0.0,0.0,0.0,0.0,0.0,0.0,0.0,0.0,0.0,0.0,0.0,0.0,0.0,0.0,0.0,0.0,0.0,0.0,0.0,0.0,2.5793,2.6401,2.7311,0.0,0.0,0.0,0.0,0.0,0.0,0.0,0.0,0.0,0.0,4.0157,4.1367,4.3103,0.0,0.0,4.4187,4.4182,4.4007,4.3157,4.1367,3.7996,3.5727,0.0,0.0,0.0,0.0,0.0,0.0,0.0,0.0,0.0,0.0,0.0,0.0,0.0,0.0,0.0,0.0,0.0,0.0,0.0,0.0,0.0,0.0,0.0,0.0,0.0,0.0,0.0,0.0,0.0,0.0,0.0,0.0,0.0,0.0,0.0,0.0,0.0,0.0,0.0,0.0,0.0,0.0,0.0,0.0,0.0,0.0,0.0,0.0,0.0,0.0,0.0,0.0,3.1236,3.3824,3.4529,3.5448,3.654,3.7064,3.668,3.5224,3.3811,3.3191,0.0,0.0,0.0,0.0,0.0,0.0,0.0,0.0,0.0,0.0,0.0,0.0,0.0,0.0,0.0,0.0,0.0,0.0,0.0,0.0,0.0,0.0,0.0,0.0,0.0,0.0,0.0,0.0,2.7252,2.7941,2.8525,0.0,0.0,0.0,0.0,0.0,0.0,0.0,0.0,0.0,0.0,4.1705,4.3634,4.4712,4.537,4.5519,4.5584,4.5439,4.4852,4.3275,4.1241,3.87,0.0,0.0,0.0,0.0,0.0,0.0,0.0,0.0,0.0,0.0,0.0,0.0,0.0,0.0,0.0,0.0,0.0,0.0,0.0,0.0,0.0,0.0,0.0,0.0,0.0,0.0,0.0,2.6335,0.0,0.0,2.6402,0.0,0.0,0.0,0.0,0.0,0.0,0.0,0.0,0.0,0.0,0.0,0.0,0.0,0.0,0.0,0.0,0.0,0.0,0.0,0.0,0.0,0.0,3.2395,3.5645,3.5146,3.577,3.7542,3.6905,3.6103,3.5224,3.4392,3.3397,3.223,0.0,0.0,0.0,0.0,0.0,0.0,0.0,0.0,0.0,0.0,0.0,0.0,0.0,0.0,0.0,0.0,0.0,0.0,0.0,0.0,0.0,0.0,0.0,0.0,0.0,0.0,2.6276,2.7682,2.8765,0.0,0.0,0.0,0.0,0.0,0.0,0.0,0.0,0.0,3.7375,4.1164,4.4187,4.5046,4.6115,4.694,4.7505,4.6217,4.518,4.5153,4.5012,4.3395,0.0,0.0,0.0,0.0,0.0,0.0,0.0,0.0,0.0,0.0,0.0,0.0,0.0,0.0,0.0,0.0,0.0,0.0,0.0,0.0,0.0,0.0,0.0,0.0,0.0,0.0,0.0,2.7116,2.7225,0.0,0.0,0.0,0.0,0.0,0.0,0.0,0.0,0.0,0.0,0.0,3.4362,3.5436,0.0,0.0,0.0,0.0,0.0,0.0,0.0,0.0,0.0,0.0,0.0,0.0,3.2702,3.4649,3.4983,3.5596,3.6597,3.6573,3.6099,3.5224,3.4392,3.3714,3.3115,0.0,0.0,0.0,0.0,0.0,0.0,0.0,0.0,0.0,0.0,0.0,0.0,0.0,0.0,0.0,0.0,0.0,0.0,0.0,0.0,0.0,0.0,0.0,0.0,0.0,2.9243,0.0,0.0,0.0,0.0,0.0,0.0,0.0,0.0,0.0,0.0,0.0,3.7525,4.0011,4.2556,4.4515,4.5351,4.6281,4.6977,0.0,0.0,0.0,0.0,0.0,0.0,0.0,0.0,0.0,0.0,0.0,0.0,0.0,0.0,4.1967,3.7865,3.6812,3.6723,3.7289,0.0,0.0,0.0,0.0,0.0,0.0,0.0,0.0,0.0,0.0,0.0,0.0,0.0,0.0,2.917,0.0,2.9397,0.0,0.0,0.0,0.0,0.0,0.0,0.0,0.0,3.5057,3.6329,3.7209,3.8237,3.8918,0.0,3.8609,3.714,0.0,0.0,0.0,0.0,0.0,0.0,0.0,0.0,3.3187,3.4449,3.522,3.5801,3.6239,3.643,3.611,3.5269,3.4661,3.4221,3.4036,3.3753,3.3554,0.0,0.0,0.0,0.0,0.0,0.0,0.0,0.0,0.0,0.0,0.0,0.0,0.0,0.0,0.0,0.0,0.0,0.0,0.0,0.0,0.0,0.0,0.0,3.0661,0.0,0.0,0.0,0.0,0.0,0.0,0.0,0.0,0.0,3.8319,3.8504,3.9504,4.2316,4.3855,4.5051,4.5936,0.0,0.0,0.0,0.0,0.0,0.0,0.0,4.3051,4.2696,4.2931,4.3124,4.3124,4.497,4.6287,4.5727,0.0,0.0,4.1577,4.0466,4.0281,4.0589,4.0396,4.0596,4.18,4.2085,4.2368,0.0,0.0,0.0,0.0,0.0,0.0,0.0,0.0,3.0124,3.1928,0.0,3.2231,0.0,0.0,0.0,0.0,3.1607,3.338,0.0,0.0,3.7233,3.8551,3.9385,3.9469,3.9861,4.0589,4.0581,4.0119,3.9189,3.6624,0.0,0.0,0.0,0.0,0.0,0.0,3.398,3.5037,3.591,3.646,3.665,3.6658,3.6236,3.5381,3.5073,3.4897,3.4879,3.3953,3.3713,3.4443,3.3047,0.0,0.0,0.0,0.0,0.0,0.0,0.0,0.0,0.0,0.0,0.0,0.0,0.0,0.0,0.0,0.0,0.0,0.0,0.0,0.0,3.168,0.0,0.0,0.0,0.0,0.0,0.0,0.0,0.0,0.0,0.0,3.8288,4.0319,4.247,4.4171,0.0,0.0,0.0,0.0,4.5941,4.686,4.6932,4.6932,4.6937,4.7514,4.7172,4.4825,0.0,0.0,4.6095,4.7172,4.7801,4.6271,4.6818,4.711,4.71,4.5513,4.4175,4.3521,4.3948,4.4209,4.3743,4.4936,4.5898,3.584,0.0,0.0,0.0,0.0,3.2887,3.4112,3.5182,3.5931,3.6055,3.5602,3.5054,0.0,0.0,0.0,0.0,0.0,0.0,3.7613,3.9047,4.0806,4.1769,4.2051,4.3196,4.3581,4.3205,4.2624,4.1931,4.1042,3.9649,3.8047,3.6312,0.0,0.0,0.0,0.0,3.501,3.5948,3.6918,3.7465,3.7547,3.7509,3.7087,3.6232,3.5537,3.5174,3.5196,3.4852,3.4669,3.4788,3.4906,0.0,0.0,0.0,0.0,0.0,0.0,0.0,0.0,0.0,0.0,0.0,0.0,0.0,0.0,0.0,0.0,0.0,0.0,0.0,3.2477,3.3093,3.3577,0.0,0.0,0.0,0.0,0.0,0.0,0.0,0.0,0.0,4.2375,4.2722,4.3648,0.0,0.0,4.6,4.6844,4.6767,4.6925,4.7769,4.7885,0.0,4.7923,4.758,4.7276,4.7156,4.8236,4.9311,5.0125,5.0626,5.1012,5.1073,5.1382,5.1531,5.1364,4.9127,4.7435,4.7632,4.794,4.8437,4.932,4.9932,5.04,4.2142,3.9366,3.6492,3.5267,3.5437,3.7073,3.8079,3.8626,3.9634,3.9765,3.9209,3.8359,3.7487,3.666,3.5645,0.0,0.0,0.0,3.9785,4.2048,4.3111,4.4124,4.5124,4.6124,4.6167,4.5316,4.4509,4.3662,4.2777,4.1585,4.0227,3.87,0.0,0.0,3.6217,3.6523,3.6948,3.7496,3.8434,3.8792,3.8443,3.7786,3.716,3.6646,3.581,3.532,3.5327,3.5265,3.5196,3.5032,3.5784,3.6198,0.0,0.0,0.0,0.0,0.0,0.0,0.0,0.0,0.0,0.0,0.0,3.2026,3.2385,0.0,0.0,0.0,3.3216,3.3492,3.4319,3.5206,0.0,0.0,0.0,0.0,0.0,0.0,0.0,3.9798,4.0981,4.2618,4.4776,4.4969,4.5519,4.7295,4.7078,4.7039,4.7884,0.0,4.7811,4.866,4.8775,4.8891,4.92,4.8857,4.8822,4.9654,5.0195,5.0812,5.1854,5.209,5.2403,5.3154,5.339,5.3631,5.4305,5.2692,5.1219,5.1147,5.137,5.1944,5.2943,5.3363,5.3705,4.7463,4.6907,4.1297,3.8822,3.8677,4.0319,4.1089,4.1281,4.2012,4.3128,4.4325,4.1986,4.174,4.2969,4.0781,0.0,3.9816,3.9851,4.164,4.4603,4.4603,4.5868,4.8095,4.8095,4.772,4.6882,4.6117,4.5274,4.4388,4.2879,4.2059,4.1966,4.0473,3.9204,3.8277,3.8969,3.9396,3.9396,4.0169,4.0208,3.9396,3.7777,3.6912,3.6918,3.6062,3.5564,3.5419,3.5411,3.5392,3.5351,3.615,3.6668,3.6794,0.0,0.0,0.0,0.0,0.0,0.0,0.0,0.0,0.0,0.0,0.0,0.0,0.0,0.0,3.4398,3.5244,0.0,3.6822,3.7707,0.0,0.0,0.0,3.9956,4.0825,4.0906,4.0951,4.0974,0.0,0.0,4.5802,4.6861,4.7704,4.8257,4.8322,4.8635,4.9524,4.8922,4.8713,4.9548,4.9713,5.0052,5.0758,5.0815,5.0941,5.1563,5.2012,5.1901,5.2055,5.2094,5.2421,5.3232,5.3396,5.3907,5.5574,5.5578,5.5406,5.3785,5.4153,5.465,5.4698,5.5113,5.5345,5.1472,5.0739,4.9311,4.7191,4.4799,4.5205,4.6086,4.7206,4.6861,4.6532,4.6185,4.4989,4.401,4.3176,4.3268,4.3608,4.4207,4.4866,4.5939,4.7319,4.7357,4.77,4.824,4.824,4.7843,4.7063,4.6848,4.6296,4.5445,4.503,4.4454,4.3709,4.332,4.2051,3.9977,4.0127,4.0208,4.0204,4.1046,4.1085,4.0204,3.9204,3.8658,3.8692,3.7778,3.7018,3.6381,3.6316,3.6293,3.6285,3.712,3.7856,3.8486,3.864,0.0,0.0,0.0,0.0,0.0,0.0,0.0,0.0,0.0,3.4948,3.5147,0.0,3.4824,0.0,3.7353,3.7829,3.8677,3.8954,0.0,0.0,4.1286,4.1699,4.2646,4.2776,4.2912,4.3386,4.4046,4.4885,4.594,4.7364,4.838,4.8518,4.8518,4.9068,5.0498,5.0072,4.9802,5.0643,5.1408,5.2018,5.2025,5.2009,5.1714,5.1281,5.1179,5.1411,5.2077,5.2193,5.2467,5.3288,5.3485,5.3911,5.489,5.5084,5.523,5.5324,5.5552,5.5668,5.5668,5.5358,5.5165,5.331,5.2806,5.244,5.1104,4.9274,4.8831,4.9156,4.9969,4.9538,4.8896,4.8009,4.724,4.6337,4.553,4.6012,4.6468,4.6874,4.7376,4.802,4.8814,4.8814,4.9041,4.9393,4.9432,4.9047,4.8238,4.789,4.7287,4.6435,4.6027,4.5556,4.5018,4.5018,4.4324,4.2934,4.2421,4.2205,4.2205,4.1927,4.1393,4.0516,3.9708,3.9323,3.9281,3.8446,3.7774,3.726,3.7273,3.722,3.721,3.7961,3.866,3.9144,3.9835,4.0495,0.0,0.0,0.0,0.0,0.0,0.0,0.0,0.0,0.0,0.0,0.0,3.7676,3.9143,3.9585,3.9977,4.0479,4.1252,4.2112,4.3002,4.3493,4.3995,4.4532,4.4619,4.4705,4.5042,4.5297,4.5617,4.6153,4.7669,4.8752,4.8752,4.9068,4.9755,5.0865,5.0776,5.0659,5.116,5.1692,5.2035,5.1961,5.1877,5.1647,5.1157,5.1023,5.1217,5.1683,5.1761,5.2017,5.2771,5.3296,5.3735,5.4447,5.4697,5.4929,5.5122,5.5354,5.5586,5.5892,5.5393,5.489,5.4175,5.4175,5.3061,5.2536,5.2433,5.1296,5.091,5.0971,5.0864,5.0366,4.9641,4.8944,4.8647,4.8613,4.8725,4.8682,4.8647,4.8647,4.9018,4.968,4.9701,5.0099,5.0837,5.0918,5.0529,4.9706,4.89,4.8085,4.7196,4.637,4.5892,4.5882,4.5882,4.5882,4.5873,4.4962,4.4441,4.4318,4.2769,4.1616,4.0888,4.0079,3.9655,3.962,3.8848,3.834,3.8152,3.8228,3.8264,3.8143,3.8777,3.9296,3.9576,4.0962,4.1889,0.0,4.2093,0.0,0.0,0.0,0.0,0.0,0.0,0.0,0.0,4.1306,4.0914,4.0877,4.1625,4.2173,4.225,4.3704,4.4671,4.479,4.5581,4.6103,4.6112,4.6114,4.6117,4.6125,4.6169,4.6239,4.6328,4.7734,4.8711,4.8711,4.9375,5.0109,5.0872,5.0851,5.0773,5.1036,5.1115,5.1335,5.1351,5.13,5.1266,5.1209,5.1189,5.1201,5.123,5.1232,5.1447,5.2066,5.2699,5.3359,5.3971,5.425,5.4347,5.4277,5.4451,5.4817,5.5311,5.5045,5.4426,5.6236,5.6673,5.4476,5.3528,5.3362,5.1811,5.1422,5.1815,5.1164,5.0772,5.0646,5.0461,5.0387,5.0387,5.0434,5.0395,5.0387,5.0426,5.0499,5.0654,5.0741,5.0872,5.1037,5.1115,5.0733,4.993,4.9073,4.8216,4.7361,4.649,4.6026,4.5882,4.5882,4.5882,4.5879,0.0,0.0,0.0,4.3629,4.2998,4.2845,4.2027,4.1559,4.1562,4.0718,0.0,3.9337,3.9277,3.9316,3.9291,3.9443,0.0,0.0,0.0,0.0,0.0,0.0,0.0,0.0,0.0,0.0,0.0,4.3768,4.3183,4.204,4.2502,4.2588,4.1939,4.2652,4.3483,4.4184,4.455,4.5065,4.5726,4.5974,4.6122,4.6166,4.6172,4.6184,4.6245,4.6289,4.6289,4.6367,4.7226,4.7851,4.7891,4.8594,4.9453,5.0234,4.9805,4.9648,5.0273,5.0976,5.1328,5.1404,5.1367,5.1304,5.1242,5.1201,5.1207,5.1211,5.1209,5.1203,5.1449,5.1566,5.1988,5.2697,5.2824,5.3068,5.3605,5.3746,5.3811,5.3962,5.385,5.3695,5.6685,5.692,5.524,5.4525,0.0,5.2624,5.2037,5.2237,5.1365,5.0959,5.0898,5.0898,5.0898,5.0898,5.0898,5.0898,5.0906,5.0981,5.1016,5.1026,5.1114,5.113,5.1172,5.1224,5.0802,4.9967,4.9161,4.8348,4.7489,4.6626,4.6148,4.6088,4.6089,4.6089,4.6088,4.6083,4.5616,4.4705,4.4267,4.3834,4.3409,4.2942,4.2551,4.2121,4.1731,0.0,0.0,0.0,0.0,0.0,0.0,0.0,0.0,4.3151,0.0,4.4118,4.4435,4.4663,4.4738,4.4717,4.4853,4.5319,4.5367,4.4982,4.3968,4.4426,4.4548,4.4124,4.4522,4.4973,4.5365,4.5471,4.5682,4.6071,4.617,4.623,4.624,4.6243,4.6246,4.6289,4.6289,4.6289,4.6289,4.707,4.7383,4.7109,4.8086,4.8867,4.8945,4.9297,4.9844,5.0664,5.1094,5.1367,5.1406,5.1406,5.1367,5.1343,5.1296,5.1296,5.1296,5.1296,5.129,5.1305,5.1565,5.2063,5.2372,5.2453,5.2546,5.2925,5.2998,5.2757,5.2436,5.2604,5.2844,5.6797,5.6953,5.582,5.5348,5.5293,5.3573,5.2806,5.2705,0.0,0.0,0.0,5.1182,5.1263,5.1379,5.1104,5.1062,5.1154,5.1145,5.1114,5.1122,5.1185,5.1224,5.1227,5.1287,5.0955,5.0213,4.949,4.8672,4.7812,4.6953,4.6523,4.6523,4.6406,4.6367,4.6523,4.6523,4.6116,4.5249,4.5082,4.4611,4.3952,4.3757,4.3325,4.2622,4.2556,4.2479,4.2391,4.2477,4.2832,4.3411,4.3445,4.3525,4.3682,4.438,4.4874,4.5153,4.566,4.6003,4.6127,4.606,4.6037,4.6076,4.6089,4.6122,4.6041,4.6102,4.6118,4.6118,4.6129,4.6137,4.6137,4.6173,4.6231,4.6232,4.6286,4.6289,4.6289,4.6289,4.6289,4.6289,4.6289,4.6289,4.6328,4.6875,4.7109,4.6641,4.7461,4.832,4.7969,4.8945,4.9961,5.0391,5.0898,5.1289,5.0859,5.082,5.0976,5.1055,5.1133,5.125,5.1367,5.1406,5.1366,5.1311,5.193,5.223,5.2306,5.2256,5.2295,5.2295,5.2191,5.1888,5.1377,5.1599,5.1995,5.746,5.8633,5.6289,5.5742,5.6288,5.4531,5.3742,5.3629,5.2709,5.2273,5.226,5.226,5.2691,5.3318,5.183,5.1557,5.2223,5.1529,5.1183,5.1189,5.1262,5.1287,5.129,5.1361,5.1327,5.1132,5.039,4.957,4.8711,4.7851,4.7422,4.7305,4.668,4.668,4.7344,4.7422,4.7343,4.7184,4.6474,4.6,4.5883,4.518,4.471,4.4593,4.3856,4.3505,4.3463,4.3505,4.3544,4.3658,4.3657,4.3972,4.4718,4.4913,4.5307,4.6014,4.6211,4.6247,4.6289,4.6289,4.6247,4.6247,4.6286,4.6233,4.611,4.6149,4.6174,4.6176,4.6238,4.6287,4.6287,4.6289,4.6289,4.6289,4.6289,4.6289,4.6289,4.6289,4.6289,4.6289,4.6289,4.6289,4.6328,4.6445,4.6523,4.6367,4.6797,4.6953,4.7617,4.8437,4.8828,4.8828,5.0156,5.0391,4.9258,4.8945,4.9492,5.0273,5.0351,5.0586,5.1211,5.1288,5.1328,5.1367,5.1562,5.1601,5.1598,5.1505,5.1532,5.1565,5.1523,5.1355,5.1199,5.1328,5.1336,5.6845,5.7399,5.6266,5.603,5.6306,5.5083,5.4369,5.3981,5.4011,5.3704,5.3241,5.3198,5.3434,5.3668,5.2454,5.2103,5.2456,5.1635,5.1261,5.1268,5.1284,5.1289,5.1288,5.131,5.1056,5.0589,5.0258,4.9639,4.8819,4.8436,4.832,4.8281,4.7891,4.7891,4.8281,4.832,4.832,4.8281,4.6991,4.6287,4.6288,4.5936,4.5467,4.4998,4.4608,4.4413,4.4413,4.4413,4.4608,4.5077,4.5116,4.5273,4.5664,4.5703,4.5898,4.625,4.6289,4.6289,4.6289,4.6289,4.6289,4.6289,4.6289,4.6248,4.619,4.6239,4.6244,4.6244,4.6288,4.6289,4.6289,4.6289,4.6289,4.6289,4.6289,4.6289,4.6289,4.6289,4.6289,4.6289,4.6289,4.6289,4.6289,4.6289,4.6289,4.6328,4.6641,4.7148,4.75,4.793,4.8164,4.8164,4.918,4.9375,4.8242,4.7656,4.8086,4.9257,4.9492,4.9843,5.0506,5.0701,5.0897,5.1287,5.1364,5.1402,5.1365,5.1367,5.1367,5.1328,5.1317,5.1259,5.1254,5.1224,5.1172,5.6228,5.623,5.623,5.623,5.6166,5.5634,5.5076,5.464,5.5271,5.5152,5.4446,5.4233,5.4225,5.4303,5.333,5.2941,5.2949,5.2052,5.1557,5.1559,5.1349,5.1274,5.1268,5.1181,5.084,5.0215,5.0231,4.983,4.9103,4.909,4.906,4.8984,4.9257,4.9374,4.914,4.9179,4.9101,4.8828,4.7383,4.6601,4.6601,4.6406,4.5976,4.5351,4.5312,4.5312,4.5312,4.5312,4.5625,4.625,4.6289,4.6289,4.6289,4.6289,4.6289,4.6289,4.6289,4.6289,4.6289,4.6289,4.6289,4.6289,4.6289,4.6289,4.6289,4.6289,4.6289,4.6289,4.6289,4.6289,4.6289,4.6289,4.6289,4.6289,4.6289,4.6289,4.6289,4.6289,4.6289,4.6289,4.6289,4.6289,4.6289,4.6289,4.6289,4.6406,4.6914,4.7266,4.7305,4.7305,4.7422,4.7617,4.8008,4.8086,4.7617,4.6953,4.7109,4.8396,4.8593,4.8983,4.9566,4.9878,5.0074,5.0579,5.0734,5.0695,5.0773,5.0772,5.0732,5.0656,5.0781,5.1054,5.1288,5.1268,5.12,5.6203,5.623,5.622,5.623,5.6202,5.623,5.6191,5.613,5.6401,5.6402,5.608,5.5468,5.5585,5.6054,5.4531,5.4179,5.4726,5.3178,5.2374,5.2291,5.1495,5.1135,5.1195,5.1163,5.1083,5.1018,5.0991,5.0648,5.0005,4.9902,4.9574,4.9171,5.0423,5.0736,5.0072,5.0037,4.9686,4.8905,4.7968,4.75,4.7422,4.6719,4.625,4.6211,4.6172,4.6172,4.6172,4.6172,4.6211,4.6289,4.6289,4.6289,4.6289,4.6289,4.6289,4.6289,4.6289,4.6289,4.6289,4.6289,4.6289,4.6289,4.6288,4.6287,4.6287,4.6285,4.6286,4.6289,4.6288,4.6288,4.6287,4.6286,4.6284,4.6285,4.6284,4.6283,4.6284,4.6283,4.6285,4.6287,4.6288,4.6288,4.6289,4.6289,4.6289,4.6289,4.6445,4.6562,4.6562,4.6562,4.6561,4.6522,4.6562,4.6601,4.6522,4.6445,4.6718,4.7574,4.7731,4.8121,4.8704,4.9012,4.9088,4.9482,4.9323,4.94,4.9326,4.9133,4.9249,4.9559,4.9914,5.0424,5.1129,5.1171,5.1069,5.5926,5.5904,5.5904,5.5962,5.6019,5.6091,5.6175,5.6292,5.6336,5.6342,5.6289,5.5968,5.5753,5.5571,5.3869,5.3548,5.4138,5.2503,5.2248,5.2933,5.1678,5.1504,5.2411,5.1918,5.1918,5.2302,5.1949,5.1628,5.1382,5.1037,5.0684,5.046,5.1125,5.1203,5.0891,5.0893,5.0737,5.0386,4.9528,4.9059,4.8865,4.7226,4.6797,4.7656,4.7344,4.707,4.707,4.707,4.6836,4.6367,4.6289,4.6289,4.6289,4.6289,4.6289,4.6289,4.6289,4.6289,4.6289,4.6289,4.6288,4.6288,4.6286,4.6285,4.6285,4.6283,4.6284,4.6286,4.6285,4.6285,4.6284,4.6283,4.6282,4.6282,4.6282,4.6282,4.6282,4.6282,4.6283,4.6284,4.6285,4.6285,4.6286,4.6288,4.6288,4.6288,4.6288,4.6288,4.6288,4.6288,4.6287,4.6285,4.6285,4.6285,4.6285,4.6287,4.6481,4.6711,4.6829,4.7142,4.7914,4.8147,4.8264,4.8693,4.873,4.8728,4.8925,4.8849,4.8849,4.8889,4.8927,4.9473,4.9824,4.9875,4.9883,5.6055,5.6016,5.5824,5.5758,5.5855,5.5883,5.5998,5.6091,5.6179,5.6194,5.6141,5.5901,5.5426,5.478,5.3868,5.3836,5.409,5.2794,5.277,5.3643,5.2281,5.2245,5.3265,5.2781,5.2709,5.3104,5.2713,5.2429,5.2275,5.1678,5.1341,5.1342,5.1389,5.1393,5.1393,5.1395,5.1279,5.0967,5.0382,5.0109,4.9837,4.8084,4.7616,4.871,4.832,4.7851,4.7617,4.7851,4.7461,4.6367,4.6523,4.668,4.6641,4.6445,4.6289,4.6328,4.6562,4.6562,4.6328,4.6288,4.6286,4.6286,4.6283,4.628,4.628,4.6278,4.6277,4.6277,4.6278,4.6278,4.628,4.6278,4.6278,4.6278,4.6277,4.6278,4.6277,4.6277,4.6278,4.628,4.628,4.6281,4.6282,4.6285,4.6286,4.6286,4.6286,4.6286,4.6287,4.6286,4.6284,4.6282,4.6279,4.6316,4.628,4.6282,4.6281,4.6315,4.6354,4.6667,4.7317,4.7438,4.7518,4.8024,4.8175,4.8057,4.7826,4.7942,4.8292,4.8408,4.8486,4.8565,4.8996,4.8883,4.8886,5.6945,5.6786,5.6055,5.5675,5.5702,5.5852,5.5911,5.5939,5.611,5.6119,5.5916,5.5227,5.4735,5.4689,5.5419,5.5994,5.585,5.4795,5.4405,5.4524,5.3579,5.3162,5.3189,5.3224,5.3263,5.3415,5.3286,5.2852,5.2179,5.1582,5.1211,5.1253,5.139,5.1414,5.1376,5.1385,5.0999,5.0414,5.0262,5.0148,5.0069,4.925,4.8821,4.9016,4.8864,4.8475,4.7889,4.8437,4.8086,4.6367,4.7109,4.7539,4.7461,4.6758,4.6367,4.6367,4.707,4.7147,4.6443,4.6402,4.636,4.6321,4.6355,4.6313,4.6313,4.6308,4.6302,4.6301,4.6302,4.6306,4.6267,4.6265,4.6304,4.6304,4.6303,4.6303,4.6303,4.6305,4.6306,4.6311,4.6313,4.6315,4.6281,4.6282,4.6282,4.6282,4.6282,4.6283,4.6285,4.6281,4.6278,4.6279,4.6277,4.6313,4.6313,4.6316,4.6313,4.6308,4.6386,4.6506,4.6851,4.712,4.7237,4.7198,4.7042,4.6807,4.6534,4.6612,4.7042,4.7314,4.7587,4.7821,4.8096,4.8564,4.8644,5.6485,5.6132,5.5824,5.5708,5.5719,5.5735,5.5774,5.5784,5.583,5.5834,5.5769,5.5475,5.5311,5.5283,5.5702,5.5616,5.5036,5.4246,5.44,5.5061,5.3913,5.3757,5.4708,5.4344,5.4377,5.467,5.428,5.3653,5.2991,5.277,5.2422,5.2015,5.2058,5.1865,5.1408,5.1364,5.1224,5.099,5.0915,5.0916,5.0916,5.0643,5.0525,5.0448,4.9951,4.9526,4.9213,4.9527,4.9137,4.8004,4.8278,4.8434,4.8356,4.7616,4.6874,4.6444,4.7108,4.7224,4.6558,4.7334,4.7409,4.6432,4.6816,4.689,4.6422,4.6302,4.629,4.6229,4.6287,4.6244,4.6115,4.6187,4.6301,4.6301,4.6301,4.6301,4.6301,4.6301,4.6302,4.6305,4.6306,4.6306,4.631,4.6313,4.6316,4.6316,4.6316,4.6278,4.6279,4.6315,4.6312,4.6311,4.6311,4.6311,4.6305,4.631,4.6311,4.6305,4.6342,4.6382,4.6613,4.6651,4.673,4.6924,4.6534,4.634,4.634,4.6379,4.6612,4.6651,4.6885,4.7081,4.712,4.7549,4.7744,5.6427,5.5764,5.5708,5.5708,5.5708,5.5708,5.5708,5.5708,5.5708,5.5708,5.5708,5.5708,5.5708,5.5708,5.5708,5.5439,5.4872,5.4386,5.4718,5.556,5.4511,5.4626,5.5434,5.5131,5.517,5.5516,5.49,5.4202,5.379,5.3611,5.3215,5.2686,5.2769,5.2434,5.171,5.1645,5.16,5.1385,5.1312,5.1318,5.1411,5.1375,5.1375,5.1298,5.084,5.0378,5.0145,5.0381,4.9992,4.9093,4.9133,4.9172,4.8899,4.8589,4.8044,4.734,4.7691,4.7767,4.7334,4.8187,4.8299,4.7246,4.7591,4.7701,4.714,4.7057,4.7029,4.6948,4.6952,4.6937,4.6839,4.6929,4.6794,4.6336,4.6245,4.6293,4.6244,4.6254,4.63,4.6302,4.6302,4.6302,4.6302,4.6306,4.6309,4.6309,4.6309,4.631,4.6312,4.631,4.6309,4.6306,4.6307,4.6306,4.6303,4.6306,4.6308,4.6302,4.6301,4.6339,4.6456,4.6418,4.6418,4.6535,4.6535,4.6379,4.6301,4.6301,4.6301,4.6301,4.6418,4.6613,4.6535,4.6418,4.6963,5.6856,5.5726,5.5698,5.5632,5.5671,5.5671,5.5698,5.5703,5.5708,5.5708,5.5708,5.5708,5.5708,5.5708,5.5708,5.567,5.5598,5.5465,5.5499,5.567,5.5555,5.5516,5.567,5.5631,5.5593,5.567,5.4895,5.4554,5.4475,5.3978,5.3597,5.3475,5.3526,5.3129,5.2239,5.2149,5.1893,5.1388,5.1214,5.1284,5.1369,5.1375,5.1375,5.1375,5.1338,5.0952,5.0217,5.0926,5.0616,4.9365,4.9756,4.9718,4.921,4.9523,4.964,4.8859,4.8854,4.885,4.8732,4.8843,4.9033,4.8564,4.8758,4.8695,4.8418,4.8434,4.839,4.8222,4.8247,4.8349,4.8257,4.8241,4.7725,4.6331,4.6383,4.6341,4.6242,4.6233,4.6299,4.6256,4.6256,4.6301,4.6301,4.6302,4.6302,4.6302,4.6302,4.6305,4.6309,4.6306,4.6306,4.6308,4.6306,4.6302,4.6302,4.6301,4.6302,4.6301,4.6301,4.6339,4.6612,4.6651,4.6574,4.6651,4.6456,4.634,4.6301,4.6301,4.6301,4.6301,4.6301,4.6301,4.6301,4.6379,4.6885,5.6269,5.5147,5.5085,5.5211,5.5413,5.5419,5.5514,5.5703,5.5708,5.5708,5.5708,5.5708,5.5708,5.5708,5.5708,5.5708,5.5708,5.5708,5.5708,5.5708,5.5708,5.5708,5.5708,5.5708,5.5708,5.567,5.5434,5.5324,5.5257,5.5045,5.4723,5.4299,5.4293,5.3557,5.2294,5.2234,5.1953,5.1306,5.1201,5.1278,5.137,5.1375,5.1375,5.1375,5.1375,5.126,5.1027,5.1265,5.1149,5.0602,5.0836,5.0605,4.9985,4.9947,4.9713,4.9048,4.9437,4.9394,4.9037,4.9854,4.9969,4.9223,4.9276,4.9203,4.8778,4.8676,4.8591,4.8444,4.8441,4.8444,4.8295,4.8406,4.8248,4.7728,4.725,4.69,4.6768,4.6475,4.6156,4.6118,4.6195,4.6298,4.63,4.6298,4.6333,4.6337,4.6337,4.6339,4.6342,4.6498,4.6301,4.6304,4.6301,4.6535,4.6691,4.6808,4.6808,4.6652,4.6535,4.6339,4.6573,4.669,4.6651,4.6574,4.6417,4.6339,4.6301,4.6301,4.6301,4.634,4.6379,4.634,4.6301,4.6612,4.7119,5.5643,5.4746,5.4784,5.4909,5.5091,5.5098,5.5198,5.5338,5.5356,5.5356,5.5363,5.5497,5.5537,5.556,5.5665,5.5708,5.5708,5.5708,5.5708,5.5708,5.5708,5.5708,5.5708,5.5708,5.5708,5.5708,5.5708,5.5708,5.5708,5.567,5.5439,5.5042,5.5027,5.4235,5.2695,5.2573,5.2175,5.132,5.1113,5.1211,5.1361,5.1375,5.1375,5.1375,5.1375,5.1375,5.1375,5.1375,5.1375,5.1375,5.1375,5.1104,5.0603,5.0291,4.9978,4.9899,4.9938,4.9975,4.9892,5.075,5.0984,5.008,5.0153,5.0172,4.9661,4.9445,4.935,4.9231,4.9293,4.9243,4.9139,4.919,4.9315,4.928,4.8338,4.7603,4.7276,4.7094,4.6636,4.6452,4.6679,4.6748,4.6376,4.6519,4.6606,4.6696,4.6705,4.6952,4.7074,4.7277,4.7198,4.7198,4.7432,4.751,4.7354,4.7354,4.7315,4.7081,4.6808,4.6496,4.6418,4.6457,4.6418,4.6418,4.634,4.634,4.6301,4.6301,4.6301,4.6379,4.6534,4.6807,4.6963,4.6924,4.7353,5.5035,5.4593,5.4663,5.4716,5.4761,5.4769,5.4814,5.4836,5.4843,5.4866,5.4909,5.5284,5.5371,5.5396,5.58,5.5929,5.5747,5.6049,5.5895,5.5824,5.5901,5.6016,5.5742,5.5708,5.5708,5.5708,5.5708,5.5708,5.5708,5.5708,5.5708,5.5598,5.5532,5.4829,5.3392,5.3174,5.243,5.1223,5.1014,5.1122,5.1368,5.1375,5.1375,5.1375,5.1375,5.1375,5.1375,5.1375,5.1375,5.1375,5.1375,5.1375,5.1219,5.0593,5.0555,5.1103,5.0593,5.0711,5.1141,5.1297,5.1293,5.1127,5.1032,5.1115,5.0769,5.0555,5.049,5.0418,5.0481,5.0543,5.0486,5.051,5.0519,5.0451,4.9312,4.8277,4.7508,4.7938,4.7612,4.6838,4.7411,4.8053,4.68,4.7181,4.7271,4.7429,4.7455,4.7795,4.8227,4.8353,4.8636,4.8601,4.833,4.8252,4.8017,4.8017,4.8017,4.7861,4.751,4.716,4.6574,4.6457,4.6301,4.6301,4.6379,4.634,4.6379,4.6457,4.6535,4.6729,4.7041,4.747,4.7665,4.7665,4.7938,5.4461,5.3823,5.3917,5.4079,5.4292,5.4397,5.4613,5.4776,5.4822,5.4898,5.4958,5.5511,5.5653,5.5447,5.6614,5.6667,5.617,5.6934,5.6819,5.6049,5.7126,5.6786,5.5939,5.5708,5.5708,5.5747,5.5747,5.5708,5.5708,5.5708,5.5708,5.5708,5.567,5.49,5.3428,5.3236,5.2404,5.1198,5.1005,5.1154,5.1358,5.1375,5.1375,5.1375,5.1375,5.1375,5.1375,5.1375,5.1375,5.1375,5.1375,5.1375,5.1375,5.114,5.1101,5.1258,5.1219,5.1101,5.1335,5.1412,5.1358,5.1234,5.1152,5.1044,5.0946,5.0821,5.074,5.0707,5.0707,5.0707,5.0707,5.0707,5.0707,5.0563,4.9783,4.8869,4.8187,4.8095,4.81,4.7724,4.8166,4.8599,4.8882,4.8515,4.8185,4.8188,4.8251,4.8409,4.8917,4.9061,4.9186,4.8907,4.8681,4.872,4.872,4.872,4.8681,4.8603,4.8369,4.8096,4.7393,4.6807,4.6535,4.6301,4.6534,4.6573,4.669,4.6807,4.6924,4.7237,4.786,4.8446,4.8485,4.8525,4.8875,5.3863,5.3457,5.3977,5.4266,5.4419,5.4932,5.5235,5.5339,5.5399,5.5416,5.5555,5.599,5.6238,5.6245,5.6864,5.6874,5.6418,5.6896,5.6588,5.6121,5.7016,5.7253,5.6775,5.6516,5.6247,5.6209,5.5862,5.5708,5.5708,5.5708,5.5708,5.5708,5.5708,5.5011,5.3857,5.3328,5.27,5.1687,5.1241,5.1154,5.1367,5.1375,5.1375,5.1375,5.1375,5.1375,5.1375,5.1375,5.1375,5.1375,5.1375,5.1375,5.1375,5.1375,5.1375,5.1375,5.1375,5.1368,5.1347,5.1302,5.1271,5.1149,5.1038,5.0977,5.0871,5.079,5.0707,5.0707,5.0707,5.0707,5.0707,5.0707,5.0707,5.0635,5.0245,4.9591,4.874,4.9105,4.896,4.8827,4.905,4.9405,5.0034,4.9284,4.9044,4.8955,4.8975,4.9318,4.9731,4.9666,4.97,4.963,4.9653,4.9848,4.9929,4.993,4.9852,4.9735,4.9344,4.9032,4.833,4.7549,4.7081,4.6885,4.6885,4.6884,4.7041,4.7353,4.7861,4.833,4.8914,4.9266,4.9344,4.9345,4.9734,5.3471,5.3492,5.4556,5.4946,5.4999,5.5829,5.6057,5.6098,5.6107,5.6174,5.63,5.6631,5.6866,5.7164,5.707,5.6842,5.6786,5.6593,5.6429,5.6522,5.7109,5.7559,5.8389,5.7258,5.689,5.6747,5.6093,5.5785,5.5708,5.5708,5.5708,5.5708,5.5708,5.5247,5.4395,5.3746,5.3065,5.2466,5.186,5.1626,5.1708,5.1687,5.1609,5.1375,5.1375,5.1375,5.1375,5.1375,5.1375,5.1375,5.1375,5.1375,5.1375,5.1375,5.1369,5.1363,5.1357,5.13,5.1207,5.1187,5.1147,5.1035,5.0956,5.0898,5.085,5.0758,5.0707,5.0707,5.0707,5.0707,5.0707,5.0707,5.0707,5.0668,5.063,5.0284,4.9899,5.0207,5.0284,4.9404,5.0139,5.0019,4.963,4.9375,4.9588,4.9695,4.973,4.9984,5.03,5.0423,5.059,5.0834,5.0968,5.1171,5.1215,5.1219,5.1102,5.0945,5.0437,5.0008,4.9384,4.8681,4.8017,4.7665,4.747,4.7392,4.7431,4.7899,4.8563,4.9032,4.9423,4.989,5.0242,5.0242,5.0476,5.4736,5.4259,5.5196,5.5623,5.5686,5.5886,5.606,5.6148,5.6179,5.6321,5.6412,5.7277,5.7183,5.6466,5.7561,5.7608,5.6412,5.7011,5.8027,5.8552,5.8002,5.8812,5.9305,5.8062,5.7076,5.6885,5.617,5.5785,5.5785,5.5862,5.5708,5.5742,5.5708,5.5318,5.4587,5.4295,5.3905,5.3404,5.3067,5.2718,5.2449,5.2387,5.2111,5.1562,5.1407,5.141,5.1374,5.1375,5.1375,5.1375,5.1373,5.137,5.1374,5.1375,5.1358,5.1286,5.1231,5.1195,5.1071,5.1036,5.0993,5.0942,5.0921,5.0854,5.0744,5.0712,5.0707,5.0707,5.0707,5.0707,5.0707,5.0707,5.0707,5.0707,5.0668,5.0635,5.0481,5.0592,5.0515,5.0438,5.0476,5.0592,5.0327,5.0245,5.0356,5.0431,5.0486,5.0623,5.0774,5.0966,5.111,5.127,5.1289,5.1302,5.1371,5.1375,5.1375,5.1375,5.1101,5.0866,5.0243,4.9696,4.9032,4.8446,4.7938,4.7938,4.8172,4.8524,4.9189,4.954,4.9969,5.0476,5.0866,5.0983,5.0944,5.5365,5.5071,5.5999,5.6327,5.6396,5.6879,5.7138,5.7207,5.7264,5.7305,5.7421,5.8035,5.7808,5.7223,5.775,5.7277,5.6598,5.678,5.7691,5.8357,5.8333,5.9063,6.0009,5.9,5.802,5.796,5.7346,5.6973,5.6857,5.6511,5.6362,5.6247,5.5939,5.5555,5.5011,5.4708,5.4421,5.4135,5.3772,5.3453,5.3349,5.3224,5.2758,5.1877,5.1441,5.1209,5.1205,5.1207,5.1229,5.1291,5.13,5.1352,5.1411,5.1374,5.1311,5.122,5.1201,5.1089,5.0978,5.0945,5.0928,5.0808,5.0829,5.0776,5.0736,5.0707,5.0707,5.0707,5.0707,5.0707,5.0707,5.0707,5.0707,5.0707,5.0707,5.0707,5.0707,5.0707,5.0707,5.0707,5.0668,5.0707,5.0668,5.0707,5.0673,5.0553,5.0558,5.0665,5.0801,5.096,5.1047,5.1156,5.1193,5.1273,5.1361,5.1375,5.1375,5.1375,5.1297,5.1219,5.0945,5.0477,4.9968,4.9422,4.8914,4.8993,4.9227,4.9539,4.9813,5.036,5.0867,5.1219,5.1375,5.1258,5.1258,5.5879,5.5853,5.675,5.7107,5.7147,5.7991,5.8278,5.833,5.8566,5.8386,5.8687,5.8609,5.854,5.832,5.7809,5.7395,5.706,5.672,5.7394,5.8354,5.8495,5.9224,5.9982,5.9727,5.9313,5.947,5.8498,5.8137,5.7879,5.7473,5.6863,5.6791,5.6132,5.567,5.5478,5.5109,5.4871,5.4964,5.4546,5.4134,5.4143,5.4043,5.3433,5.2297,5.1736,5.1234,5.1159,5.12,5.1266,5.1232,5.1306,5.1344,5.1351,5.1371,5.1307,5.1193,5.117,5.1067,5.0905,5.0866,5.0808,5.0712,5.0717,5.0717,5.0707,5.0707,5.0707,5.0707,5.0707,5.0707,5.0707,5.0707,5.0707,5.0707,5.0707,5.0707,5.0707,5.0707,5.0707,5.0707,5.0707,5.0707,5.0707,5.0707,5.0707,5.0707,5.0673,5.0712,5.0812,5.0914,5.0949,5.1056,5.1108,5.122,5.1357,5.1489,5.1489,5.1492,5.1453,5.1414,5.1414,5.1063,5.0593,5.0359,5.0086,5.0008,4.9929,5.0047,5.0437,5.118,5.1375,5.1375,5.1453,5.1492,5.157,5.7189,5.6675,5.7505,5.7893,5.7949,5.8074,5.8156,5.8249,5.8279,5.8334,5.8508,5.9026,5.8882,5.8578,5.8911,5.8603,5.789,5.7503,5.7981,5.8834,5.8968,5.9548,6.0158,6.0261,6.0187,5.9926,5.91,5.8469,5.8185,5.745,5.728,5.6901,5.6209,5.5785,5.5708,5.5581,5.5546,5.5705,5.5479,5.5288,5.4981,5.4697,5.4043,5.2683,5.223,5.1784,5.1417,5.1701,5.1833,5.1336,5.1818,5.1765,5.1561,5.15,5.1309,5.1086,5.1034,5.0966,5.0786,5.0735,5.0716,5.0712,5.0707,5.0707,5.0707,5.0707,5.0707,5.0707,5.0707,5.0707,5.0707,5.0707,5.0707,5.0707,5.0707,5.0745,5.0745,5.0784,5.0822,5.0861,5.0822,5.0707,5.0707,5.0707,5.0707,5.0707,5.0707,5.0673,5.0744,5.0803,5.0821,5.092,5.0998,5.117,5.1357,5.152,5.1603,5.1647,5.1609,5.1531,5.1492,5.1414,5.118,5.1101,5.071,5.0281,5.032,5.0515,5.0593,5.0905,5.114,5.1414,5.1648,5.1921,5.1999,5.7776,5.7483,5.785,5.8031,5.8088,5.8099,5.8122,5.8227,5.8282,5.8338,5.8454,5.8669,5.8672,5.8454,5.8467,5.8382,5.8151,5.7624,5.8144,5.8917,5.9241,5.9636,6.0307,6.0457,6.0425,6.0275,5.976,5.9387,5.9379,5.8679,5.8027,5.7511,5.6786,5.617,5.5817,5.5755,5.5896,5.6054,5.6061,5.6003,5.5616,5.5247,5.4273,5.3685,5.2991,5.2597,5.2486,5.257,5.2754,5.2608,5.2786,5.275,5.2443,5.1999,5.1602,5.1144,5.0984,5.0894,5.0735,5.0707,5.0712,5.0707,5.0707,5.0707,5.0707,5.0707,5.0707,5.0707,5.0707,5.0707,5.0707,5.0707,5.0707,5.0707,5.0745,5.0976,5.1202,5.1318,5.1318,5.1241,5.0976,5.0822,5.0707,5.0707,5.0707,5.0707,5.0707,5.0707,5.0707,5.0813,5.0932,5.1153,5.1421,5.1997,5.2168,5.2273,5.2222,5.2115,5.2038,5.196,5.1765,5.1765,5.1921,5.2,5.1492,5.0983,5.0827,5.1062,5.0866,5.0788,5.118,5.1609,5.2039,5.2313,5.2546,5.7997,5.7997,5.7997,5.7997,5.802,5.8099,5.817,5.8167,5.8271,5.8327,5.836,5.8352,5.8405,5.8451,5.8522,5.8501,5.8451,5.7895,5.8521,5.9273,5.9528,5.9883,6.0238,6.0384,6.0398,6.0439,6.043,6.0642,6.0315,5.9628,5.8971,5.8154,5.7401,5.6555,5.5899,5.5788,5.5942,5.6012,5.6094,5.6161,5.6014,5.5419,5.4741,5.4498,5.3818,5.3422,5.3202,5.3486,5.3503,5.3476,5.3571,5.3681,5.3465,5.287,5.2143,5.1509,5.1238,5.1155,5.1265,5.1284,5.1356,5.113,5.1015,5.0899,5.0707,5.0707,5.0707,5.0707,5.0707,5.0707,5.0707,5.0861,5.0971,5.1053,5.1207,5.1433,5.1928,5.212,5.2049,5.1779,5.1284,5.0976,5.0861,5.0707,5.0707,5.0707,5.0707,5.0707,5.0745,5.1087,5.1274,5.1609,5.2066,5.2918,5.3259,5.3356,5.3208,5.3012,5.2936,5.2858,5.2507,5.2234,5.2507,5.2898,5.2624,5.2194,5.196,5.1687,5.1687,5.1648,5.1648,5.1999,5.2741,5.3249,5.36,5.7997,5.7997,5.7997,5.7997,5.8008,5.8031,5.802,5.8031,5.8054,5.8111,5.826,5.8481,5.8726,5.9162,5.9779,6.0026,6.0,5.9714,5.9656,6.0061,6.013,6.02,6.0377,6.0377,6.0412,6.0453,6.0525,6.0564,6.0463,5.9909,5.9148,5.839,5.755,5.6593,5.5988,5.5802,5.5774,5.5925,5.6029,5.6097,5.6064,5.5727,5.5281,5.4719,5.4439,5.4162,5.3769,5.4063,5.4205,5.373,5.4119,5.4037,5.3533,5.3242,5.3095,5.2757,5.2475,5.2254,5.2627,5.2587,5.2356,5.1851,5.1697,5.1395,5.0938,5.0822,5.0822,5.0707,5.0784,5.0938,5.113,5.1433,5.1659,5.1967,5.2241,5.2664,5.3082,5.3351,5.3241,5.2972,5.2664,5.1669,5.1092,5.0861,5.0707,5.0707,5.0707,5.0784,5.0976,5.1433,5.1958,5.2357,5.2832,5.3613,5.4257,5.4409,5.4195,5.3901,5.3833,5.3717,5.3288,5.3053,5.3483,5.3717,5.3522,5.3366,5.3054,5.282,5.2625,5.2547,5.2546,5.3014,5.3678,5.4147,5.4498,5.7997,5.7997,5.7997,5.7997,5.7997,5.7997,5.7997,5.7997,5.8008,5.8031,5.8099,5.8198,5.8618,5.9268,5.9642,5.9946,6.0227,5.9998,6.0022,6.0346,6.0377,6.0377,6.0377,6.0384,6.0412,6.048,6.0526,6.0629,6.0494,6.0313,5.974,5.8934,5.8127,5.7319,5.6379,5.5981,5.5879,5.59,5.5958,5.595,5.6002,5.613,5.6016,5.5247,5.5593,5.5304,5.4955,5.4997,5.518,5.4869,5.5214,5.5123,5.468,5.4375,5.4246,5.5257,5.4125,5.3437,5.3213,5.3241,5.3005,5.262,5.2197,5.1505,5.101,5.1125,5.1395,5.1395,5.1856,5.2054,5.2054,5.2433,5.2544,5.2813,5.3241,5.3933,5.4357,5.4549,5.4626,5.4318,5.4049,5.3208,5.2246,5.1476,5.1284,5.1092,5.1279,5.1548,5.1779,5.2197,5.2771,5.3302,5.3796,5.4362,5.497,5.5375,5.5139,5.4857,5.4732,5.4537,5.4029,5.3951,5.4381,5.4654,5.4616,5.4382,5.411,5.3796,5.3484,5.3444,5.3444,5.399,5.4498,5.4732,5.5123,5.7997,5.7997,5.7997,5.7997,5.7997,5.7997,5.7997,5.7997,5.7997,5.8008,5.804,5.8242,5.8679,5.9158,5.9429,5.9918,6.0346,5.972,5.9873,6.0224,6.0377,6.0377,6.0377,6.0384,6.0425,6.0506,6.0591,6.0668,6.0691,6.0574,6.0213,5.9511,5.8896,5.7973,5.7093,5.6521,5.6188,5.5922,5.5882,5.5832,5.5875,5.63,5.6142,5.6055,5.623,5.6403,5.5947,5.5802,5.5764,5.5764,5.5711,5.56,5.5437,5.5103,5.5208,5.5829,5.5124,5.4531,5.4208,5.4049,5.3741,5.3356,5.2774,5.212,5.1702,5.1928,5.2197,5.2236,5.2664,5.301,5.3236,5.328,5.351,5.3741,5.4087,5.4939,5.5708,5.6011,5.6242,5.6165,5.5857,5.5401,5.4246,5.2708,5.1977,5.1592,5.1779,5.2236,5.2697,5.3159,5.3646,5.4264,5.4592,5.4984,5.5354,5.5786,5.5699,5.5739,5.5617,5.5474,5.5044,5.4966,5.524,5.5435,5.5592,5.5514,5.5318,5.481,5.4342,5.4342,5.4421,5.4849,5.524,5.5435,5.5708,5.7997,5.7997,5.7997,5.7997,5.7997,5.7997,5.7997,5.7997,5.7997,5.7983,5.8153,5.871,5.9074,5.9377,5.9855,6.0224,6.0377,6.0339,6.03,6.0339,6.0377,6.0377,6.0377,6.0436,6.0484,6.0584,6.0623,6.0693,6.0784,6.0763,6.0269,5.9588,5.9358,5.8363,5.7605,5.7147,5.67,5.6329,5.6083,5.6011,5.6001,5.6115,5.5978,5.5939,5.5862,5.5796,5.5768,5.5987,5.6074,5.6079,5.6123,5.6118,5.6137,5.5972,5.6209,5.6209,5.617,5.5703,5.5434,5.5164,5.4977,5.4395,5.3664,5.301,5.2664,5.2895,5.3121,5.3159,5.351,5.351,5.3664,5.3818,5.4318,5.4626,5.5126,5.6055,5.6863,5.7588,5.7775,5.7896,5.7473,5.6786,5.6209,5.4631,5.3323,5.29,5.2779,5.3236,5.3818,5.4318,5.4703,5.5147,5.5334,5.5568,5.5624,5.5807,5.5976,5.6166,5.617,5.6254,5.6215,5.6215,5.5942,5.6333,5.6489,5.6489,5.6528,5.6255,5.5903,5.5397,5.5397,5.5826,5.5981,5.6058,5.6293,5.7703,5.7336,5.7776,5.7997,5.7997,5.7997,5.7997,5.7997,5.8008,5.8153,5.8354,5.8949,5.9343,5.9656,6.0084,6.0377,6.0377,6.0377,6.0377,6.0377,6.0377,6.0377,6.0377,6.0398,6.0484,6.0597,6.0623,6.0654,6.0769,6.0781,6.0666,6.0281,5.9819,5.9281,5.8594,5.7934,5.7532,5.7284,5.6839,5.6729,5.7191,5.6816,5.6747,5.728,5.728,5.7319,5.7363,5.7319,5.728,5.7242,5.7203,5.7165,5.7126,5.7126,5.7126,5.7165,5.7126,5.6934,5.6401,5.6016,5.5324,5.467,5.4164,5.3813,5.351,5.3703,5.3933,5.4126,5.4472,5.4626,5.4857,5.5049,5.528,5.5549,5.6209,5.717,5.7901,5.8588,5.9127,5.9127,5.8434,5.7665,5.717,5.6593,5.5324,5.4246,5.4203,5.428,5.4972,5.528,5.5593,5.567,5.5824,5.648,5.66,5.6515,5.6356,5.659,5.6839,5.6839,5.6956,5.6605,5.6488,5.6956,5.7426,5.7504,5.7621,5.7737,5.7348,5.6606,5.6528,5.6762,5.684,5.6644,5.6878,5.7519,5.6884,5.7409,5.7776,5.796,5.7997,5.7997,5.7923,5.7703,5.7862,5.8293,5.8849,5.9423,5.9834,6.0196,6.0377,6.0377,6.0377,6.0377,6.0377,6.0377,6.0377,6.0384,6.0418,6.0518,6.0604,6.0655,6.0685,6.0781,6.0781,6.0742,6.055,6.0204,5.9858,5.9242,5.8736,5.8313,5.8083,5.7857,5.7588,5.8088,5.7747,5.7511,5.8121,5.8121,5.8121,5.8083,5.8044,5.8083,5.8121,5.8121,5.8198,5.8236,5.8275,5.8313,5.8313,5.8236,5.8011,5.7357,5.6285,5.5631,5.5439,5.5011,5.4587,5.4318,5.4703,5.5324,5.5362,5.5785,5.617,5.6242,5.6357,5.6434,5.6703,5.7473,5.8357,5.8781,5.9396,5.9973,6.0325,5.955,5.8973,5.8665,5.8248,5.7247,5.628,5.6203,5.6198,5.6472,5.6549,5.628,5.6247,5.6132,5.694,5.7675,5.7144,5.6844,5.7894,5.7971,5.7542,5.7425,5.719,5.7308,5.7932,5.8324,5.8519,5.8675,5.8752,5.8284,5.7659,5.7698,5.7777,5.6996,5.6839,5.727,5.7483,5.6811,5.6847,5.7336,5.7813,5.796,5.7935,5.7788,5.7282,5.7263,5.7881,5.8793,5.9476,5.9874,6.0277,6.037,6.0377,6.0377,6.0377,6.0377,6.0377,6.0377,6.0398,6.0432,6.0525,6.0578,6.0629,6.0691,6.0781,6.0781,6.0781,6.0781,6.0589,6.0281,5.9506,5.8736,5.8352,5.8313,5.8352,5.8352,5.8511,5.8357,5.8198,5.866,5.8544,5.8544,5.8775,5.8813,5.8813,5.8813,5.8781,5.8736,5.8698,5.866,5.8583,5.8467,5.8506,5.8429,5.8204,5.6665,5.6324,5.6632,5.6242,5.5857,5.5862,5.6324,5.6786,5.667,5.6901,5.7357,5.7511,5.755,5.7588,5.7819,5.8511,5.905,5.9435,5.9935,6.0473,6.0633,6.0671,6.0594,6.0281,5.9858,5.905,5.8434,5.8275,5.8159,5.7934,5.7665,5.7203,5.6896,5.6769,5.7542,5.8132,5.7463,5.7448,5.861,5.8987,5.8401,5.8284,5.8362,5.8596,5.8986,5.9183,5.9339,5.9573,5.9768,5.9299,5.8908,5.8752,5.8557,5.7659,5.7269,5.7816,5.6418,5.5354,5.6932,5.7116,5.6503,5.6429,5.6675,5.7135,5.7237,5.7688,5.8596,5.9357,5.9834,6.0151,6.0261,6.0339,6.0377,6.0377,6.0377,6.0377,6.0377,6.0377,6.0391,6.0457,6.048,6.0559,6.0623,6.0691,6.0781,6.0781,6.0781,6.0781,6.0781,6.0666,6.0396,6.0017,5.9973,5.9858,5.955,5.9319,5.9704,5.905,5.8858,5.9742,5.9358,5.9358,5.9781,5.9819,5.9781,5.9819,5.9819,5.9742,5.9781,5.9781,5.9588,5.9435,5.9473,5.9973,5.955,5.855,5.7627,5.7703,5.7511,5.7242,5.7473,5.7627,5.7819,5.7857,5.7857,5.8127,5.805,5.805,5.8083,5.8242,5.8742,5.9204,5.9665,6.0281,6.0742,6.0556,6.0479,6.0242,6.0012,6.0204,5.9704,5.9435,5.9127,5.8698,5.8396,5.8319,5.8011,5.7627,5.7592,5.8307,5.8626,5.8661,5.849,5.9204,5.9377,5.8908,5.8986,5.9416,5.9611,5.9845,5.9963,6.0119,6.0431,6.0665,6.0548,6.0274,5.9884,5.9338,5.8479,5.8401,5.8869,5.5611,5.4656,5.6381,5.6613,5.5732,5.5868,5.6088,5.6129,5.6646,5.7376,5.789,5.8547,5.911,5.9452,5.9804,5.995,5.9988,6.03,6.0377,6.0377,6.0377,6.0377,6.0422,6.0443,6.0486,6.0597,6.0661,6.0685,6.0781,6.0781,6.0781,6.0781,6.0781,6.0742,6.0704,6.0666,6.0666,6.0473,6.0204,6.0165,6.0242,5.9973,5.9742,6.0287,6.0364,6.0325,6.0902,6.1056,6.0979,6.1056,6.1012,6.0819,6.0781,6.0704,6.0512,6.0319,6.0358,6.0748,6.0319,5.9973,5.9242,5.9204,5.8736,5.8313,5.839,5.8473,5.8665,5.8704,5.8704,5.8934,5.905,5.8967,5.8852,5.9011,5.9396,5.9858,6.005,6.0666,6.0781,6.055,6.0441,6.0089,5.9896,6.0089,6.0171,6.0012,5.9896,5.9435,5.9011,5.9011,5.9011,5.8781,5.8709,5.9413,6.0109,6.0596,6.0365,6.0037,5.9806,5.9572,6.0079,6.0547,6.0587,6.0665,6.0782,6.0977,6.1368,6.1485,6.1172,6.0938,6.0665,6.004,5.9299,5.9455,5.9845,5.5097,5.4546,5.5244,5.5585,5.5622,5.6059,5.5702,5.4595,5.567,5.5996,5.5847,5.7167,5.79,5.8151,5.8797,5.9217,5.9408,6.0071,6.03,6.0377,6.0377,6.0377,6.0398,6.047,6.0493,6.0578,6.0642,6.0685,6.0775,6.0781,6.0781,6.0781,6.0781,6.0781,6.0781,6.0781,6.0781,6.0704,6.0704,6.0627,6.0589,6.0627,6.0512,6.0704,6.0704,6.1056,6.1402,6.1402,6.1479,6.1479,6.1364,6.1012,6.0819,6.0781,6.0781,6.0781,6.0787,6.0781,6.0742,6.0473,6.0473,6.0165,5.9319,5.8698,5.8698,5.9281,5.9473,5.955,5.9588,6.005,6.0396,6.0089,5.9819,6.0127,6.0435,6.0627,6.0627,6.0781,6.0781,6.0742,6.0704,6.055,6.0512,6.0589,6.0479,6.0473,6.0396,6.0358,6.005,6.0127,6.0165,6.0165,6.0244,6.0664,6.1186,6.1411,6.1391,6.0782,6.0665,6.0548,6.1094,6.1366,6.125,6.125,6.1524,6.1719,6.1719,6.1719,6.1641,6.1407,6.1172,6.086,6.0157,6.0274,6.0549,5.4252,5.3691,5.5034,5.4924,5.4038,5.4431,5.46,5.4875,5.5737,5.6261,5.6833,5.7429,5.7593,5.7963,5.8758,5.9026,5.9415,5.988,6.0262,6.0377,6.0377,6.0377,6.0391,6.045,6.048,6.0591,6.0655,6.0717,6.0763,6.0781,6.0781,6.0781,6.0781,6.0781,6.0781,6.0781,6.0781,6.0781,6.0781,6.0781,6.0781,6.0781,6.0819,6.0896,6.0819,6.1325,6.1787,6.1755,6.1826,6.1864,6.1826,6.1518,6.0781,6.0781,6.0781,6.0781,6.0781,6.0781,6.0781,6.0781,6.0819,6.0858,6.0242,6.0248,6.0165,6.0204,6.0358,6.0242,6.0242,6.055,6.0704,6.0512,6.0396,6.055,6.0781,6.0781,6.0781,6.0781,6.0781,6.0781,6.0781,6.0781,6.0781,6.0781,6.0666,6.0742,6.0787,6.0793,6.0793,6.0798,6.0839,6.0844,6.0894,6.1002,6.1222,6.148,6.1612,6.1563,6.1328,6.1213,6.1407,6.1602,6.168,6.1719,6.1719,6.1719,6.1719,6.1719,6.1719,6.1719,6.1485,6.1328,6.1172,6.1133,6.1133,5.3618,5.3398,5.4583,5.4606,5.3971,5.4055,5.4429,5.4938,5.5364,5.5898,5.6353,5.6674,5.6893,5.7046,5.7963,5.8606,5.8682,5.9804,6.0377,6.0377,6.0377,6.0377,6.0377,6.0391,6.0446,6.0558,6.0623,6.0642,6.0734,6.0781,6.0781,6.0781,6.0781,6.0781,6.0781,6.0781,6.0781,6.0781,6.0781,6.0781,6.0819,6.0819,6.0973,6.1133,6.1018,6.1479,6.2243,6.2172,6.1826,6.1941,6.1903,6.1364,6.0819,6.0781,6.0781,6.0781,6.0781,6.0781,6.0781,6.0781,6.0979,6.1133,6.1018,6.0979,6.0979,6.0935,6.0819,6.0666,6.0704,6.0781,6.0781,6.0781,6.0781,6.0781,6.0781,6.0781,6.0781,6.0781,6.0781,6.0781,6.0781,6.0781,6.0781,6.0781,6.0781,6.0781,6.0821,6.0834,6.0861,6.0844,6.0872,6.0887,6.0963,6.1039,6.1266,6.1513,6.161,6.1719,6.1641,6.1563,6.1719,6.1719,6.1719,6.1719,6.1719,6.1719,6.1719,6.1719,6.1719,6.1719,6.1719,6.1563,6.1446,6.1485,6.1524,5.3214,5.3251,5.4038,5.4546,5.4839,5.4767,5.4814,5.4836,5.4927,5.4881,5.5068,5.5323,5.5587,5.6084,5.7313,5.8001,5.8574,5.9651,6.0377,6.0377,6.0377,6.0377,6.0377,6.0384,6.0432,6.0525,6.0597,6.0635,6.0703,6.0752,6.0781,6.0781,6.0781,6.0781,6.0781,6.0781,6.0896,6.1172,6.1095,6.1056,6.0902,6.0979,6.121,6.1633,6.1556,6.1589,6.2429,6.2243,6.1402,6.1749,6.1787,6.1435,6.105,6.1018,6.1018,6.1012,6.1089,6.1095,6.1204,6.132,6.1556,6.1595,6.1441,6.171,6.182,6.1204,6.0858,6.0781,6.0781,6.0781,6.0781,6.0781,6.0781,6.0781,6.0781,6.0781,6.0781,6.0781,6.0781,6.0781,6.0781,6.0781,6.0781,6.0781,6.0781,6.0781,6.0804,6.0839,6.0888,6.0861,6.0953,6.1002,6.11,6.1202,6.1361,6.1575,6.166,6.1719,6.1719,6.1719,6.1719,6.1719,6.1719,6.1719,6.1719,6.1719,6.1719,6.1719,6.1719,6.1719,6.1719,6.1719,6.1719,6.1719,6.1719,5.3214,5.3246,5.3686,5.4223,5.48,5.4799,5.4976,5.5253,5.526,5.5246,5.5266,5.5357,5.5396,5.5664,5.7046,5.781,5.8307,5.9383,6.0224,6.0377,6.0377,6.0377,6.0377,6.0384,6.0457,6.0525,6.0597,6.0642,6.0734,6.0775,6.0781,6.0781,6.0781,6.0781,6.0781,6.0781,6.1018,6.1402,6.1595,6.1325,6.1018,6.1364,6.1749,6.1672,6.1441,6.2204,6.2891,6.3006,6.3166,6.3705,6.3782,6.3089,6.1903,6.1826,6.1787,6.1787,6.1787,6.1787,6.1903,6.2127,6.2435,6.2403,6.2397,6.2743,6.2506,6.1435,6.0858,6.0858,6.0858,6.0858,6.0781,6.0781,6.0781,6.0781,6.0858,6.0858,6.0858,6.0858,6.0858,6.0781,6.0781,6.0781,6.0781,6.0781,6.0781,6.0781,6.0781,6.0839,6.091,6.0918,6.107,6.1163,6.1291,6.1379,6.1511,6.159,6.1668,6.1719,6.1719,6.1719,6.1719,6.1719,6.1719,6.1719,6.1719,6.1875,6.1953,6.1797,6.1797,6.2031,6.1914,6.1992,6.1836,6.1797,6.1758,5.338,5.3709,5.407,5.4409,5.4784,5.4976,5.5181,5.5377,5.5396,5.5396,5.5396,5.5396,5.5396,5.5511,5.6778,5.7657,5.8001,5.9185,5.9918,6.0262,6.0377,6.0377,6.0377,6.0384,6.0436,6.0491,6.0584,6.0642,6.0757,6.0781,6.0781,6.0781,6.0781,6.0781,6.0781,6.0819,6.1018,6.1441,6.1903,6.1864,6.1402,6.1787,6.2518,6.2326,6.2403,6.2935,6.3358,6.3583,6.3545,6.3852,6.3775,6.3589,6.2781,6.2627,6.2627,6.2627,6.2627,6.2627,6.2781,6.3012,6.332,6.3281,6.3012,6.3237,6.366,6.2704,6.1858,6.1781,6.1556,6.1518,6.0935,6.0781,6.0781,6.0781,6.1248,6.1556,6.1595,6.1666,6.1281,6.0781,6.0781,6.0781,6.0781,6.0781,6.0781,6.0787,6.0787,6.0897,6.0973,6.0993,6.1163,6.1304,6.1406,6.1504,6.1598,6.1658,6.1713,6.1719,6.1719,6.1719,6.1719,6.1719,6.1719,6.1836,6.2031,6.2343,6.2343,6.2383,6.2774,6.3204,6.2813,6.2383,6.2187,6.207,6.1992,5.3636,5.4364,5.467,5.4821,5.4933,5.5246,5.539,5.5396,5.5396,5.5396,5.5396,5.5396,5.5396,5.5664,5.6243,5.7008,5.7848,5.8842,5.9568,6.0026,6.0339,6.0377,6.0377,6.0384,6.0436,6.0484,6.0571,6.0642,6.0757,6.0769,6.0781,6.0781,6.0781,6.0781,6.0781,6.0819,6.0979,6.1441,6.1903,6.2364,6.2326,6.2326,6.3018,6.332,6.3281,6.3172,6.382,6.4006,6.3545,6.3814,6.4045,6.382,6.3622,6.3468,6.3468,6.3468,6.3474,6.3468,6.3545,6.3775,6.4083,6.416,6.3775,6.3891,6.4397,6.4089,6.3243,6.2704,6.248,6.1787,6.121,6.1018,6.1018,6.1172,6.1755,6.2249,6.2364,6.2287,6.1589,6.0941,6.0908,6.0908,6.0787,6.0787,6.0816,6.081,6.0872,6.1002,6.1095,6.1136,6.1236,6.1401,6.1513,6.16,6.1671,6.1676,6.1719,6.1719,6.1719,6.1719,6.1719,6.1719,6.1836,6.2148,6.2383,6.2774,6.3243,6.3478,6.3907,6.422,6.3712,6.3164,6.3086,6.2891,6.2501,5.3683,5.4708,5.4776,5.4976,5.5266,5.5377,5.5396,5.5396,5.5396,5.5396,5.5396,5.5396,5.5396,5.5435,5.6243,5.6861,5.7205,5.8307,5.8949,5.937,6.0148,6.0339,6.0377,6.0384,6.0457,6.0511,6.0546,6.0629,6.074,6.0769,6.0781,6.0781,6.0781,6.0781,6.0781,6.0858,6.1056,6.1595,6.2435,6.3089,6.3551,6.3474,6.316,6.3275,6.3275,6.3737,6.4237,6.4429,6.482,6.5166,6.5243,6.4859,6.4589,6.4352,6.4352,6.4359,6.4359,6.4352,6.4429,6.4782,6.5089,6.4782,6.4666,6.5282,6.5551,6.5551,6.4711,6.3897,6.3364,6.2107,6.1568,6.1799,6.1876,6.219,6.2657,6.2953,6.314,6.248,6.1704,6.1426,6.1339,6.1135,6.0848,6.0855,6.091,6.0904,6.0883,6.1011,6.1204,6.1259,6.1304,6.1444,6.1598,6.166,6.1718,6.1716,6.1719,6.1719,6.1719,6.1719,6.1719,6.1719,6.1914,6.2383,6.2891,6.336,6.3828,6.4454,6.4532,6.4688,6.4376,6.4064,6.3985,6.3751,6.3321]}]]